[[{"header":{"parameterUnit":"m.s-1","parameterCategory":1,"la1":31.0,"la2":29.5877,"lo1":-88.7671,"lo2":-86.6584,"dx":0.0162,"dy":0.0185,"nx":115,"ny":88,"refTime":"2022-12-13T18:00:00:Z","depth":0,"parameterNumber":2,"parameterNumberName":"U-component_of_WINDS"},"data":[0.0,0.0,0.0,0.0,0.0,0.0,0.0,0.0,0.0,0.0,0.0,0.0,0.0,0.0,0.0,0.0,0.0,0.0,0.0,0.0,0.0,0.0,0.0,0.0,0.0,0.0,0.0,0.0,0.0,0.0,0.0,0.0,0.0,0.0,0.0,0.0,0.0,0.0,0.0,0.0,0.0,0.0,0.0,0.0,0.0,0.0,0.0,0.0,0.0,0.0,0.0,0.0,0.0,0.0,0.0,0.0,0.0,0.0,0.0,0.0,0.0,0.0,0.0,0.0,0.0,0.0,0.0,0.0,0.0,0.0,0.0,0.0,0.0,0.0,0.0,0.0,0.0,0.0,0.0,0.0,0.0,0.0,0.0,0.0,0.0,0.0,0.0,0.0,0.0,0.0,0.0,0.0,0.0,0.0,0.0,0.0,0.0,0.0,0.0,0.0,0.0,0.0,0.0,0.0,0.0,0.0,0.0,0.0,0.0,0.0,0.0,0.0,0.0,0.0,0.0,0.0,0.0,0.0,0.0,0.0,0.0,0.0,0.0,0.0,0.0,0.0,0.0,0.0,0.0,0.0,0.0,0.0,0.0,0.0,0.0,0.0,0.0,0.0,0.0,0.0,0.0,0.0,0.0,0.0,0.0,0.0,0.0,0.0,0.0,0.0,0.0,0.0,0.0,0.0,0.0,0.0,0.0,0.0,0.0,0.0,0.0,0.0,0.0,0.0,0.0,0.0,0.0,0.0,0.0,0.0,0.0,0.0,0.0,0.0,0.0,0.0,0.0,0.0,0.0,0.0,0.0,0.0,0.0,0.0,0.0,0.0,0.0,0.0,0.0,0.0,0.0,0.0,0.0,0.0,0.0,0.0,0.0,0.0,0.0,0.0,0.0,0.0,0.0,0.0,0.0,0.0,0.0,0.0,0.0,0.0,0.0,0.0,0.0,0.0,0.0,0.0,0.0,0.0,0.0,0.0,0.0,0.0,0.0,0.0,0.0,0.0,0.0,0.0,0.0,0.0,0.0,0.0,0.0,0.0,0.0,0.0,0.0,0.0,0.0,0.0,0.0,0.0,0.0,0.0,0.0,0.0,0.0,0.0,0.0,0.0,0.0,0.0,0.0,0.0,0.0,0.0,0.0,0.0,0.0,0.0,0.0,0.0,0.0,0.0,0.0,0.0,0.0,0.0,0.0,0.0,0.0,0.0,0.0,0.0,0.0,0.0,0.0,0.0,0.0,0.0,0.0,0.0,0.0,0.0,0.0,0.0,0.0,0.0,0.0,0.0,0.0,0.0,0.0,0.0,0.0,0.0,0.0,0.0,0.0,0.0,0.0,0.0,0.0,0.0,0.0,0.0,0.0,0.0,0.0,0.0,0.0,0.0,0.0,0.0,0.0,0.0,0.0,0.0,0.0,0.0,0.0,0.0,0.0,0.0,0.0,0.0,0.0,0.0,0.0,0.0,0.0,0.0,0.0,0.0,0.0,0.0,0.0,0.0,0.0,0.0,0.0,0.0,0.0,0.0,0.0,0.0,0.0,0.0,0.0,0.0,0.0,0.0,0.0,0.0,0.0,0.0,0.0,0.0,0.0,0.0,0.0,0.0,0.0,0.0,0.0,0.0,0.0,0.0,0.0,0.0,0.0,0.0,0.0,0.0,0.0,0.0,0.0,0.0,0.0,0.0,0.0,0.0,0.0,0.0,0.0,0.0,0.0,0.0,0.0,0.0,0.0,0.0,0.0,0.0,0.0,0.0,0.0,0.0,0.0,0.0,0.0,0.0,0.0,0.0,0.0,0.0,0.0,0.0,0.0,0.0,0.0,0.0,0.0,0.0,0.0,0.0,0.0,0.0,0.0,0.0,0.0,0.0,0.0,0.0,0.0,0.0,0.0,0.0,0.0,0.0,0.0,0.0,0.0,0.0,0.0,0.0,0.0,0.0,0.0,0.0,0.0,0.0,0.0,0.0,0.0,0.0,0.0,0.0,0.0,0.0,0.0,0.0,0.0,0.0,0.0,0.0,0.0,0.0,0.0,0.0,0.0,0.0,0.0,0.0,0.0,0.0,0.0,0.0,0.0,0.0,0.0,0.0,0.0,0.0,0.0,0.0,0.0,0.0,0.0,0.0,0.0,0.0,0.0,0.0,0.0,0.0,0.0,0.0,0.0,0.0,0.0,0.0,0.0,0.0,0.0,0.0,0.0,0.0,0.0,0.0,0.0,0.0,0.0,0.0,0.0,0.0,0.0,0.0,0.0,0.0,0.0,0.0,0.0,0.0,0.0,0.0,0.0,0.0,0.0,0.0,0.0,0.0,0.0,0.0,0.0,0.0,0.0,0.0,0.0,0.0,0.0,0.0,0.0,0.0,0.0,0.0,0.0,0.0,0.0,0.0,0.0,0.0,0.0,0.0,0.0,0.0,0.0,0.0,0.0,0.0,0.0,0.0,0.0,0.0,0.0,0.0,0.0,0.0,0.0,0.0,0.0,0.0,0.0,0.0,0.0,0.0,0.0,0.0,0.0,0.0,0.0,0.0,0.0,0.0,0.0,0.0,0.0,0.0,0.0,0.0,0.0,0.0,0.0,0.0,0.0,0.0,0.0,0.0,0.0,0.0,0.0,0.0,0.0,0.0,0.0,0.0,0.0,0.0,0.0,0.0,0.0,0.0,0.0,0.0,0.0,0.0,0.0,0.0,0.0,0.0,0.0,0.0,0.0,0.0,0.0,0.0,0.0,0.0,0.0,0.0,0.0,0.0,0.0,0.0,0.0,0.0,0.0,0.0,0.0,0.0,0.0,0.0,0.0,0.0,0.0,0.0,0.0,0.0,0.0,0.0,0.0,0.0,0.0,0.0,0.0,0.0,0.0,0.0,0.0,0.0,0.0,0.0,0.0,0.0,0.0,0.0,0.0,0.0,0.0,0.0,0.0,0.0,0.0,0.0,0.0,0.0,0.0,0.0,0.0,0.0,0.0,0.0,0.0,0.0,0.0,0.0,0.0,0.0,0.0,0.0,0.0,0.0,0.0,0.0,0.0,0.0,0.0,0.0,0.0,0.0,0.0,0.0,0.0,0.0,0.0,0.0,0.0,0.0,0.0,0.0,0.0,0.0,0.0,0.0,0.0,0.0,0.0,0.0,0.0,0.0,0.0,0.0,0.0,0.0,0.0,0.0,0.0,0.0,0.0,0.0,0.0,0.0,0.0,0.0,0.0,0.0,0.0,0.0,0.0,0.0,0.0,0.0,0.0,0.0,0.0,0.0,0.0,0.0,0.0,0.0,0.0,0.0,0.0,0.0,0.0,0.0,0.0,0.0,0.0,0.0,0.0,0.0,0.0,0.0,0.0,0.0,0.0,0.0,0.0,0.0,0.0,0.0,0.0,0.0,0.0,0.0,0.0,0.0,0.0,0.0,0.0,0.0,0.0,0.0,0.0,0.0,0.0,0.0,0.0,0.0,0.0,0.0,0.0,0.0,0.0,0.0,0.0,0.0,0.0,0.0,0.0,0.0,0.0,0.0,0.0,0.0,0.0,0.0,0.0,0.0,0.0,0.0,0.0,0.0,0.0,0.0,0.0,0.0,0.0,0.0,0.0,0.0,0.0,0.0,0.0,0.0,0.0,0.0,0.0,0.0,0.0,0.0,0.0,0.0,0.0,0.0,0.0,0.0,0.0,0.0,0.0,0.0,0.0,0.0,0.0,0.0,0.0,0.0,0.0,0.0,0.0,0.0,0.0,0.0,0.0,0.0,0.0,0.0,0.0,0.0,0.0,0.0,0.0,0.0,0.0,0.0,0.0,0.0,0.0,0.0,0.0,0.0,0.0,0.0,0.0,0.0,0.0,0.0,0.0,0.0,0.0,0.0,0.0,0.0,0.0,0.0,0.0,0.0,0.0,0.0,0.0,0.0,0.0,0.0,0.0,0.0,0.0,0.0,0.0,0.0,0.0,0.0,0.0,0.0,0.0,0.0,0.0,0.0,0.0,0.0,0.0,0.0,0.0,0.0,0.0,0.0,0.0,0.0,0.0,0.0,0.0,0.0,0.0,0.0,0.0,0.0,0.0,0.0,0.0,0.0,0.0,0.0,0.0,0.0,0.0,0.0,0.0,0.0,0.0,0.0,0.0,0.0,0.0,0.0,0.0,0.0,0.0,0.0,0.0,0.0,0.0,0.0,0.0,0.0,0.0,0.0,0.0,0.0,0.0,0.0,0.0,0.0,0.0,0.0,0.0,0.0,0.0,0.0,0.0,0.0,0.0,0.0,1.1601,0.0,0.0,0.0,1.1601,0.0,0.0,0.0,0.0,0.0,0.0,0.0,0.0,0.0,0.0,0.0,0.0,0.0,0.0,0.0,0.0,0.0,0.0,0.0,0.0,0.0,0.0,0.0,0.0,0.0,0.0,0.0,0.0,0.0,0.0,0.0,0.0,0.0,0.0,0.0,0.0,0.0,0.0,0.0,0.0,0.0,0.0,0.0,0.0,0.0,0.0,0.0,0.0,0.0,0.0,0.0,0.0,0.0,0.0,0.0,0.0,0.0,0.0,0.0,0.0,0.0,0.0,0.0,0.0,0.0,0.0,0.0,0.0,0.0,0.0,0.0,0.0,0.0,0.0,0.0,0.0,0.0,0.0,0.0,0.0,0.0,0.0,0.0,0.0,0.0,0.0,0.0,0.0,0.0,0.0,0.0,0.0,0.0,0.0,0.0,0.0,0.0,0.0,0.0,0.0,0.0,0.0,0.0,0.0,0.0,0.0,0.0,0.0,0.0,0.0,1.1805,1.1826,1.1826,1.1826,1.1826,0.0,0.0,0.0,0.0,0.0,0.0,0.0,0.0,0.0,0.0,0.0,0.0,0.0,0.0,0.0,0.0,0.0,0.0,0.0,0.0,0.0,0.0,0.0,0.0,0.0,0.0,0.0,0.0,0.0,0.0,0.0,0.0,0.0,0.0,0.0,0.0,0.0,0.0,0.0,0.0,0.0,0.0,0.0,0.0,0.0,0.0,0.0,0.0,0.0,0.0,0.0,0.0,0.0,0.0,0.0,0.0,0.0,0.0,0.0,0.0,0.0,0.0,0.0,0.0,0.0,0.0,0.0,0.0,0.0,0.0,0.0,0.0,0.0,0.0,0.0,0.0,0.0,0.0,0.0,0.0,0.0,0.0,0.0,0.0,0.0,0.0,0.0,0.0,0.0,0.0,0.0,0.0,0.0,0.0,0.0,0.0,0.0,0.0,0.0,0.0,0.0,0.0,0.0,0.0,0.0,0.0,0.0,0.0,0.0,0.0,0.0,0.0,1.2468,1.2392,1.2219,0.0,0.0,0.0,0.0,0.0,0.0,0.0,0.0,0.0,0.0,0.0,0.0,0.0,0.0,0.0,0.0,0.0,0.0,0.0,0.0,0.0,0.0,0.0,0.0,0.0,0.0,0.0,0.0,0.0,0.0,0.0,0.0,0.0,0.0,0.0,0.0,0.0,0.0,0.0,0.0,0.0,0.0,0.0,0.0,0.0,0.0,0.0,0.0,0.0,0.0,0.0,0.0,0.0,0.0,0.0,0.0,0.0,0.0,0.0,0.0,0.0,0.0,0.0,0.0,0.0,0.0,0.0,0.0,0.0,0.0,0.0,0.0,0.0,0.0,0.0,0.0,0.0,0.0,0.0,0.0,0.0,0.0,0.0,0.0,0.0,0.0,0.0,0.0,0.0,0.0,0.0,0.0,0.0,0.0,0.0,0.0,0.0,0.0,0.0,0.0,0.0,0.0,0.0,0.0,0.0,0.0,0.0,0.0,0.0,0.0,1.3283,1.3879,1.3846,0.0,1.294,0.0,0.0,0.0,0.0,0.0,0.0,0.0,0.0,0.0,0.0,0.0,0.0,0.0,0.0,0.0,0.0,0.0,0.0,0.0,0.0,0.0,0.0,0.0,0.0,0.0,0.0,0.0,0.0,0.0,0.0,0.0,0.0,0.0,0.0,0.0,0.0,0.0,0.0,0.0,0.0,0.0,0.0,0.0,0.0,0.0,0.0,0.0,0.0,0.0,0.0,0.0,0.0,0.0,0.0,0.0,0.0,0.0,0.0,0.0,0.0,0.0,0.0,0.0,0.0,0.0,0.0,0.0,0.0,0.0,0.0,0.0,0.0,0.0,0.0,0.0,0.0,0.0,0.0,0.0,0.0,0.0,0.0,0.0,0.0,0.0,0.0,0.0,0.0,0.0,0.0,0.0,0.0,0.0,0.0,0.0,0.0,0.0,0.0,0.0,0.0,0.0,0.0,0.0,0.0,0.0,0.0,0.0,0.0,0.0,0.0,1.3992,1.4271,1.4247,1.3922,0.0,0.0,0.0,0.0,0.0,0.0,0.0,0.0,0.0,0.0,0.0,0.0,0.0,0.0,0.0,0.0,0.0,0.0,0.0,0.0,0.0,0.0,0.0,0.0,0.0,0.0,0.0,0.0,0.0,0.0,0.0,0.0,0.0,0.0,0.0,0.0,0.0,0.0,0.0,0.0,0.0,0.0,0.0,0.0,0.0,0.0,0.0,0.0,0.0,0.0,0.0,0.0,0.0,0.0,0.0,0.0,0.0,0.0,0.0,0.0,0.0,0.0,0.0,0.0,0.0,0.0,0.0,0.0,0.0,0.0,0.0,0.0,0.0,0.0,0.0,0.0,0.0,0.0,0.0,0.0,0.0,0.0,0.0,0.0,0.0,0.0,0.0,0.0,0.0,0.0,0.0,0.0,0.0,0.0,0.0,0.0,0.0,0.0,0.0,0.0,0.0,0.0,0.0,0.0,0.0,0.0,0.0,0.0,0.0,0.0,1.4515,1.4837,1.4985,1.4813,1.4444,1.3753,0.0,0.0,0.0,0.0,0.0,0.0,0.0,0.0,0.0,0.0,0.0,0.0,0.0,0.0,0.0,0.0,0.0,0.0,0.0,0.0,0.0,0.0,0.0,0.0,0.0,0.0,0.0,0.0,0.0,0.0,0.0,0.0,0.0,0.0,0.0,0.0,0.0,0.0,0.0,0.0,0.0,0.0,0.0,0.0,0.0,0.0,0.0,0.0,0.0,0.0,0.0,0.0,0.0,0.0,0.0,0.0,0.0,0.0,0.0,0.0,0.0,0.0,0.0,0.0,0.0,0.0,0.0,0.0,0.0,0.0,0.0,0.0,0.0,0.0,0.0,0.0,0.0,0.0,0.0,0.0,0.0,0.0,0.0,0.0,0.0,0.0,0.0,0.0,0.0,0.0,0.0,0.0,0.0,0.0,0.0,0.0,0.0,0.0,0.0,0.0,0.0,0.0,0.0,0.0,0.0,0.0,0.0,0.0,1.5535,1.5638,1.5914,1.6454,1.5896,1.5232,0.0,0.0,0.0,0.0,0.0,0.0,0.0,0.0,0.0,0.0,0.0,0.0,0.0,0.0,0.0,0.0,0.0,0.0,0.0,0.0,0.0,0.0,0.0,0.0,0.0,0.0,0.0,0.0,0.0,0.0,0.0,0.0,0.0,0.0,0.0,0.0,0.0,0.0,0.0,0.0,0.0,0.0,0.0,0.0,0.0,0.0,0.0,0.0,0.0,0.0,0.0,0.0,0.0,0.0,0.0,0.0,0.0,0.0,0.0,0.0,0.0,0.0,0.0,0.0,0.0,0.0,0.0,0.0,0.0,0.0,0.0,0.0,0.0,0.0,0.0,0.0,0.0,0.0,0.0,0.0,0.0,0.0,0.0,0.0,0.0,0.0,0.0,0.0,0.0,0.0,0.0,0.0,0.0,0.0,0.0,0.0,0.0,0.0,0.0,0.0,0.0,0.0,0.0,0.0,0.0,0.0,0.0,0.0,0.0,1.5767,1.663,1.7221,1.746,1.7279,1.6632,0.0,0.0,0.0,0.0,0.0,0.0,0.0,0.0,0.0,0.0,0.0,0.0,0.0,0.0,0.0,0.0,0.0,0.0,0.0,0.0,0.0,0.0,0.0,0.0,0.0,0.0,0.0,0.0,0.0,0.0,0.0,0.0,0.0,0.0,0.0,0.0,0.0,0.0,0.0,0.0,0.0,0.0,0.0,0.0,0.0,0.0,0.0,0.0,0.0,0.0,0.0,0.0,0.0,0.0,0.0,0.0,0.0,0.0,0.0,0.0,0.0,0.0,0.0,0.0,0.0,0.0,0.0,0.0,0.0,0.0,0.0,0.0,0.0,0.0,0.0,0.0,0.0,0.0,0.0,0.0,0.0,0.0,0.0,0.0,0.0,0.0,0.0,0.0,0.0,0.0,0.0,0.0,0.0,0.0,0.0,0.0,0.0,0.0,0.0,0.0,0.0,0.0,0.0,0.0,0.0,0.0,0.0,0.0,0.0,1.6993,1.7888,1.8388,1.8459,1.8205,1.7578,0.0,0.0,0.0,0.0,0.0,0.0,0.0,0.0,0.0,0.0,0.0,0.0,0.0,0.0,0.0,0.0,0.0,0.0,0.0,0.0,0.0,0.0,0.0,0.0,0.0,0.0,0.0,0.0,0.0,0.0,0.0,0.0,0.0,0.0,0.0,0.0,0.0,0.0,0.0,0.0,0.0,0.0,0.0,0.0,0.0,0.0,0.0,0.0,0.0,0.0,0.0,0.0,0.0,0.0,0.0,0.0,0.0,0.0,0.0,0.0,0.0,0.0,0.0,0.0,0.0,0.0,0.0,0.0,0.0,0.0,0.0,0.0,0.0,0.0,0.0,0.0,0.0,0.0,0.0,0.0,0.0,0.0,0.0,0.0,0.0,0.0,0.0,0.0,0.0,0.0,0.0,0.0,0.0,0.0,0.0,0.0,0.0,0.0,0.0,0.0,0.0,0.0,0.0,0.0,0.0,0.0,0.0,0.0,1.8044,1.9329,1.9427,1.946,1.9394,1.8788,1.8051,0.0,0.0,0.0,0.0,0.0,0.0,0.0,0.0,0.0,0.0,0.0,0.0,0.0,0.0,0.0,0.0,0.0,0.0,0.0,0.0,0.0,0.0,0.0,0.0,0.0,0.0,0.0,0.0,0.0,0.0,0.0,0.0,0.0,0.0,0.0,0.0,0.0,0.0,0.0,0.0,0.0,0.0,0.0,0.0,0.0,0.0,0.0,0.0,0.0,0.0,0.0,0.0,0.0,0.0,0.0,0.0,0.0,0.0,0.0,0.0,0.0,0.0,0.0,0.0,0.0,0.0,0.0,0.0,0.0,0.0,0.0,0.0,0.0,0.0,0.0,0.0,0.0,0.0,0.0,0.0,0.0,0.0,0.0,0.0,0.0,0.0,0.0,0.0,0.0,0.0,0.0,0.0,0.0,0.0,0.0,0.0,0.0,0.0,0.0,0.0,0.0,0.0,0.0,0.0,0.0,0.0,0.0,0.0,0.0,2.0914,2.0957,2.0986,2.0973,2.0817,1.9904,0.0,0.0,0.0,0.0,0.0,0.0,0.0,0.0,0.0,0.0,0.0,0.0,0.0,0.0,0.0,0.0,0.0,0.0,0.0,0.0,0.0,0.0,0.0,0.0,0.0,0.0,0.0,0.0,0.0,0.0,0.0,0.0,0.0,0.0,0.0,0.0,0.0,0.0,0.0,0.0,0.0,0.0,0.0,0.0,0.0,0.0,0.0,0.0,0.0,0.0,0.0,0.0,0.0,0.0,0.0,0.0,0.0,0.0,0.0,0.0,0.0,0.0,0.0,0.0,0.0,0.0,0.0,0.0,0.0,0.0,0.0,0.0,0.0,0.0,0.0,0.0,0.0,0.0,0.0,0.0,0.0,0.0,0.0,0.0,0.0,0.0,0.0,0.0,0.0,0.0,0.0,0.0,0.0,0.0,0.0,0.0,0.0,0.0,0.0,0.0,0.0,0.0,0.0,0.0,0.0,0.0,0.0,0.0,0.0,2.2975,2.2789,2.2654,2.2656,2.2169,2.1121,1.9491,0.0,0.0,0.0,0.0,0.0,0.0,0.0,0.0,0.0,0.0,0.0,0.0,0.0,0.0,0.0,0.0,0.0,0.0,0.0,0.0,0.0,0.0,0.0,0.0,0.0,0.0,0.0,0.0,0.0,0.0,0.0,0.0,0.0,0.0,0.0,0.0,0.0,0.0,0.0,0.0,0.0,0.0,0.0,0.0,0.0,0.0,0.0,0.0,0.0,0.0,0.0,0.0,0.0,0.0,0.0,0.0,0.0,0.0,0.0,0.0,0.0,0.0,0.0,0.0,0.0,0.0,0.0,0.0,0.0,0.0,0.0,0.0,0.0,0.0,0.0,0.0,0.0,0.0,0.0,0.0,0.0,0.0,0.0,0.0,0.0,0.0,0.0,0.0,0.0,0.0,0.0,0.0,0.0,0.0,0.0,0.0,0.0,0.0,0.0,0.0,0.0,0.0,0.0,0.0,0.0,0.0,0.0,0.0,2.543,2.4842,2.4456,2.4324,2.3016,2.1893,0.0,0.0,0.0,0.0,0.0,0.0,0.0,0.0,0.0,0.0,0.0,0.0,0.0,0.0,0.0,0.0,0.0,0.0,0.0,0.0,0.0,0.0,0.0,0.0,0.0,0.0,0.0,0.0,0.0,0.0,0.0,0.0,0.0,0.0,0.0,0.0,0.0,0.0,0.0,0.0,0.0,0.0,0.0,0.0,0.0,0.0,0.0,0.0,0.0,0.0,0.0,0.0,0.0,0.0,0.0,0.0,0.0,0.0,0.0,0.0,0.0,0.0,0.0,0.0,0.0,0.0,0.0,0.0,0.0,0.0,0.0,0.0,0.0,0.0,0.0,0.0,0.0,0.0,0.0,0.0,0.0,0.0,0.0,0.0,0.0,0.0,0.0,0.0,0.0,0.0,0.0,0.0,0.0,0.0,0.0,0.0,0.0,0.0,0.0,0.0,0.0,0.0,0.0,0.0,0.0,0.0,0.0,0.0,0.0,2.637,2.6826,2.6404,2.5162,2.4807,2.3731,0.0,0.0,0.0,0.0,0.0,0.0,0.0,0.0,0.0,0.0,0.0,0.0,0.0,0.0,0.0,0.0,0.0,0.0,0.0,0.0,0.0,0.0,0.0,0.0,0.0,0.0,0.0,0.0,0.0,0.0,0.0,0.0,0.0,0.0,0.0,0.0,0.0,0.0,0.0,0.0,0.0,0.0,0.0,0.0,0.0,0.0,0.0,0.0,0.0,0.0,0.0,0.0,0.0,0.0,0.0,0.0,0.0,0.0,0.0,0.0,0.0,0.0,0.0,0.0,0.0,0.0,0.0,0.0,0.0,0.0,0.0,0.0,0.0,0.0,0.0,0.0,0.0,0.0,0.0,0.0,0.0,0.0,0.0,0.0,0.0,0.0,0.0,0.0,0.0,0.0,0.0,0.0,0.0,0.0,0.0,0.0,0.0,0.0,0.0,0.0,0.0,0.0,0.0,0.0,0.0,0.0,0.0,0.0,2.6015,2.7267,2.8134,2.8083,2.7097,2.647,2.5065,0.0,0.0,0.0,0.0,0.0,0.0,0.0,0.0,0.0,0.0,0.0,0.0,0.0,0.0,0.0,0.0,0.0,0.0,0.0,0.0,0.0,0.0,0.0,0.0,0.0,0.0,0.0,0.0,0.0,0.0,0.0,0.0,0.0,0.0,0.0,0.0,0.0,0.0,0.0,0.0,0.0,0.0,0.0,0.0,0.0,0.0,0.0,0.0,0.0,0.0,0.0,0.0,0.0,0.0,0.0,0.0,0.0,0.0,0.0,0.0,0.0,0.0,0.0,0.0,0.0,0.0,0.0,0.0,0.0,0.0,0.0,0.0,0.0,0.0,0.0,0.0,0.0,0.0,0.0,0.0,0.0,0.0,0.0,0.0,0.0,0.0,0.0,0.0,0.0,0.0,0.0,0.0,0.0,0.0,0.0,0.0,0.0,0.0,0.0,0.0,0.0,0.0,0.0,0.0,0.0,0.0,0.0,0.0,2.7284,2.8271,2.904,2.9488,2.9506,2.7979,2.6099,0.0,0.0,0.0,0.0,0.0,0.0,0.0,0.0,0.0,0.0,0.0,0.0,0.0,0.0,0.0,0.0,0.0,0.0,0.0,0.0,0.0,0.0,0.0,0.0,0.0,0.0,0.0,0.0,0.0,0.0,0.0,0.0,0.0,0.0,0.0,0.0,0.0,0.0,0.0,0.0,0.0,0.0,0.0,0.0,0.0,0.0,0.0,0.0,0.0,0.0,0.0,0.0,0.0,0.0,0.0,0.0,0.0,0.0,0.0,0.0,0.0,0.0,0.0,0.0,0.0,0.0,0.0,0.0,0.0,0.0,0.0,0.0,0.0,0.0,0.0,0.0,0.0,0.0,0.0,0.0,0.0,0.0,0.0,0.0,0.0,0.0,0.0,0.0,0.0,0.0,0.0,0.0,0.0,0.0,0.0,0.0,0.0,0.0,0.0,0.0,0.0,0.0,0.0,0.0,0.0,0.0,0.0,0.0,2.8014,3.0057,3.0333,3.0455,3.0577,2.8937,2.7255,0.0,0.0,0.0,0.0,0.0,0.0,0.0,0.0,0.0,0.0,0.0,0.0,0.0,0.0,0.0,0.0,0.0,0.0,0.0,0.0,0.0,0.0,0.0,0.0,0.0,0.0,0.0,0.0,0.0,0.0,0.0,0.0,0.0,0.0,0.0,0.0,0.0,0.0,0.0,0.0,0.0,0.0,0.0,0.0,0.0,0.0,0.0,0.0,2.023,0.0,0.0,0.0,0.0,0.0,0.0,0.0,0.0,0.0,0.0,0.0,0.0,0.0,0.0,0.0,0.0,0.0,0.0,0.0,0.0,0.0,0.0,0.0,0.0,0.0,0.0,0.0,0.0,0.0,0.0,0.0,0.0,0.0,0.0,0.0,0.0,0.0,0.0,0.0,0.0,0.0,0.0,0.0,0.0,0.0,0.0,0.0,0.0,0.0,0.0,0.0,0.0,0.0,0.0,0.0,0.0,0.0,0.0,0.0,2.9075,3.0681,3.1149,3.1481,3.155,3.0018,2.8439,0.0,0.0,0.0,0.0,0.0,0.0,0.0,0.0,0.0,0.0,0.0,0.0,0.0,0.0,0.0,0.0,0.0,0.0,0.0,0.0,0.0,0.0,0.0,0.0,0.0,0.0,0.0,0.0,0.0,0.0,0.0,0.0,0.0,0.0,0.0,0.0,0.0,0.0,0.0,0.0,0.0,0.0,0.0,0.0,0.0,0.0,0.0,0.0,0.0,0.0,0.0,0.0,0.0,0.0,0.0,0.0,0.0,0.0,0.0,0.0,0.0,0.0,0.0,0.0,0.0,0.0,0.0,0.0,0.0,0.0,0.0,0.0,0.0,0.0,0.0,0.0,0.0,0.0,0.0,0.0,0.0,0.0,0.0,0.0,0.0,0.0,0.0,0.0,0.0,0.0,0.0,0.0,0.0,0.0,0.0,0.0,0.0,0.0,0.0,0.0,0.0,0.0,0.0,0.0,0.0,0.0,0.0,2.9225,3.049,3.1237,3.2144,3.2582,3.2581,3.1308,2.9748,2.7971,0.0,0.0,0.0,0.0,0.0,0.0,0.0,0.0,0.0,0.0,0.0,0.0,0.0,0.0,0.0,0.0,0.0,0.0,0.0,0.0,0.0,0.0,0.0,0.0,0.0,0.0,0.0,0.0,0.0,0.0,0.0,0.0,0.0,0.0,0.0,0.0,0.0,0.0,1.6874,1.9515,0.0,0.0,0.0,0.0,0.0,0.0,0.0,0.0,2.5446,0.0,0.0,0.0,0.0,0.0,0.0,0.0,0.0,0.0,0.0,0.0,0.0,0.0,0.0,0.0,0.0,0.0,0.0,0.0,0.0,0.0,0.0,0.0,0.0,0.0,0.0,0.0,0.0,0.0,0.0,0.0,0.0,0.0,0.0,0.0,0.0,0.0,0.0,0.0,0.0,0.0,0.0,0.0,0.0,0.0,0.0,0.0,0.0,0.0,0.0,0.0,0.0,0.0,0.0,0.0,0.0,2.8453,3.0762,3.2353,3.3196,3.397,3.4129,3.3563,3.2814,3.159,2.9801,0.0,0.0,0.0,0.0,0.0,0.0,0.0,0.0,0.0,0.0,0.0,0.0,0.0,0.0,0.0,0.0,0.0,0.0,0.0,0.0,0.0,0.0,0.0,0.0,0.0,0.0,0.0,0.0,0.0,0.0,0.0,0.0,0.0,0.0,0.0,0.0,0.0,0.0,0.0,2.2161,2.3909,0.0,0.0,0.0,0.0,0.0,0.0,0.0,0.0,2.7666,0.0,0.0,0.0,0.0,0.0,0.0,0.0,0.0,0.0,0.0,0.0,0.0,0.0,0.0,0.0,0.0,0.0,0.0,0.0,0.0,0.0,0.0,0.0,0.0,0.0,0.0,0.0,0.0,0.0,0.0,0.0,0.0,0.0,0.0,0.0,0.0,0.0,0.0,0.0,0.0,0.0,0.0,0.0,0.0,0.0,0.0,0.0,0.0,0.0,0.0,0.0,0.0,0.0,0.0,0.0,2.9954,3.1698,3.3123,3.4341,3.4836,3.471,3.3946,3.3344,3.2215,0.0,0.0,0.0,0.0,0.0,0.0,0.0,0.0,0.0,0.0,0.0,0.0,0.0,0.0,0.0,0.0,0.0,0.0,0.0,0.0,0.0,0.0,0.0,0.0,0.0,0.0,0.0,0.0,0.0,0.0,0.0,0.0,0.0,0.0,0.0,0.0,0.0,0.0,0.0,0.0,2.4039,2.5782,2.6674,0.0,0.0,0.0,0.0,0.0,0.0,2.9553,2.9172,0.0,0.0,0.0,0.0,0.0,0.0,0.0,0.0,0.0,0.0,0.0,0.0,0.0,0.0,0.0,0.0,0.0,0.0,0.0,0.0,0.0,0.0,0.0,0.0,0.0,0.0,0.0,0.0,0.0,0.0,0.0,0.0,0.0,0.0,0.0,0.0,0.0,0.0,0.0,0.0,0.0,0.0,0.0,0.0,0.0,0.0,0.0,0.0,0.0,0.0,0.0,0.0,0.0,0.0,0.0,3.1432,3.2657,3.393,3.5261,3.565,3.5432,3.4646,3.4038,3.2859,0.0,0.0,0.0,0.0,0.0,0.0,0.0,0.0,0.0,0.0,0.0,0.0,0.0,0.0,0.0,0.0,0.0,0.0,0.0,0.0,0.0,0.0,0.0,0.0,0.0,0.0,0.0,0.0,0.0,0.0,0.0,0.0,0.0,0.0,0.0,0.0,0.0,0.0,0.0,0.0,0.0,2.7436,2.8425,2.9299,0.0,0.0,0.0,0.0,3.1425,3.1196,0.0,0.0,0.0,0.0,0.0,0.0,0.0,0.0,0.0,0.0,0.0,0.0,0.0,0.0,0.0,0.0,0.0,0.0,0.0,0.0,0.0,0.0,0.0,0.0,0.0,0.0,0.0,0.0,0.0,0.0,0.0,0.0,0.0,0.0,0.0,0.0,0.0,0.0,0.0,0.0,0.0,0.0,0.0,0.0,0.0,0.0,0.0,0.0,0.0,0.0,0.0,0.0,0.0,0.0,0.0,0.0,3.2509,3.424,3.5538,3.6415,3.72,3.7199,3.6427,3.5717,3.4222,0.0,0.0,0.0,0.0,0.0,0.0,0.0,0.0,0.0,0.0,0.0,0.0,0.0,0.0,0.0,0.0,0.0,0.0,0.0,0.0,0.0,0.0,0.0,0.0,0.0,0.0,0.0,0.0,0.0,0.0,0.0,0.0,0.0,0.0,0.0,0.0,0.0,0.0,0.0,0.0,0.0,2.9228,3.0335,3.1202,3.2002,0.0,0.0,3.3277,3.3883,3.3208,0.0,0.0,0.0,0.0,0.0,0.0,0.0,0.0,0.0,0.0,0.0,0.0,0.0,0.0,0.0,0.0,0.0,0.0,0.0,0.0,0.0,0.0,0.0,0.0,0.0,0.0,0.0,0.0,0.0,0.0,0.0,0.0,0.0,0.0,0.0,0.0,0.0,0.0,0.0,0.0,0.0,0.0,0.0,0.0,0.0,0.0,0.0,0.0,0.0,0.0,0.0,0.0,0.0,0.0,0.0,3.0764,3.3494,3.5629,3.7183,3.7972,3.842,3.8239,3.7428,3.6305,3.4816,0.0,0.0,0.0,0.0,0.0,0.0,0.0,0.0,0.0,0.0,0.0,0.0,0.0,0.0,0.0,0.0,0.0,0.0,0.0,0.0,0.0,0.0,0.0,0.0,0.0,0.0,0.0,0.0,0.0,0.0,0.0,0.0,0.0,0.0,0.0,0.0,0.0,0.0,0.0,0.0,0.0,0.0,3.2003,3.2634,0.0,0.0,0.0,3.4479,3.5194,0.0,0.0,0.0,0.0,0.0,0.0,0.0,0.0,0.0,0.0,0.0,0.0,0.0,0.0,0.0,0.0,0.0,0.0,0.0,0.0,0.0,0.0,0.0,0.0,0.0,0.0,0.0,0.0,0.0,0.0,0.0,0.0,0.0,0.0,0.0,0.0,0.0,0.0,0.0,0.0,0.0,0.0,0.0,0.0,0.0,0.0,0.0,0.0,0.0,0.0,0.0,0.0,0.0,0.0,0.0,0.0,0.0,3.4715,3.6789,3.8367,3.9373,3.9499,3.9228,3.8614,3.7181,0.0,0.0,0.0,0.0,0.0,0.0,0.0,0.0,0.0,0.0,0.0,0.0,0.0,0.0,0.0,0.0,0.0,0.0,0.0,0.0,0.0,0.0,0.0,0.0,0.0,0.0,0.0,1.7391,0.0,0.0,0.0,0.0,0.0,0.0,0.0,0.0,0.0,0.0,0.0,0.0,0.0,0.0,3.0994,3.3213,3.3917,3.4499,0.0,0.0,3.57,3.6456,3.5583,3.4574,0.0,0.0,0.0,0.0,0.0,0.0,0.0,0.0,0.0,0.0,0.0,0.0,0.0,0.0,0.0,0.0,0.0,0.0,0.0,0.0,0.0,0.0,0.0,0.0,0.0,0.0,0.0,0.0,0.0,0.0,0.0,0.0,0.0,0.0,0.0,0.0,0.0,0.0,0.0,0.0,0.0,0.0,0.0,0.0,0.0,0.0,0.0,0.0,0.0,0.0,0.0,0.0,0.0,0.0,3.255,3.6373,3.7482,3.876,4.0257,4.0366,4.0384,4.0311,3.8844,3.7301,0.0,0.0,0.0,0.0,0.0,0.0,0.0,0.0,0.0,0.0,0.0,0.0,0.0,0.0,0.0,0.0,0.0,0.0,0.0,0.0,0.0,0.0,0.0,0.0,0.0,0.0,0.0,0.0,0.0,0.0,0.0,0.0,0.0,0.0,0.0,0.0,0.0,0.0,0.0,0.0,0.0,3.2529,3.3634,3.512,3.6344,0.0,3.7177,3.7461,3.8047,3.6767,3.565,3.5535,0.0,0.0,0.0,0.0,0.0,0.0,0.0,0.0,0.0,0.0,0.0,0.0,0.0,0.0,0.0,0.0,0.0,0.0,0.0,0.0,0.0,0.0,0.0,0.0,0.0,0.0,0.0,0.0,0.0,0.0,0.0,0.0,0.0,0.0,0.0,0.0,0.0,0.0,0.0,0.0,0.0,0.0,0.0,0.0,0.0,0.0,0.0,0.0,0.0,0.0,0.0,0.0,0.0,3.4397,3.7462,3.8814,4.0059,4.1143,4.1234,4.1234,4.1252,3.9801,3.8474,0.0,0.0,0.0,0.0,0.0,0.0,0.0,0.0,0.0,0.0,0.0,0.0,0.0,0.0,0.0,0.0,0.0,0.0,0.0,0.0,0.0,0.0,0.0,0.0,0.0,0.0,0.0,0.0,2.6161,2.6857,2.6795,0.0,0.0,0.0,0.0,0.0,0.0,0.0,0.0,0.0,0.0,3.3248,3.5705,3.6629,0.0,0.0,3.8869,3.8937,3.908,3.8541,3.7875,3.7218,3.5779,0.0,0.0,0.0,0.0,0.0,0.0,0.0,0.0,0.0,0.0,0.0,0.0,0.0,0.0,0.0,0.0,0.0,0.0,0.0,0.0,0.0,0.0,0.0,0.0,0.0,0.0,0.0,0.0,0.0,0.0,0.0,0.0,0.0,0.0,0.0,0.0,0.0,0.0,0.0,0.0,0.0,0.0,0.0,0.0,0.0,0.0,0.0,0.0,0.0,0.0,0.0,0.0,3.5948,3.8413,4.0239,4.1559,4.2411,4.2665,4.2792,4.2737,4.1361,4.0231,0.0,0.0,0.0,0.0,0.0,0.0,0.0,0.0,0.0,0.0,0.0,0.0,0.0,0.0,0.0,0.0,0.0,0.0,0.0,0.0,0.0,0.0,0.0,0.0,0.0,0.0,0.0,0.0,2.8893,2.9141,2.8006,0.0,0.0,0.0,0.0,0.0,0.0,0.0,0.0,0.0,0.0,3.4871,3.752,3.8483,3.932,4.0467,4.0606,4.0486,4.0364,3.9893,3.9276,3.8502,0.0,0.0,0.0,0.0,0.0,0.0,0.0,0.0,0.0,0.0,0.0,0.0,0.0,0.0,0.0,0.0,0.0,0.0,0.0,0.0,0.0,0.0,0.0,0.0,0.0,0.0,0.0,2.4008,0.0,0.0,2.1696,0.0,0.0,0.0,0.0,0.0,0.0,0.0,0.0,0.0,0.0,0.0,0.0,0.0,0.0,0.0,0.0,0.0,0.0,0.0,0.0,0.0,0.0,3.6931,3.9369,4.1633,4.3208,4.4005,4.482,4.5164,4.511,4.3774,4.2668,4.1866,0.0,0.0,0.0,0.0,0.0,0.0,0.0,0.0,0.0,0.0,0.0,0.0,0.0,0.0,0.0,0.0,0.0,0.0,0.0,0.0,0.0,0.0,0.0,0.0,0.0,0.0,3.029,3.1067,3.0818,0.0,0.0,0.0,0.0,0.0,0.0,0.0,0.0,0.0,3.4535,3.6326,3.7715,3.8699,4.0735,4.2126,4.2234,4.2251,4.2169,4.1959,4.066,3.9534,0.0,0.0,0.0,0.0,0.0,0.0,0.0,0.0,0.0,0.0,0.0,0.0,0.0,0.0,0.0,0.0,0.0,0.0,0.0,0.0,0.0,0.0,0.0,0.0,0.0,0.0,0.0,2.7341,2.684,0.0,0.0,0.0,0.0,0.0,0.0,0.0,0.0,0.0,0.0,0.0,3.5006,3.5955,0.0,0.0,0.0,0.0,0.0,0.0,0.0,0.0,0.0,0.0,0.0,0.0,3.8808,4.1596,4.2484,4.3534,4.4838,4.5164,4.5291,4.5291,4.494,4.3962,4.2221,0.0,0.0,0.0,0.0,0.0,0.0,0.0,0.0,0.0,0.0,0.0,0.0,0.0,0.0,0.0,0.0,0.0,0.0,0.0,0.0,0.0,0.0,0.0,0.0,0.0,3.1063,0.0,0.0,0.0,0.0,0.0,0.0,0.0,0.0,0.0,0.0,0.0,3.4764,3.7721,3.8652,3.9726,4.164,4.259,4.3286,0.0,0.0,0.0,0.0,0.0,0.0,0.0,0.0,0.0,0.0,0.0,0.0,0.0,0.0,3.7266,3.5098,3.4696,3.4696,3.4679,0.0,0.0,0.0,0.0,0.0,0.0,0.0,0.0,0.0,0.0,0.0,0.0,0.0,0.0,3.0914,0.0,3.0307,0.0,0.0,0.0,0.0,0.0,0.0,0.0,0.0,3.7578,3.8178,3.8432,3.9406,3.9483,0.0,3.8321,3.6559,0.0,0.0,0.0,0.0,0.0,0.0,0.0,0.0,4.0564,4.2828,4.4005,4.5073,4.6106,4.6685,4.6957,4.6957,4.6615,4.5387,4.3222,4.0579,3.8285,0.0,0.0,0.0,0.0,0.0,0.0,0.0,0.0,0.0,0.0,0.0,0.0,0.0,0.0,0.0,0.0,0.0,0.0,0.0,0.0,0.0,0.0,0.0,3.3682,0.0,0.0,0.0,0.0,0.0,0.0,0.0,0.0,0.0,3.3864,3.542,3.76,4.0192,4.0842,4.1866,4.4036,0.0,0.0,0.0,0.0,0.0,0.0,0.0,4.4871,4.4711,4.426,4.3863,4.3833,4.3366,4.3016,4.3034,0.0,0.0,3.8677,3.8079,3.8079,3.8079,3.8096,3.8452,3.9475,3.9728,4.0252,0.0,0.0,0.0,0.0,0.0,0.0,0.0,0.0,3.4757,3.4741,0.0,3.4652,0.0,0.0,0.0,0.0,3.6845,3.6988,0.0,0.0,4.0734,4.1092,4.1694,4.1757,4.1607,4.1199,4.0501,4.0372,4.0595,3.766,0.0,0.0,0.0,0.0,0.0,0.0,4.2194,4.3172,4.6087,4.7717,4.7808,4.9257,5.0053,5.0025,4.8689,4.6976,4.4875,4.3222,4.1277,3.8964,3.6538,0.0,0.0,0.0,0.0,0.0,0.0,0.0,0.0,0.0,0.0,0.0,0.0,0.0,0.0,0.0,0.0,0.0,0.0,0.0,0.0,3.4516,0.0,0.0,0.0,0.0,0.0,0.0,0.0,0.0,0.0,0.0,3.6805,3.8528,4.0504,4.2068,0.0,0.0,0.0,0.0,4.729,4.7897,4.8039,4.7908,4.7664,4.698,4.6389,4.6291,0.0,0.0,4.6259,4.6259,4.6259,4.6277,4.6277,4.5334,4.2259,4.1568,4.1429,4.1475,4.1475,4.1998,4.3293,4.3602,4.4091,4.0783,0.0,0.0,0.0,0.0,3.8221,3.8286,3.829,3.8313,3.8294,3.8313,3.8244,0.0,0.0,0.0,0.0,0.0,0.0,4.1374,4.2645,4.3717,4.4308,4.4483,4.4898,4.4999,4.4816,4.4373,4.418,4.4144,4.3195,4.1923,4.0401,0.0,0.0,0.0,0.0,4.4367,4.625,4.7246,4.8261,4.9383,4.9836,5.0115,5.0185,4.8766,4.774,4.7181,4.515,4.3442,4.2139,4.0345,0.0,0.0,0.0,0.0,0.0,0.0,0.0,0.0,0.0,0.0,0.0,0.0,0.0,0.0,0.0,0.0,0.0,0.0,0.0,3.6218,3.7612,3.8321,0.0,0.0,0.0,0.0,0.0,0.0,0.0,0.0,0.0,4.2257,4.2858,4.3815,0.0,0.0,4.7194,4.8175,4.8514,4.8681,4.893,4.8737,0.0,4.854,4.8146,4.7854,4.7871,4.7854,4.7871,4.7924,4.8345,4.8696,4.8696,4.9153,4.9223,4.8311,4.6262,4.4949,4.4808,4.4791,4.5124,4.6052,4.6315,4.677,4.4757,4.2772,4.2044,4.176,4.176,4.1784,4.1831,4.192,4.1901,4.192,4.1878,4.1808,4.176,4.176,4.1712,0.0,0.0,0.0,4.4183,4.496,4.6158,4.6674,4.6679,4.7279,4.7508,4.7318,4.7093,4.7021,4.7104,4.7004,4.6339,4.5037,0.0,0.0,4.5055,4.5689,4.6721,4.8134,4.8822,4.9601,5.0524,5.0868,5.0913,5.0682,4.9859,4.9346,4.9157,4.7184,4.5755,4.4947,4.3094,4.1079,0.0,0.0,0.0,0.0,0.0,0.0,0.0,0.0,0.0,0.0,0.0,2.6801,2.9789,0.0,0.0,0.0,3.5204,3.7142,3.9387,4.0311,0.0,0.0,0.0,0.0,0.0,0.0,0.0,4.1983,4.3176,4.4492,4.6014,4.6659,4.7087,4.7426,4.8139,4.8907,4.9674,0.0,5.0321,5.0592,5.0776,5.0801,5.0698,5.0559,5.04,5.0382,5.0364,5.0382,5.0434,5.0803,5.1066,5.1136,5.147,5.1786,5.1803,5.0224,4.8749,4.8205,4.8064,4.8328,4.9065,4.9223,4.9609,4.8,4.7846,4.6196,4.5374,4.5133,4.5181,4.5228,4.5316,4.5297,4.5297,4.5297,4.5181,4.5133,4.5109,4.506,0.0,4.6218,4.6365,4.6792,4.755,4.8277,4.8566,4.8532,4.9108,4.9299,4.9111,4.8899,4.9028,4.9472,4.9328,4.9562,5.0061,4.7953,4.6866,4.6884,4.8261,4.9039,4.913,5.0542,5.1321,5.1393,5.2118,5.2164,5.151,5.1552,5.128,5.0675,4.9255,4.8104,4.7205,4.5076,4.3112,4.1442,0.0,0.0,0.0,0.0,0.0,0.0,0.0,0.0,0.0,0.0,0.0,0.0,0.0,0.0,3.6363,3.9061,0.0,4.1813,4.2629,0.0,0.0,0.0,4.3188,4.3201,4.3219,4.374,4.5155,0.0,0.0,4.8514,4.9859,5.0174,4.8817,4.9192,4.9888,5.0673,5.144,5.2085,5.2624,5.33,5.3637,5.3227,5.317,5.3024,5.293,5.3173,5.2997,5.2997,5.3138,5.3225,5.3155,5.3313,5.3401,5.3436,5.3366,5.3032,5.1716,5.1207,5.1224,5.1786,5.1909,5.2137,5.1476,5.1452,5.099,4.9321,4.6963,4.6987,4.6987,4.701,4.6991,4.701,4.701,4.6987,4.6963,4.6963,4.692,4.7365,4.8169,4.8795,4.9462,5.0118,5.0969,5.1296,5.1162,5.119,5.108,5.0873,5.0639,5.0485,5.0472,5.0209,5.015,5.0221,5.017,4.9854,4.9275,4.9619,5.0108,5.0723,5.1104,5.1593,5.219,5.2389,5.2389,5.2254,5.171,5.1424,5.1353,5.0547,4.9438,4.8104,4.7462,4.6159,4.3956,4.2106,0.0,0.0,0.0,0.0,0.0,0.0,0.0,0.0,0.0,3.4679,3.7449,0.0,3.9894,0.0,4.2448,4.3335,4.3516,4.4258,0.0,0.0,4.5653,4.5888,4.6463,4.6535,4.6915,4.785,4.8576,4.9523,5.1012,5.1974,5.2505,5.2582,5.2261,5.2315,5.3064,5.3314,5.3476,5.3672,5.3762,5.3798,5.3779,5.3527,5.345,5.3229,5.3208,5.3173,5.319,5.3682,5.4033,5.4086,5.4559,5.5104,5.5648,5.5788,5.5911,5.5911,5.4314,5.2681,5.2857,5.2927,5.3155,5.2736,5.2736,5.2686,5.1618,4.9921,4.9877,4.9877,4.9902,4.9902,4.9902,4.9921,4.9896,4.9872,4.9847,4.9828,5.007,5.0513,5.0943,5.1299,5.1689,5.2464,5.2791,5.2705,5.2799,5.2797,5.2638,5.2344,5.2257,5.2426,5.2151,5.2134,5.2409,5.2725,5.2679,5.2226,5.152,5.1393,5.1828,5.1828,5.2045,5.248,5.2498,5.2498,5.248,5.2146,5.1981,5.2025,5.1451,5.0771,4.9915,4.9221,4.8288,4.6929,4.5333,4.3866,0.0,0.0,0.0,0.0,0.0,0.0,0.0,0.0,0.0,0.0,0.0,4.2774,4.4367,4.5562,4.625,4.6232,4.6957,4.7609,4.8061,4.8098,4.8279,4.8713,4.9094,4.9637,5.0416,5.1122,5.1968,5.3098,5.3458,5.3862,5.4543,5.4223,5.3938,5.4028,5.4295,5.4545,5.4545,5.4795,5.5043,5.5291,5.5497,5.5557,5.5517,5.546,5.546,5.546,5.5794,5.6094,5.6129,5.6464,5.681,5.7173,5.7243,5.7359,5.7421,5.6455,5.5367,5.5244,5.5244,5.5402,5.3143,5.3124,5.3124,5.3129,5.3129,5.3054,5.2965,5.2785,5.2785,5.2785,5.2805,5.2736,5.266,5.2627,5.2627,5.2684,5.276,5.2718,5.2721,5.2853,5.3545,5.3823,5.3748,5.4277,5.4497,5.4408,5.3994,5.4105,5.4644,5.4334,5.4446,5.4989,5.4919,5.4907,5.4852,5.3494,5.2806,5.2806,5.2806,5.2806,5.2806,5.2806,5.2752,5.2643,5.2681,5.2699,5.259,5.2174,5.1859,5.1773,5.0597,4.9848,4.9719,4.8269,4.7113,0.0,4.4929,0.0,0.0,0.0,0.0,0.0,0.0,0.0,0.0,4.3896,4.5454,4.6848,4.8242,4.9075,4.9057,4.9782,5.0289,5.0379,5.0488,5.0578,5.0705,5.1321,5.2027,5.2715,5.3327,5.3984,5.4657,5.4637,5.4771,5.5418,5.558,5.533,5.4723,5.5045,5.5401,5.5473,5.6186,5.6827,5.7267,5.7805,5.8137,5.8225,5.8025,5.8314,5.8078,5.8131,5.8202,5.8184,5.8113,5.8178,5.8139,5.8157,5.8149,5.8158,5.807,5.7877,5.7632,5.7526,5.7807,5.4919,5.49,5.4925,5.4906,5.4906,5.488,5.4078,5.2785,5.2785,5.2785,5.2785,5.2805,5.2761,5.278,5.2761,5.3112,5.3727,5.3666,5.3954,5.4563,5.5329,5.5605,5.5484,5.6037,5.6273,5.6127,5.568,5.5531,5.5636,5.5202,5.5048,5.5148,5.4967,5.4907,5.4888,0.0,0.0,0.0,5.4454,5.4454,5.4454,5.4436,5.4146,5.3512,5.3523,0.0,5.2627,5.2615,5.2339,5.1828,5.1642,0.0,0.0,0.0,0.0,0.0,0.0,0.0,0.0,0.0,0.0,0.0,4.7197,4.6894,4.5761,4.7645,4.9075,4.9401,4.9691,4.9854,4.9872,5.0578,5.1321,5.1973,5.2625,5.3259,5.3911,5.411,5.4291,5.4436,5.4581,5.4863,5.5487,5.5545,5.5749,5.6366,5.694,5.7153,5.6882,5.6472,5.6436,5.7025,5.7739,5.8217,5.8281,5.8419,5.8591,5.8314,5.8314,5.8367,5.8403,5.8385,5.8349,5.8385,5.8314,5.852,5.8923,5.8968,5.9135,5.9591,5.9668,5.9282,5.8088,5.7825,5.7807,5.6645,5.6645,5.6645,5.6645,0.0,5.6645,5.6148,5.525,5.4428,5.4085,5.4065,5.4085,5.4314,5.4677,5.4677,5.511,5.5923,5.5843,5.5969,5.6311,5.666,5.6715,5.6503,5.6783,5.6778,5.6594,5.6206,5.6164,5.6448,5.6071,5.6043,5.6379,5.6225,5.6079,5.6029,5.6047,5.5667,5.4907,5.4907,5.4907,5.4907,5.4907,5.4707,5.4309,5.4291,0.0,0.0,0.0,0.0,0.0,0.0,0.0,0.0,0.0,0.0,5.1922,5.1169,5.0505,5.0061,4.9614,4.946,4.9677,5.0693,5.0442,4.8424,5.0126,5.1267,5.1285,5.1991,5.2462,5.248,5.2842,5.3222,5.3657,5.4055,5.4472,5.4852,5.5233,5.5432,5.5486,5.5794,5.6269,5.6978,5.7036,5.7257,5.7837,5.8214,5.8373,5.8226,5.7884,5.7721,5.8113,5.8809,5.9251,5.9229,5.9549,5.9763,5.9722,5.9663,5.9681,5.9663,5.9663,5.9681,5.9663,5.9663,5.987,6.044,6.053,6.0652,6.1231,6.1295,6.1037,6.0142,5.9475,5.8931,5.7878,5.7905,5.7886,5.7886,5.7886,5.7886,5.7886,5.781,0.0,0.0,0.0,5.5842,5.6205,5.6797,5.6836,5.7218,5.7886,5.7824,5.7749,5.7625,5.7688,5.7592,5.7347,5.7435,5.73,5.7061,5.6713,5.6802,5.7322,5.6987,5.7105,5.7546,5.7437,5.7411,5.7387,5.7406,5.6862,5.5794,5.545,5.5305,5.5323,5.5305,5.5233,5.5106,5.5106,5.5051,5.4907,5.5091,5.5148,5.5212,5.5459,5.5574,5.5592,5.5592,5.528,5.4638,5.3995,5.3274,5.2486,5.1767,5.159,5.1982,5.3179,5.3078,5.1086,5.2154,5.2915,5.2933,5.4128,5.4888,5.4907,5.5033,5.5106,5.5106,5.5214,5.5323,5.5359,5.5975,5.6464,5.65,5.7134,5.7858,5.8474,5.8479,5.8645,5.924,5.9275,5.9325,5.934,5.9081,5.8881,5.897,5.9612,6.0112,6.0219,6.0772,6.1254,6.1254,6.1379,6.1504,6.1504,6.1504,6.1504,6.1486,6.1504,6.1711,6.2044,6.2044,6.2139,6.2629,6.2556,6.2371,6.2283,6.1323,6.0463,5.7908,5.7898,5.7905,5.7886,5.7886,5.7886,5.7886,5.7867,5.7657,5.7542,5.7542,5.7542,5.7619,5.7714,5.7714,5.7791,5.7905,5.7824,5.7749,5.7644,5.8296,5.8515,5.832,5.8867,5.9027,5.8802,5.8468,5.8312,5.8208,5.7923,5.7747,5.7601,5.7437,5.7701,5.8184,5.8239,5.8474,5.8909,5.7569,5.688,5.688,5.688,5.6536,5.5866,5.5866,5.554,5.4943,5.5032,5.5101,5.5194,5.535,5.5503,5.5592,5.5629,5.5537,5.5427,5.5299,5.5145,5.4901,5.4683,5.4519,5.4429,5.4599,5.4581,5.4291,5.4436,5.4562,5.4581,5.4834,5.4907,5.4943,5.5504,5.5903,5.5921,5.6464,5.6862,5.688,5.7532,5.8021,5.8021,5.8782,5.9235,5.9379,5.9434,5.9383,5.9564,6.0034,6.0482,6.0723,6.0224,5.9791,5.9844,6.0415,6.0861,6.1093,6.1593,6.2057,6.2128,6.261,6.2877,6.286,6.286,6.2877,6.3002,6.2913,6.2977,6.3084,6.2878,6.2793,6.2893,6.275,6.2529,6.2363,6.1999,6.1789,5.9253,5.9281,5.9262,5.9243,5.9243,5.9243,5.9243,5.9262,5.9243,5.8727,5.7925,5.7886,5.8154,5.8536,5.8555,5.8822,5.9243,5.9215,5.9159,5.9092,5.9345,5.9412,5.9271,5.948,5.9438,5.9234,5.8961,5.8916,5.9054,5.8868,5.8812,5.8859,5.8696,5.8743,5.9035,5.9054,5.9235,5.9579,5.8872,5.851,5.851,5.851,5.8329,5.7949,5.7949,5.7804,5.7478,5.7107,5.6952,5.7067,5.682,5.674,5.6786,5.685,5.6895,5.6877,5.6428,5.6099,5.5944,5.5738,5.5613,5.5522,5.6301,5.6808,5.6808,5.5993,5.5486,5.5522,5.5866,5.6156,5.6156,5.6844,5.7297,5.7297,5.8003,5.8492,5.8528,5.88,5.9054,5.9072,5.9361,5.9778,6.0212,6.0267,6.0413,6.072,6.1081,6.14,6.183,6.1569,6.12,6.1218,6.1521,6.1896,6.2253,6.2628,6.286,6.2895,6.3145,6.3359,6.3377,6.3395,6.3395,6.3377,6.3395,6.3591,6.3823,6.374,6.3707,6.4102,6.3872,6.3585,6.3431,6.3154,6.2874,6.0389,6.0389,6.0389,6.0389,6.0389,6.0389,6.0389,6.0408,6.0561,5.9931,5.8822,5.8555,5.8803,5.9376,5.9396,5.9759,6.0332,6.0389,6.0361,6.0294,6.0148,6.014,6.0202,6.0002,5.9903,5.9872,5.9622,5.9696,5.998,5.9852,5.9824,5.9935,5.9735,5.9705,5.9887,5.9887,5.9959,6.014,6.0158,5.9977,5.9615,5.9615,5.9615,5.9615,5.9597,5.9615,5.9579,5.9103,5.8827,5.8842,5.8495,5.8293,5.8341,5.8435,5.85,5.8474,5.7821,5.7313,5.7152,5.6975,5.6808,5.6826,5.7949,5.8673,5.8565,5.755,5.679,5.688,5.7406,5.775,5.7804,5.8257,5.8673,5.8728,5.9216,5.9506,5.9597,5.976,5.9887,5.9887,6.0031,6.0448,6.0901,6.1082,6.139,6.1987,6.2199,6.2386,6.2695,6.2719,6.2653,6.2735,6.2663,6.2699,6.3306,6.3573,6.3645,6.368,6.3895,6.4055,6.4055,6.3984,6.3948,6.4055,6.4019,6.4287,6.4688,6.4621,6.4658,6.4933,6.4735,6.4463,6.406,6.3736,6.3449,6.0427,6.0389,6.0446,6.0389,6.0446,6.0446,6.0465,6.0542,6.1153,6.1421,6.1115,6.0485,6.0198,6.0274,6.0313,6.0389,6.0465,6.0389,6.0418,6.037,6.0167,6.0475,6.1102,6.0955,6.116,6.1507,6.1353,6.111,6.1038,6.0792,6.0441,6.004,5.9753,6.0013,6.0611,6.0701,6.1064,6.177,6.1806,6.1082,5.9705,5.9615,5.9615,5.9615,5.9633,5.9615,5.9705,5.9524,5.954,5.9696,5.9605,5.9702,5.9901,5.9951,6.0018,6.0144,5.9908,5.9761,5.9492,5.9323,5.918,5.9289,5.9343,5.9506,5.9488,5.9361,5.9271,5.9253,5.9307,5.9271,5.9379,5.9434,5.9488,5.9506,5.9669,5.9615,5.9796,6.0267,6.0701,6.0701,6.1335,6.1824,6.1969,6.2005,6.2259,6.2983,6.3375,6.3671,6.3734,6.3645,6.3811,6.4099,6.3823,6.3413,6.3609,6.4073,6.4412,6.4555,6.509,6.5286,6.5304,6.5375,6.5536,6.5108,6.5375,6.5429,6.5454,6.5421,6.5141,6.5127,6.4843,6.4287,6.3802,6.3452,6.3348,6.1879,6.1898,6.1879,6.1879,6.186,6.1879,6.1879,6.1917,6.2223,6.2376,6.2319,6.2013,6.1879,6.1898,6.1879,6.1879,6.186,6.186,6.185,6.184,6.1762,6.1823,6.2034,6.1909,6.1908,6.1976,6.175,6.1693,6.1812,6.1769,6.1634,6.143,6.1134,6.1208,6.1498,6.1516,6.1697,6.2005,6.2023,6.1679,6.1136,6.1027,6.1027,6.1027,6.1027,6.1027,6.0973,6.0593,6.0339,6.0338,6.0025,5.9856,5.9958,6.0058,6.0108,6.0157,6.0058,5.9925,5.9719,5.9597,5.9615,5.9615,6.005,6.0321,6.0357,6.0738,6.1027,6.0937,6.0176,5.9615,5.9687,6.005,6.0321,6.0394,6.0738,6.1027,6.1027,6.1317,6.1679,6.2132,6.2494,6.2929,6.3309,6.3418,6.3563,6.3889,6.4155,6.4383,6.4608,6.4615,6.4854,6.5366,6.5313,6.5046,6.4867,6.5036,6.5268,6.5358,6.5572,6.5786,6.5804,6.5804,6.5786,6.5804,6.5804,6.5804,6.575,6.5545,6.5282,6.5184,6.4655,6.4002,6.3656,6.3227,6.3017,6.2911,6.2911,6.2911,6.2911,6.2911,6.2911,6.2911,6.2949,6.314,6.3255,6.3274,6.3484,6.3579,6.3522,6.314,6.2911,6.2911,6.2911,6.2911,6.2911,6.2822,6.2876,6.2921,6.2829,6.2773,6.2728,6.2502,6.2421,6.2538,6.2456,6.2467,6.2381,6.2332,6.2349,6.2367,6.253,6.2675,6.2675,6.2657,6.2675,6.2675,6.2675,6.2458,6.2078,6.2023,6.2023,6.2005,6.1444,6.1136,6.1136,6.0681,6.0425,6.0459,6.058,6.0632,6.0562,6.0529,6.0425,6.0267,6.0285,6.0267,6.0303,6.0828,6.1154,6.1245,6.1679,6.2114,6.2223,6.1245,6.0611,6.0357,6.0792,6.119,6.1462,6.2023,6.2386,6.2639,6.2675,6.2911,6.3418,6.349,6.3708,6.4269,6.4522,6.4704,6.474,6.4842,6.5055,6.5501,6.5545,6.57,6.6179,6.6251,6.619,6.5994,6.5905,6.5931,6.5931,6.5976,6.5976,6.5913,6.5913,6.585,6.5913,6.585,6.574,6.5675,6.548,6.5361,6.5177,6.4812,6.4317,6.426,6.3666,6.3277,6.2881,6.2949,6.293,6.3006,6.293,6.2987,6.2968,6.3121,6.3809,6.4133,6.4229,6.4859,6.5242,6.5108,6.3694,6.2949,6.2968,6.3045,6.3064,6.3064,6.2955,6.3219,6.3829,6.3788,6.3979,6.4219,6.395,6.3654,6.3186,6.2842,6.25,6.2453,6.2949,6.3146,6.3237,6.3816,6.4251,6.4106,6.4124,6.4215,6.4215,6.4215,6.349,6.2313,6.2041,6.2078,6.2041,6.2005,6.1933,6.1933,6.1842,6.1879,6.2058,6.204,6.1985,6.2022,6.204,6.2004,6.1806,6.1806,6.1842,6.1879,6.1969,6.2005,6.2096,6.2186,6.2512,6.3056,6.2965,6.2585,6.2023,6.2023,6.2331,6.2929,6.3074,6.3472,6.4124,6.4033,6.4251,6.4341,6.4414,6.4541,6.4522,6.5066,6.5464,6.5663,6.617,6.6546,6.6355,6.6386,6.638,6.6294,6.6348,6.6287,6.6287,6.6225,6.6225,6.6207,6.6164,6.6225,6.6207,6.6146,6.6083,6.603,6.601,6.59,6.5599,6.5477,6.5424,6.5425,6.553,6.5248,6.4649,6.4648,6.4177,6.4516,6.4516,6.4516,6.4516,6.4496,6.4516,6.4516,6.4535,6.4821,6.4955,6.5012,6.528,6.5394,6.5356,6.4783,6.4496,6.4496,6.4496,6.4496,6.4496,6.4466,6.4546,6.4685,6.4709,6.4601,6.454,6.4308,6.4158,6.3989,6.3969,6.3982,6.3911,6.3947,6.3961,6.4015,6.4233,6.4396,6.4396,6.4396,6.4396,6.4432,6.4396,6.407,6.3563,6.3037,6.2766,6.2766,6.2295,6.2023,6.2023,6.2023,6.2023,6.206,6.206,6.2042,6.206,6.2042,6.206,6.2078,6.2494,6.2766,6.2802,6.3255,6.349,6.3545,6.3545,6.3671,6.3889,6.3943,6.3762,6.3635,6.3526,6.3635,6.3889,6.3961,6.407,6.4287,6.4396,6.4577,6.5102,6.5555,6.5935,6.5881,6.6188,6.637,6.6406,6.6623,6.6709,6.6727,6.665,6.6668,6.6608,6.6608,6.6626,6.6626,6.6427,6.6287,6.6287,6.6287,6.6323,6.6323,6.6325,6.6236,6.6773,6.6682,6.6583,6.6474,6.6354,6.6215,6.5704,6.5876,6.5652,6.4903,6.4918,6.4504,6.5394,6.5394,6.5394,6.5394,6.5394,6.5394,6.5394,6.5394,6.5394,6.5394,6.5394,6.5394,6.5394,6.5394,6.5394,6.5394,6.5394,6.5394,6.5394,6.5394,6.5394,6.5321,6.527,6.5446,6.5376,6.5049,6.4923,6.4849,6.4813,6.4849,6.4839,6.4731,6.4801,6.4794,6.4812,6.5011,6.5156,6.5174,6.5174,6.5174,6.5174,6.5174,6.5174,6.5048,6.4378,6.3834,6.3599,6.3056,6.2784,6.2748,6.2549,6.2277,6.206,6.2023,6.215,6.2349,6.2404,6.253,6.2802,6.3291,6.3581,6.3599,6.4052,6.4396,6.4396,6.4396,6.4504,6.4685,6.4794,6.483,6.5102,6.5174,6.5066,6.4848,6.4776,6.4903,6.5138,6.5211,6.5446,6.5917,6.6388,6.6732,6.6804,6.6786,6.6786,6.6804,6.6804,6.6804,6.6804,6.6804,6.6804,6.6804,6.6804,6.6745,6.6745,6.6626,6.6566,6.6566,6.6902,6.6848,6.6798,6.6746,6.689,6.7364,6.7528,6.7478,6.7424,6.7288,6.683,6.6263,6.6131,6.6123,6.5544,6.511,6.4874,6.5394,6.5394,6.5394,6.5394,6.5394,6.5394,6.5394,6.5394,6.5394,6.5394,6.5394,6.5394,6.5394,6.5394,6.5394,6.5394,6.5413,6.549,6.549,6.5394,6.5471,6.5436,6.5365,6.6074,6.621,6.5821,6.6057,6.6054,6.576,6.5426,6.5203,6.5022,6.5436,6.5609,6.5609,6.6225,6.6659,6.6605,6.6551,6.6641,6.6786,6.6623,6.6569,6.6569,6.5899,6.5192,6.4504,6.4341,6.4178,6.4142,6.3581,6.2838,6.2349,6.2241,6.244,6.3074,6.32,6.3581,6.416,6.4323,6.4396,6.445,6.4468,6.4667,6.4722,6.4667,6.4903,6.5464,6.5645,6.5862,6.6478,6.6569,6.6297,6.5772,6.5609,6.5899,6.6442,6.6732,6.6768,6.6732,6.6804,6.6804,6.6804,6.6804,6.6804,6.6804,6.6804,6.6804,6.6804,6.6804,6.6804,6.6804,6.6804,6.6804,6.6804,6.6804,6.684,6.6949,6.7451,6.7698,6.789,6.7912,6.8067,6.8425,6.8378,6.8321,6.7834,6.7662,6.7405,6.6927,6.6814,6.6507,6.6036,6.5664,6.5521,6.5394,6.5394,6.5394,6.5394,6.5394,6.5394,6.5394,6.5394,6.5394,6.5394,6.5394,6.5394,6.5394,6.5413,6.5394,6.5413,6.5452,6.5967,6.5987,6.5624,6.6025,6.6211,6.6249,6.6907,6.7009,6.6666,6.6961,6.6975,6.6716,6.6743,6.6737,6.6536,6.6474,6.6522,6.6388,6.6677,6.6804,6.6804,6.6804,6.6804,6.6804,6.6804,6.6804,6.6786,6.6551,6.6279,6.6025,6.4993,6.4414,6.4432,6.416,6.3907,6.3689,6.3671,6.378,6.3961,6.4033,6.407,6.4396,6.4903,6.5229,6.5319,6.57,6.6025,6.6062,6.6007,6.6098,6.6406,6.6442,6.6569,6.6732,6.6804,6.6659,6.6442,6.6424,6.646,6.6714,6.6804,6.6804,6.6804,6.6804,6.6804,6.6804,6.6804,6.6804,6.6804,6.6804,6.6804,6.6804,6.6804,6.6804,6.6804,6.6804,6.6822,6.6822,6.7021,6.7257,6.7474,6.7981,6.8525,6.8753,6.8966,6.9137,6.9185,6.9148,6.8876,6.8407,6.8009,6.7688,6.737,6.6991,6.6694,6.6337,6.6112,6.578,6.6063,6.633,6.6311,6.633,6.633,6.633,6.6311,6.6311,6.633,6.633,6.633,6.633,6.633,6.633,6.633,6.633,6.6369,6.6923,6.6865,6.6445,6.6827,6.7082,6.7082,6.7696,6.809,6.7992,6.8109,6.7998,6.7651,6.7774,6.7632,6.7378,6.7097,6.6943,6.6845,6.6804,6.6804,6.6804,6.6804,6.6804,6.6804,6.6804,6.6804,6.6804,6.6804,6.6804,6.6714,6.5808,6.5283,6.5229,6.5011,6.4722,6.4432,6.4359,6.4522,6.4794,6.4867,6.4957,6.5283,6.579,6.6044,6.6152,6.6514,6.6768,6.6804,6.6804,6.6804,6.6804,6.6786,6.6804,6.6804,6.6804,6.6804,6.6804,6.6768,6.6804,6.6804,6.6804,6.6804,6.6804,6.6804,6.6804,6.6804,6.6804,6.6804,6.6804,6.6804,6.6804,6.6804,6.6804,6.6822,6.6822,6.6804,6.6822,6.684,6.7166,6.7637,6.8054,6.8488,6.905,6.9502,6.9733,6.9991,6.9774,6.9704,6.9283,6.8789,6.835,6.7945,6.7523,6.7063,6.6542,6.6095,6.5851,6.5603,6.7197,6.7859,6.7878,6.7763,6.7763,6.7744,6.7687,6.7802,6.7782,6.7706,6.7763,6.7649,6.7744,6.7821,6.763,6.763,6.7878,6.7935,6.7954,6.7916,6.8069,6.8133,6.8188,6.8557,6.8982,6.9357,6.9223,6.8959,6.8595,6.8229,6.7912,6.7669,6.7266,6.704,6.7001,6.6903,6.6863,6.6863,6.6804,6.6804,6.6804,6.6804,6.6804,6.6804,6.6804,6.6804,6.6768,6.6623,6.6659,6.6659,6.5989,6.5374,6.474,6.4541,6.5011,6.5609,6.5663,6.6007,6.6569,6.6623,6.6696,6.6696,6.6732,6.6804,6.6804,6.6804,6.6895,6.7003,6.6985,6.7003,6.7058,6.7148,6.713,6.7003,6.7094,6.7021,6.6895,6.6985,6.7221,6.7148,6.6985,6.6985,6.7184,6.7166,6.7148,6.7148,6.7184,6.7257,6.7203,6.7275,6.6967,6.6967,6.7112,6.7148,6.7275,6.7836,6.8325,6.8923,6.9267,6.9647,7.0092,7.04,7.0435,7.0246,7.0008,6.9635,6.914,6.8628,6.8101,6.7638,6.7046,6.6354,6.6009,6.5763,6.5587,6.77,6.7897,6.7897,6.7897,6.7897,6.7897,6.7916,6.7916,6.7935,6.8031,6.7935,6.7897,6.7993,6.7916,6.7954,6.7897,6.8107,6.8585,6.8852,6.8967,6.9502,6.9685,6.9656,6.9709,6.9757,6.9815,6.9539,6.9228,6.8926,6.8575,6.8253,6.793,6.765,6.7451,6.7304,6.7058,6.6961,6.6961,6.6845,6.6804,6.6804,6.6804,6.6804,6.6804,6.6804,6.6804,6.6804,6.6804,6.6804,6.6804,6.6641,6.6406,6.6116,6.6062,6.6134,6.6333,6.646,6.6533,6.6732,6.6804,6.6804,6.6804,6.6877,6.6804,6.6804,6.6822,6.7112,6.7474,6.7692,6.7909,6.838,6.8488,6.8488,6.847,6.8054,6.7728,6.7764,6.8199,6.8561,6.8561,6.8488,6.8434,6.8398,6.8416,6.8416,6.8416,6.8398,6.8398,6.818,6.7927,6.7673,6.7673,6.7764,6.7728,6.7909,6.8488,6.9104,6.9792,7.0136,7.0299,7.0689,7.0887,7.074,7.0461,7.0149,6.9742,6.9305,6.8781,6.8336,6.7799,6.7212,6.6542,6.6199,6.5938,6.5675,6.8635,6.8948,6.8948,6.8948,6.8948,6.8948,6.8948,6.8948,6.8948,6.8948,6.8948,6.8948,6.8948,6.8967,6.8967,6.8967,6.9043,6.9483,6.9693,6.975,7.0151,7.0276,7.0266,7.0255,7.013,6.9967,6.9718,6.9479,6.9209,6.8873,6.8557,6.8247,6.7982,6.7739,6.7488,6.7304,6.7154,6.704,6.6943,6.6903,6.6903,6.6786,6.6804,6.6804,6.6804,6.6804,6.6804,6.6804,6.6804,6.6804,6.6804,6.6804,6.6804,6.6804,6.6804,6.6804,6.6804,6.6804,6.6804,6.6804,6.6804,6.6895,6.7058,6.7293,6.742,6.7583,6.8072,6.8416,6.8506,6.8742,6.9032,6.9158,6.9158,6.9086,6.9068,6.885,6.8561,6.8869,6.9122,6.9158,6.9158,6.9176,6.9176,6.9195,6.9176,6.9122,6.9013,6.9032,6.8995,6.8706,6.8506,6.8506,6.8488,6.847,6.8452,6.8887,6.905,6.9774,6.9991,7.0335,7.0753,7.1041,7.086,7.0543,7.0218,6.9902,6.9452,6.9008,6.8551,6.8004,6.736,6.6879,6.6542,6.6112,6.5851,6.9737,7.0419,7.0419,7.0419,7.0342,7.04,7.0228,7.0342,7.0247,7.0266,7.0266,7.0362,7.0151,7.0419,7.0094,7.0323,7.0323,7.0247,7.0323,7.0323,7.04,7.0367,7.0319,7.0305,7.0201,7.0058,6.9967,6.9738,6.9501,6.9209,6.8945,6.8633,6.8297,6.7982,6.7792,6.7578,6.7396,6.7266,6.7154,6.704,6.7001,6.6903,6.6845,6.6863,6.6804,6.6804,6.6804,6.6804,6.6804,6.6804,6.6804,6.6804,6.6804,6.6804,6.6804,6.6804,6.6804,6.6804,6.6804,6.6804,6.6804,6.6895,6.742,6.7873,6.7818,6.8217,6.8742,6.8995,6.9231,6.9412,6.9611,6.9521,6.9593,6.9756,7.0136,7.0046,6.9557,6.9358,6.9412,6.9412,6.9448,6.943,6.9412,6.943,6.9484,7.0046,6.9937,6.9955,6.9846,6.9557,6.9394,6.9321,6.9285,6.9231,6.9231,6.9267,6.9231,6.9412,6.943,6.972,7.0319,7.0644,7.0739,7.0601,7.03,7.0095,6.9902,6.9379,6.8822,6.8379,6.7828,6.736,6.6879,6.6456,6.6129,7.0233,7.0419,7.0419,7.0419,7.0419,7.0419,7.0419,7.0419,7.0419,7.0419,7.0419,7.0419,7.0419,7.0419,7.0419,7.0419,7.0419,7.0419,7.0419,7.0419,7.0419,7.0419,7.0353,7.0338,7.027,7.0166,7.0004,6.9891,6.9757,6.9498,6.9246,6.9034,6.8744,6.8528,6.8303,6.7982,6.7773,6.7596,6.7415,6.7266,6.7154,6.7058,6.6943,6.6943,6.6863,6.6804,6.6804,6.6804,6.6804,6.6804,6.6804,6.6804,6.6804,6.6804,6.6804,6.6804,6.6804,6.6804,6.6804,6.6804,6.6804,6.684,6.7058,6.7058,6.7112,6.7909,6.8579,6.9104,6.9738,7.0154,7.0535,7.0897,7.0679,7.0643,7.0824,7.0788,7.0372,7.0571,7.0752,7.0788,7.0788,7.0969,7.0915,7.0824,7.0842,7.0969,7.0933,7.0951,7.0698,7.0372,7.0245,7.0118,6.9883,6.9756,6.9502,6.9303,6.8887,6.8724,6.8669,6.8724,6.9343,6.9967,7.0003,7.0159,7.0427,7.0157,6.9617,6.9618,6.9038,6.8659,6.8267,6.7748,6.7277,6.6862,6.6236,7.0042,7.04,7.0419,7.0419,7.0419,7.0419,7.0419,7.0419,7.0419,7.0419,7.0419,7.0419,7.0419,7.0419,7.0419,7.0419,7.0419,7.0419,7.0419,7.0419,7.0419,7.0419,7.0419,7.0353,7.0338,7.0289,7.0166,7.0058,6.991,6.9757,6.9558,6.9355,6.9122,6.8855,6.8641,6.8383,6.8153,6.7967,6.7757,6.7596,6.7433,6.7266,6.7154,6.7115,6.6961,6.6903,6.6903,6.6863,6.6804,6.6804,6.6804,6.6804,6.6804,6.6804,6.6804,6.6804,6.6804,6.6804,6.6804,6.6804,6.6804,6.6822,6.7112,6.7329,6.7547,6.8108,6.8651,6.9122,6.9539,6.9991,7.0354,7.039,7.0426,7.0408,7.0426,7.0227,7.0028,7.0498,7.0788,7.0643,7.0589,7.077,7.0987,7.1223,7.1458,7.1205,7.1223,7.1241,7.1259,7.0987,7.0969,7.0824,7.048,7.0191,6.981,6.9267,6.8434,6.8072,6.7692,6.771,6.7939,6.8566,6.9118,6.9435,6.9728,6.9376,6.8952,6.9052,6.9086,6.8614,6.8218,6.8033,6.7696,6.7124,6.649,6.9393,7.0037,7.0151,7.0228,7.0247,7.0342,7.0419,7.0419,7.0419,7.0419,7.0419,7.0419,7.0419,7.0419,7.0419,7.0419,7.0419,7.0419,7.0419,7.0419,7.0419,7.0419,7.0419,7.0386,7.0386,7.0338,7.027,7.0201,7.0095,6.9948,6.9796,6.9542,6.9397,6.9141,6.8881,6.867,6.8517,6.8321,6.8139,6.7933,6.7776,6.7596,6.7433,6.7266,6.7097,6.7001,6.6943,6.6903,6.6863,6.6804,6.6804,6.6804,6.6804,6.6804,6.6804,6.6804,6.6804,6.6804,6.6804,6.6804,6.6822,6.684,6.7329,6.771,6.7873,6.8289,6.8706,6.8923,6.914,6.9303,6.9195,6.9376,6.9339,6.9285,6.9231,6.9122,6.9122,6.9629,6.9593,6.9575,6.9901,7.0209,7.0571,7.0879,7.1205,7.1476,7.1476,7.1458,7.1422,7.1458,7.1313,7.1132,7.0734,6.9756,6.9267,6.8615,6.7854,6.7619,6.7076,6.7058,6.7058,6.7487,6.8168,6.8667,6.8742,6.8604,6.8607,6.8752,6.8627,6.8345,6.8071,6.7695,6.7497,6.729,6.6545,6.8203,6.8375,6.9101,6.9387,6.9521,7.0094,7.0362,7.0419,7.0381,7.0419,7.0419,7.0419,7.0419,7.0419,7.0419,7.0419,7.0419,7.0419,7.0419,7.0419,7.0419,7.0419,7.0419,7.0419,7.0367,7.0386,7.0338,7.027,7.0201,7.0076,6.9929,6.9815,6.9659,6.9438,6.9209,6.9053,6.8892,6.866,6.8468,6.8321,6.8171,6.7915,6.7704,6.7415,6.7266,6.7154,6.7058,6.7001,6.6903,6.6786,6.6804,6.6804,6.6804,6.6804,6.6804,6.6804,6.6804,6.6804,6.6804,6.6804,6.6804,6.684,6.7003,6.704,6.7239,6.7692,6.8126,6.8343,6.8688,6.9068,6.9158,6.8923,6.9086,6.9104,6.8959,6.8778,6.838,6.838,6.8688,6.8814,6.9195,6.9539,6.9865,7.0227,7.0571,7.0915,7.1132,7.106,7.0987,7.115,7.1295,7.1078,7.0824,6.9629,6.8488,6.7746,6.7094,6.7166,6.6913,6.6913,6.6895,6.6877,6.7252,6.7861,6.8342,6.8426,6.8471,6.8421,6.8266,6.7969,6.7623,6.73,6.7139,6.6927,6.6073,6.7527,6.7935,6.8356,6.8527,6.868,6.9425,6.9769,6.9846,7.0228,7.0419,7.0419,7.0419,7.0419,7.0419,7.0419,7.0419,7.0419,7.0419,7.0419,7.0419,7.0419,7.0419,7.0419,7.0419,7.0419,7.0386,7.0353,7.0338,7.0305,7.0217,7.0076,6.9948,6.9873,6.9699,6.9479,6.9332,6.9203,6.8983,6.8828,6.8641,6.8487,6.8222,6.7967,6.781,6.7542,6.7451,6.7341,6.7058,6.7001,6.6885,6.6863,6.6804,6.6804,6.6804,6.6804,6.6804,6.6804,6.6804,6.6804,6.6804,6.6804,6.6804,6.6804,6.6804,6.6877,6.7166,6.742,6.751,6.7565,6.7927,6.7873,6.7999,6.7945,6.7945,6.7981,6.7818,6.7547,6.7438,6.771,6.8126,6.838,6.8651,6.8941,6.9358,6.9828,7.0263,7.0698,7.0661,7.0498,7.0661,7.0861,7.0281,6.9865,6.8977,6.7909,6.7329,6.6804,6.6804,6.6804,6.6804,6.6804,6.6822,6.6895,6.7197,6.7626,6.8017,6.7804,6.7581,6.7543,6.7636,6.7522,6.7392,6.6934,6.6464,6.5648,6.682,6.74,6.7572,6.7649,6.7802,6.8585,6.9043,6.9311,6.9865,7.0247,7.0419,7.0419,7.0419,7.0419,7.0419,7.0419,7.0419,7.0419,7.0419,7.0419,7.0419,7.0419,7.0419,7.0419,7.0419,7.0419,7.0419,7.0386,7.0338,7.0305,7.0182,7.0095,6.9985,6.9873,6.9699,6.9539,6.9416,6.9289,6.9141,6.8919,6.8726,6.8535,6.834,6.8171,6.7933,6.7741,6.7633,6.7285,6.7058,6.6943,6.6845,6.6804,6.6804,6.6804,6.6804,6.6804,6.6804,6.6804,6.6804,6.6804,6.6804,6.6804,6.6804,6.6804,6.6822,6.6877,6.6877,6.6804,6.6877,6.6949,6.7058,6.6895,6.6895,6.6931,6.6949,6.684,6.6931,6.6949,6.6985,6.7293,6.7529,6.7909,6.8307,6.8597,6.9104,6.9575,7.0009,6.9955,6.9846,6.9955,6.9919,6.9195,6.8615,6.7999,6.7366,6.713,6.6804,6.6804,6.6804,6.6804,6.6804,6.6822,6.6895,6.6967,6.6985,6.7288,6.6969,6.6927,6.7006,6.7132,6.7403,6.7229,6.6509,6.597,6.5401,6.5605,6.5776,6.6541,6.6846,6.6961,6.7706,6.8489,6.9101,6.9292,6.9769,7.0304,7.0419,7.0419,7.0419,7.0419,7.0419,7.0419,7.0419,7.0419,7.0419,7.0419,7.0419,7.0419,7.0419,7.0419,7.0419,7.0419,7.0419,7.0386,7.0338,7.0305,7.0236,7.0095,6.9929,6.9873,6.9757,6.9638,6.9536,6.9289,6.9072,6.8884,6.8726,6.8583,6.8438,6.819,6.7933,6.7722,6.7396,6.7154,6.7001,6.6903,6.6804,6.6804,6.6804,6.6804,6.6804,6.6804,6.6804,6.6804,6.6804,6.6804,6.6804,6.6804,6.6804,6.6804,6.6804,6.6804,6.6804,6.6804,6.6804,6.6804,6.6804,6.6804,6.6804,6.6804,6.6804,6.6804,6.6804,6.6804,6.6822,6.7184,6.751,6.7873,6.8108,6.838,6.8869,6.9213,6.9158,6.905,6.905,6.9013,6.8307,6.7981,6.742,6.7148,6.6858,6.6804,6.6804,6.6804,6.6804,6.6804,6.6804,6.6804,6.684,6.6804,6.6804,6.6836,6.6771,6.6589,6.6665,6.6827,6.6375,6.5759,6.5311,6.5146,6.5433,6.5433,6.5815,6.5948,6.6063,6.6846,6.7419,6.7935,6.8814,6.9387,6.9788,7.0247,7.0419,7.0419,7.0419,7.0419,7.0419,7.0419,7.0419,7.0419,7.0419,7.0419,7.0419,7.0419,7.0419,7.0419,7.0419,7.0419,7.0386,7.0386,7.0353,7.0305,7.0236,7.0095,6.9985,6.9891,6.9777,6.9678,6.9517,6.9308,6.9116,6.8983,6.8865,6.865,6.8438,6.8171,6.7915,6.7669,6.7378,6.7154,6.7001,6.6845,6.6804,6.6804,6.6804,6.6804,6.6804,6.6804,6.6804,6.6804,6.6804,6.6804,6.6804,6.6804,6.6804,6.6804,6.6804,6.6804,6.6804,6.6804,6.6804,6.6804,6.6804,6.6804,6.6804,6.6804,6.6804,6.6804,6.6804,6.6804,6.684,6.7166,6.7402,6.7474,6.7619,6.7836,6.818,6.8235,6.7963,6.7692,6.7619,6.7438,6.7275,6.7112,6.6985,6.6804,6.6804,6.6804,6.6804,6.6804,6.6804,6.6804,6.6804,6.6804,6.6804,6.6804,6.6786,6.6745,6.668,6.6463,6.6225,6.5958,6.5704,6.548,6.5258,6.5503,6.5454,6.5444,6.5394,6.5452,6.612,6.6522,6.6904,6.8222,6.8986,6.9387,7.0018,7.0419,7.0419,7.0419,7.0419,7.0419,7.0419,7.0419,7.0419,7.0419,7.0419,7.0419,7.0419,7.0419,7.0419,7.0419,7.0419,7.0419,7.0386,7.0334,7.0338,7.0305,7.0236,7.0111,7.0003,6.9872,6.9699,6.9638,6.9517,6.9332,6.9228,6.9091,6.8865,6.8631,6.8438,6.819,6.7828,6.7488,6.7396,6.7115,6.6961,6.6921,6.6804,6.6804,6.6804,6.6804,6.6804,6.6804,6.6804,6.6804,6.6804,6.6804,6.6804,6.6804,6.6804,6.6804,6.6804,6.6804,6.6804,6.6804,6.6804,6.6804,6.6804,6.6804,6.6804,6.6804,6.6804,6.6804,6.6804,6.6804,6.6804,6.6967,6.6895,6.6913,6.6931,6.7076,6.7329,6.7166,6.6913,6.6913,6.7003,6.6985,6.6949,6.6895,6.6804,6.6804,6.6804,6.6804,6.6804,6.6804,6.6804,6.6804,6.6804,6.6804,6.6804,6.6804,6.6804,6.6727,6.653,6.633,6.6146,6.5958,6.5704,6.5445,6.5659,6.558,6.5454,6.5394,6.5394,6.5452,6.5948,6.6655,6.761,6.8547,6.9387,7.0018,7.0419,7.0419,7.0419,7.0419,7.0419,7.0419,7.0419,7.0419,7.0419,7.0419,7.0419,7.0419,7.0419,7.0419,7.0419,7.0419,7.0419,7.0419,7.0419,7.0386,7.0319,7.0305,7.0236,7.0076,6.991,6.9777,6.9738,6.9659,6.9558,6.9434,6.9289,6.9097,6.8846,6.8631,6.842,6.8018,6.7669,6.7633,6.7285,6.7058,6.7001,6.6885,6.6845,6.6845,6.6863,6.6863,6.6863,6.6804,6.6804,6.6804,6.6804,6.6804,6.6804,6.6804,6.6804,6.6804,6.6804,6.6804,6.6804,6.6804,6.6804,6.6804,6.6804,6.6804,6.6804,6.6804,6.6804,6.6804,6.6804,6.6804,6.6804,6.6804,6.6804,6.6858,6.6858,6.7094,6.704,6.684,6.684,6.6858,6.6858,6.684,6.684,6.6804,6.6804,6.6804,6.6804,6.6804,6.6804,6.6804,6.6804,6.6804,6.6804,6.6804,6.6804,6.6804,6.6727,6.659,6.6391,6.6269,6.6021,6.5768,6.551,6.5832,6.5717,6.5635,6.5523,6.5454,6.5425,6.5585,6.6101,6.7324,6.8699,6.9922,7.0266,7.0419,7.0419,7.0419,7.0419,7.0419,7.0419,7.0419,7.0419,7.0419,7.0419,7.0419,7.0419,7.0419,7.0419,7.0419,7.0419,7.0419,7.0419,7.0419,7.0386,7.0386,7.0319,7.027,7.0201,7.0039,6.9929,6.9891,6.9815,6.9678,6.9638,6.9457,6.9203,6.9097,6.88,6.8535,6.8321,6.8018,6.7722,6.7506,6.7322,6.7154,6.7115,6.7058,6.7001,6.6961,6.6961,6.6903,6.6863,6.6804,6.6804,6.6804,6.6804,6.6804,6.6804,6.6804,6.6804,6.6804,6.6804,6.6804,6.6804,6.6804,6.6804,6.6804,6.6804,6.6804,6.6804,6.6804,6.6804,6.6804,6.6804,6.6804,6.6804,6.6804,6.6822,6.6804,6.6804,6.6804,6.6804,6.6804,6.6804,6.6804,6.6804,6.6804,6.6804,6.6804,6.6804,6.6804,6.6804,6.6804,6.6804,6.6804,6.6804,6.6804,6.6804,6.6804,6.6804,6.6745,6.6668,6.653,6.633,6.6066,6.5832,6.564,6.5997,6.5895,6.5801,6.5671,6.5523,6.5454,6.5425,6.5692,6.6904,6.8489,7.0037,7.0266,7.0419,7.0419,7.0419,7.0419,7.0419,7.0419,7.0419,7.0419,7.0419,7.0419,7.0419,7.0419,7.0419,7.0419,7.0419,7.0419,7.0419,7.0419,7.0419,7.0419,7.0419,7.0372,7.0319,7.027,7.0166,7.0076,7.0003,6.9966,6.9815,6.9699,6.9659,6.9355,6.9228,6.9053,6.88,6.8565,6.8321,6.807,6.781,6.765,6.7488,6.7322,6.7266,6.721,6.7154,6.7058,6.7001,6.6903,6.6804,6.6804,6.6804,6.6804,6.6804,6.6804,6.6804,6.6804,6.6804,6.6804,6.6804,6.6804,6.6804,6.6804,6.6804,6.6804,6.6804,6.6804,6.6804,6.6804,6.6804,6.6804,6.6804,6.6804,6.6804,6.6804,6.6804,6.6804,6.6804,6.6804,6.6804,6.6804,6.6804,6.6804,6.6804,6.6804,6.6804,6.6804,6.6804,6.6804,6.6804,6.6804,6.6804,6.6804,6.6804,6.6804,6.6804,6.6804,6.6804,6.6804,6.6608,6.6391,6.6269,6.6083,6.5877,6.6206,6.6082,6.6016,6.5851,6.5635,6.5523,6.5475,6.5647,6.6533,6.784,6.9368,7.0037,7.0419,7.0419,7.0419,7.0419,7.0419,7.0419,7.0419,7.0419,7.0419,7.0419,7.0419,7.0419,7.0419,7.0419,7.0419,7.0419,7.0419,7.0419,7.0419,7.0419,7.0419,7.0419,7.0367,7.0338,7.027,7.0185,7.0095,7.0039,6.9966,6.9815,6.9738,6.9601,6.9397,6.9228,6.9053,6.8846,6.8613,6.842,6.8153,6.8,6.7863,6.7632,6.7506,6.7469,6.7322,6.7266,6.7192,6.6943,6.6845,6.6863,6.6804,6.6804,6.6804,6.6804,6.6804,6.6804,6.6804,6.6804,6.6804,6.6804,6.6804,6.6804,6.6804,6.6804,6.6804,6.6804,6.6804,6.6804,6.6804,6.6804,6.6804,6.6804,6.6804,6.6804,6.6804,6.6804,6.6804,6.6804,6.6804,6.6804,6.6804,6.6804,6.6804,6.6804,6.6804,6.6804,6.6804,6.6804,6.6804,6.6804,6.6804,6.6804,6.6804,6.6804,6.6804,6.6804,6.6804,6.6804,6.6668,6.6512,6.6409,6.6269,6.6083,6.6361,6.6225,6.6225,6.6084,6.59,6.5697,6.5608,6.582,6.6968,6.8177,6.9177,7.0056,7.0419,7.0419,7.0419,7.0419,7.0419,7.0419,7.0419,7.0419,7.0419,7.0419,7.0419,7.0419,7.0419,7.0419,7.0419,7.0419,7.0419,7.0419,7.0419,7.0419,7.0419,7.0419,7.0419,7.0386,7.0338,7.0289,7.0236,7.0147,7.013,6.9985,6.9854,6.9815,6.962,6.9457,6.9332,6.9116,6.8937,6.8735,6.8528,6.842,6.829,6.8051,6.8,6.7948,6.781,6.7524,6.7396,6.7192,6.7097,6.7001,6.6845,6.6863,6.6804,6.6804,6.6804,6.6804,6.6804,6.6804,6.6804,6.6804,6.6804,6.6804,6.6804,6.6804,6.6804,6.6804,6.6804,6.6804,6.6804,6.6804,6.6804,6.6804,6.6804,6.6804,6.6804,6.6804,6.6804,6.6804,6.6804,6.6804,6.6804,6.6804,6.6804,6.6804,6.6804,6.6804,6.6804,6.6804,6.6804,6.6804,6.6804,6.6804,6.6804,6.6804,6.6804,6.6804,6.6804,6.6745,6.6668,6.659,6.653,6.647,6.633,6.6478,6.638,6.6384,6.6299,6.6146,6.5924,6.5724,6.5885,6.7016,6.8047,6.8808,6.9597,7.0151,7.0323,7.0419,7.0419,7.0419,7.0419,7.0419,7.0419,7.0419,7.0419,7.0419,7.0419,7.0419,7.0419,7.0419,7.0419,7.0419,7.0419,7.0419,7.0419,7.0419,7.0419,7.0419,7.0386,7.0367,7.0319,7.0286,7.027,7.0201,7.013,7.0022,6.9948,6.9777,6.9699,6.9539,6.9355,6.9228,6.9053,6.8919,6.8846,6.8707,6.8546,6.845,6.8371,6.824,6.7967,6.7792,6.7649,6.7524,6.7396,6.7115,6.6943,6.6903,6.6903,6.6863,6.6804,6.6804,6.6804,6.6804,6.6804,6.6804,6.6804,6.6804,6.6804,6.6804,6.6804,6.6804,6.6804,6.6804,6.6804,6.6804,6.6804,6.6804,6.6804,6.6804,6.6804,6.6804,6.6804,6.6804,6.6804,6.6804,6.6804,6.6804,6.6804,6.6804,6.6804,6.6804,6.6804,6.6804,6.6804,6.6804,6.6804,6.6804,6.6804,6.6804,6.6804,6.6804,6.6804,6.6804,6.6668,6.659,6.653,6.647,6.6579,6.6522,6.6489,6.6431,6.6279,6.6084,6.59,6.5774,6.6519,6.7323,6.802,6.8915,6.9649,7.0228,7.0362,7.0419,7.0419,7.0419,7.0419,7.0419,7.0419,7.0419,7.0419,7.0419,7.0419,7.0419,7.0419,7.0419,7.0419,7.0419,7.0419,7.0419,7.0419,7.0419,7.0419,7.0419,7.04,7.0386,7.0372,7.0338,7.027,7.0255,7.013,7.0058,6.9948,6.9873,6.9757,6.9638,6.9517,6.9416,6.9374,6.9246,6.9097,6.8881,6.8782,6.8707,6.8583,6.8468,6.8303,6.8116,6.7982,6.7863,6.7542,6.7266,6.704,6.7001,6.6943,6.6903,6.6863,6.6804,6.6804,6.6804,6.6804,6.6804,6.6804,6.6804,6.6804,6.6804,6.6804,6.6804,6.6804,6.6804,6.6804,6.6804,6.6732,6.6804,6.6804,6.6804,6.6804,6.6804,6.6804,6.6804,6.6804,6.6804,6.6804,6.6804,6.6804,6.6804,6.6804,6.6804,6.6804,6.6786,6.6804,6.6804,6.6804,6.6804,6.6804,6.6804,6.6804,6.6804,6.6804,6.6804,6.6668,6.665,6.659,6.6693,6.6641,6.663,6.6562,6.6431,6.6281,6.6105,6.6015,6.6699,6.7149,6.7343,6.8701,6.9329,6.9654,7.0145,7.0342,7.0419,7.0419,7.0419,7.0419,7.0419,7.0419,7.0419,7.0419,7.0419,7.0419,7.0419,7.0419,7.0419,7.0419,7.0419,7.0419,7.0419,7.0419,7.0419,7.0419,7.0419,7.0386,7.0386,7.0353,7.0353,7.0305,7.0236,7.0201,7.013,7.0058,6.9985,6.9891,6.9757,6.9757,6.9598,6.9476,6.9434,6.9289,6.9203,6.9072,6.9027,6.8919,6.8717,6.8604,6.8528,6.8303,6.8051,6.7739,6.7469,6.7266,6.7154,6.7001,6.6961,6.6903,6.6903,6.6863,6.6863,6.6863,6.6732,6.6587,6.6551,6.6424,6.6424,6.637,6.6388,6.6478,6.6533,6.6641,6.6587,6.6732,6.6804,6.6804,6.6804,6.6804,6.6804,6.6804,6.6804,6.6804,6.6804,6.6804,6.6804,6.6804,6.6732,6.6659,6.6623,6.6641,6.675,6.6641,6.6351,6.6514,6.6804,6.6677,6.6315,6.6714,6.6768,6.6786,6.6804,6.6727,6.6668,6.6783,6.6741,6.6722,6.6682,6.6581,6.6431,6.6299,6.6263,6.6549,6.6769,6.7179,6.7985,6.8742,6.9391,6.9788,7.0107,7.047,7.0419,7.0419,7.0419,7.0419,7.0419,7.0419,7.0419,7.0419,7.0419,7.0419,7.0419,7.0419,7.0419,7.0419,7.0419,7.0419,7.0419,7.0419,7.0419,7.0419,7.0419,7.0419,7.0419,7.0386,7.0353,7.0338,7.0305,7.0236,7.0201,7.0185,7.0041,7.0041,7.0004,6.9853,6.9718,6.9697,6.9558,6.9476,6.935,6.935,6.9246,6.9097,6.9034,6.8919,6.8735,6.8546,6.8284,6.7948,6.7686,6.7433,6.721,6.7115,6.7058,6.7019,6.6903,6.6903,6.6921,6.6627,6.6333,6.6152,6.5953,6.5862,6.579,6.5844,6.5953,6.608,6.6243,6.6496,6.6696,6.6804,6.6804,6.6804,6.6804,6.6804,6.6804,6.6804,6.6804,6.6804,6.6768,6.6714,6.6569,6.6297,6.6261,6.6333,6.6025,6.57,6.5663,6.57,6.5844,6.5935,6.5826,6.5645,6.6062,6.6424,6.646,6.6569,6.6804,6.6745,6.6798,6.6803,6.6803,6.675,6.6682,6.6562,6.6514,6.6474,6.6244,6.6437,6.7003,6.7083,6.7925,6.88,6.9287,6.9812,7.0221,7.0369,7.047,7.0419,7.0419,7.0419,7.0419,7.0419,7.0419,7.0419,7.0419,7.0419,7.0419,7.0419,7.0419,7.0419,7.0419,7.0419,7.0419,7.0419,7.0419,7.0419,7.0419,7.0419,7.0419,7.0386,7.0386,7.0319,7.0286,7.0251,7.0255,7.022,7.0185,7.0149,7.0114,6.9985,6.9873,6.9776,6.9697,6.9657,6.9678,6.9558,6.9457,6.9416,6.9289,6.9097,6.8945,6.8809,6.8528,6.807,6.7757,6.7524,6.7469,6.7304,6.721,6.6806,6.6697,6.6401,6.6072,6.576,6.5485,6.5304,6.5102,6.5048,6.5084,6.5211,6.5374,6.5518,6.5808,6.6333,6.6587,6.6569,6.675,6.675,6.6696,6.6696,6.6786,6.6768,6.6714,6.6659,6.6569,6.637,6.5917,6.5609,6.5518,6.5048,6.4468,6.4758,6.5084,6.4794,6.474,6.4848,6.5066,6.5301,6.5645,6.5935,6.6207,6.6478,6.675,6.6804,6.6805,6.681,6.6767,6.6702,6.6663,6.6638,6.6633,6.6465,6.6397,6.6529,6.6973,6.7353,6.7845,6.8876,6.9472,6.9758,7.0233,7.0496,7.0522,7.047,7.0419,7.0419,7.0419,7.0419,7.0419,7.0419,7.0419,7.0419,7.0419,7.0419,7.0419,7.0419,7.0419,7.0419,7.0419,7.0419,7.0419,7.0419,7.0419,7.0419,7.0419,7.0386,7.0386,7.0353,7.0353,7.0338,7.0305,7.027,7.0236,7.0185,7.0149,7.0114,7.0077,7.0041,7.0041,7.0004,6.9891,6.9815,6.9757,6.9638,6.9457,6.9313,6.9289,6.9027,6.8468,6.8102,6.7893,6.7718,6.7505,6.7268,6.6775,6.6299,6.5897,6.544,6.5129,6.4819,6.4507,6.4287,6.4269,6.4287,6.4414,6.4577,6.4848,6.5174,6.5482,6.5754,6.5971,6.6406,6.6533,6.6388,6.6424,6.6696,6.6714,6.6533,6.6225,6.5971,6.5645,6.5156,6.4903,6.4667,6.4251,6.3852,6.4251,6.4468,6.4088,6.3997,6.4359,6.4577,6.4649,6.4794,6.5048,6.5482,6.5808,6.6261,6.6809,6.6804,6.6805,6.6771,6.6756,6.6759,6.6722,6.6691,6.6606,6.6495,6.6375,6.6709,6.6968,6.7138,6.82,6.9102,6.9365,6.9894,7.0283,7.047,7.0534,7.0451,7.0419,7.0419,7.0419,7.0419,7.0419,7.0419,7.0419,7.0419,7.0419,7.0419,7.0419,7.0419,7.0419,7.0419,7.0419,7.0419,7.0419,7.0419,7.0419,7.0419,7.0419,7.0419,7.0419,7.0419,7.0386,7.0353,7.0353,7.0319,7.027,7.022,7.0185,7.0149,7.0185,7.0149,7.0168,7.0168,7.0041,6.9947,6.9834,6.9644,6.9187,6.8938,6.8684,6.8159,6.8092,6.7866,6.7537,6.7368,6.6975,6.6522,6.5964,6.5494,6.4748,6.4184,6.3657,6.3165,6.3037,6.3037,6.3146,6.3363,6.3563,6.3852,6.4233,6.4812,6.5048,6.512,6.5591,6.6007,6.5935,6.5881,6.5989,6.5862,6.5446,6.5229,6.5102,6.474,6.4396,6.3852,6.3472,6.3363,6.3309,6.3454,6.3454,6.3219,6.3255,6.3563,6.3744,6.3798,6.3925,6.4124,6.4613,6.5102,6.5518,6.6795,6.6815,6.6804,6.6811,6.6811,6.6798,6.6767,6.6702,6.6722,6.6641,6.6522,6.6419,6.6747,6.7054,6.7451,6.8318,6.9047,6.9563,7.0009,7.0313,7.059,7.0547,7.0483,7.0451,7.0419,7.0419,7.0419,7.0419,7.0419,7.0419,7.0419,7.0419,7.0419,7.0419,7.0419,7.0419,7.0419,7.0419,7.0419,7.0419,7.0419,7.0419,7.0419,7.0419,7.0419,7.0419,7.0419,7.0419,7.0419,7.0386,7.0353,7.0305,7.027,7.0255,7.0255,7.0255,7.0236,7.0106,6.9957,6.9842,6.9695,6.9433,6.8829,6.8432,6.8129,6.8011,6.7894,6.7679,6.7355,6.7001,6.6598,6.6167,6.557,6.5055,6.4171,6.3466,6.2836,6.2241,6.2187,6.2132,6.2295,6.253,6.2712,6.3019,6.3436,6.3997,6.4269,6.4323,6.4468,6.483,6.4993,6.4848,6.4794,6.4595,6.4486,6.4287,6.4233,6.3979,6.3581,6.2856,6.2367,6.2567,6.2567,6.2349,6.2295,6.244,6.2386,6.253,6.2693,6.3019,6.3056,6.3291,6.3871,6.4341,6.4704,6.6795,6.6795,6.6815,6.6804,6.6811,6.6811,6.681,6.6775,6.6787,6.6722,6.6652,6.6618,6.6664,6.6553,6.729,6.7907,6.8197,6.8955,6.9508,6.9805,7.0182,7.0428,7.0375,7.0018,7.0388,7.0298,7.0132,7.0323,6.9941,7.0113,7.0342,7.0228,7.0266,7.0285,7.0323,7.0285,7.0132,7.0094,7.0113,7.0113,7.0228,7.0266,7.04,7.0419,7.0419,7.0419,7.0419,7.0419,7.0419,7.0419,7.0367,7.0353,7.0296,7.0243,7.0167,7.0052,7.0071,6.9656,6.9447,6.926,6.9074,6.8491,6.7965,6.7759,6.7574,6.7428,6.7316,6.722,6.6883,6.66,6.618,6.5587,6.5013,6.4498,6.3775,6.3232,6.268,6.2399,6.2258,6.215,6.215,6.2259,6.2241,6.2494,6.2693,6.3164,6.3418,6.3526,6.3907,6.4015,6.4052,6.3889,6.3708,6.4052,6.4233,6.3581,6.3363,6.3146,6.2911,6.2458,6.215,6.2078,6.2023,6.2023,6.2023,6.215,6.2041,6.2023,6.2132,6.2422,6.2295,6.2458,6.3092,6.3545,6.3852]},{"header":{"parameterUnit":"m.s-1","parameterCategory":1,"la1":31.0,"la2":29.5877,"lo1":-88.7671,"lo2":-86.6584,"dx":0.0162,"dy":0.0185,"nx":115,"ny":88,"refTime":"2022-12-13T18:00:00:Z","depth":0,"parameterNumber":3,"parameterNumberName":"V-component_of_WINDS"},"data":[0.0,0.0,0.0,0.0,0.0,0.0,0.0,0.0,0.0,0.0,0.0,0.0,0.0,0.0,0.0,0.0,0.0,0.0,0.0,0.0,0.0,0.0,0.0,0.0,0.0,0.0,0.0,0.0,0.0,0.0,0.0,0.0,0.0,0.0,0.0,0.0,0.0,0.0,0.0,0.0,0.0,0.0,0.0,0.0,0.0,0.0,0.0,0.0,0.0,0.0,0.0,0.0,0.0,0.0,0.0,0.0,0.0,0.0,0.0,0.0,0.0,0.0,0.0,0.0,0.0,0.0,0.0,0.0,0.0,0.0,0.0,0.0,0.0,0.0,0.0,0.0,0.0,0.0,0.0,0.0,0.0,0.0,0.0,0.0,0.0,0.0,0.0,0.0,0.0,0.0,0.0,0.0,0.0,0.0,0.0,0.0,0.0,0.0,0.0,0.0,0.0,0.0,0.0,0.0,0.0,0.0,0.0,0.0,0.0,0.0,0.0,0.0,0.0,0.0,0.0,0.0,0.0,0.0,0.0,0.0,0.0,0.0,0.0,0.0,0.0,0.0,0.0,0.0,0.0,0.0,0.0,0.0,0.0,0.0,0.0,0.0,0.0,0.0,0.0,0.0,0.0,0.0,0.0,0.0,0.0,0.0,0.0,0.0,0.0,0.0,0.0,0.0,0.0,0.0,0.0,0.0,0.0,0.0,0.0,0.0,0.0,0.0,0.0,0.0,0.0,0.0,0.0,0.0,0.0,0.0,0.0,0.0,0.0,0.0,0.0,0.0,0.0,0.0,0.0,0.0,0.0,0.0,0.0,0.0,0.0,0.0,0.0,0.0,0.0,0.0,0.0,0.0,0.0,0.0,0.0,0.0,0.0,0.0,0.0,0.0,0.0,0.0,0.0,0.0,0.0,0.0,0.0,0.0,0.0,0.0,0.0,0.0,0.0,0.0,0.0,0.0,0.0,0.0,0.0,0.0,0.0,0.0,0.0,0.0,0.0,0.0,0.0,0.0,0.0,0.0,0.0,0.0,0.0,0.0,0.0,0.0,0.0,0.0,0.0,0.0,0.0,0.0,0.0,0.0,0.0,0.0,0.0,0.0,0.0,0.0,0.0,0.0,0.0,0.0,0.0,0.0,0.0,0.0,0.0,0.0,0.0,0.0,0.0,0.0,0.0,0.0,0.0,0.0,0.0,0.0,0.0,0.0,0.0,0.0,0.0,0.0,0.0,0.0,0.0,0.0,0.0,0.0,0.0,0.0,0.0,0.0,0.0,0.0,0.0,0.0,0.0,0.0,0.0,0.0,0.0,0.0,0.0,0.0,0.0,0.0,0.0,0.0,0.0,0.0,0.0,0.0,0.0,0.0,0.0,0.0,0.0,0.0,0.0,0.0,0.0,0.0,0.0,0.0,0.0,0.0,0.0,0.0,0.0,0.0,0.0,0.0,0.0,0.0,0.0,0.0,0.0,0.0,0.0,0.0,0.0,0.0,0.0,0.0,0.0,0.0,0.0,0.0,0.0,0.0,0.0,0.0,0.0,0.0,0.0,0.0,0.0,0.0,0.0,0.0,0.0,0.0,0.0,0.0,0.0,0.0,0.0,0.0,0.0,0.0,0.0,0.0,0.0,0.0,0.0,0.0,0.0,0.0,0.0,0.0,0.0,0.0,0.0,0.0,0.0,0.0,0.0,0.0,0.0,0.0,0.0,0.0,0.0,0.0,0.0,0.0,0.0,0.0,0.0,0.0,0.0,0.0,0.0,0.0,0.0,0.0,0.0,0.0,0.0,0.0,0.0,0.0,0.0,0.0,0.0,0.0,0.0,0.0,0.0,0.0,0.0,0.0,0.0,0.0,0.0,0.0,0.0,0.0,0.0,0.0,0.0,0.0,0.0,0.0,0.0,0.0,0.0,0.0,0.0,0.0,0.0,0.0,0.0,0.0,0.0,0.0,0.0,0.0,0.0,0.0,0.0,0.0,0.0,0.0,0.0,0.0,0.0,0.0,0.0,0.0,0.0,0.0,0.0,0.0,0.0,0.0,0.0,0.0,0.0,0.0,0.0,0.0,0.0,0.0,0.0,0.0,0.0,0.0,0.0,0.0,0.0,0.0,0.0,0.0,0.0,0.0,0.0,0.0,0.0,0.0,0.0,0.0,0.0,0.0,0.0,0.0,0.0,0.0,0.0,0.0,0.0,0.0,0.0,0.0,0.0,0.0,0.0,0.0,0.0,0.0,0.0,0.0,0.0,0.0,0.0,0.0,0.0,0.0,0.0,0.0,0.0,0.0,0.0,0.0,0.0,0.0,0.0,0.0,0.0,0.0,0.0,0.0,0.0,0.0,0.0,0.0,0.0,0.0,0.0,0.0,0.0,0.0,0.0,0.0,0.0,0.0,0.0,0.0,0.0,0.0,0.0,0.0,0.0,0.0,0.0,0.0,0.0,0.0,0.0,0.0,0.0,0.0,0.0,0.0,0.0,0.0,0.0,0.0,0.0,0.0,0.0,0.0,0.0,0.0,0.0,0.0,0.0,0.0,0.0,0.0,0.0,0.0,0.0,0.0,0.0,0.0,0.0,0.0,0.0,0.0,0.0,0.0,0.0,0.0,0.0,0.0,0.0,0.0,0.0,0.0,0.0,0.0,0.0,0.0,0.0,0.0,0.0,0.0,0.0,0.0,0.0,0.0,0.0,0.0,0.0,0.0,0.0,0.0,0.0,0.0,0.0,0.0,0.0,0.0,0.0,0.0,0.0,0.0,0.0,0.0,0.0,0.0,0.0,0.0,0.0,0.0,0.0,0.0,0.0,0.0,0.0,0.0,0.0,0.0,0.0,0.0,0.0,0.0,0.0,0.0,0.0,0.0,0.0,0.0,0.0,0.0,0.0,0.0,0.0,0.0,0.0,0.0,0.0,0.0,0.0,0.0,0.0,0.0,0.0,0.0,0.0,0.0,0.0,0.0,0.0,0.0,0.0,0.0,0.0,0.0,0.0,0.0,0.0,0.0,0.0,0.0,0.0,0.0,0.0,0.0,0.0,0.0,0.0,0.0,0.0,0.0,0.0,0.0,0.0,0.0,0.0,0.0,0.0,0.0,0.0,0.0,0.0,0.0,0.0,0.0,0.0,0.0,0.0,0.0,0.0,0.0,0.0,0.0,0.0,0.0,0.0,0.0,0.0,0.0,0.0,0.0,0.0,0.0,0.0,0.0,0.0,0.0,0.0,0.0,0.0,0.0,0.0,0.0,0.0,0.0,0.0,0.0,0.0,0.0,0.0,0.0,0.0,0.0,0.0,0.0,0.0,0.0,0.0,0.0,0.0,0.0,0.0,0.0,0.0,0.0,0.0,0.0,0.0,0.0,0.0,0.0,0.0,0.0,0.0,0.0,0.0,0.0,0.0,0.0,0.0,0.0,0.0,0.0,0.0,0.0,0.0,0.0,0.0,0.0,0.0,0.0,0.0,0.0,0.0,0.0,0.0,0.0,0.0,0.0,0.0,0.0,0.0,0.0,0.0,0.0,0.0,0.0,0.0,0.0,0.0,0.0,0.0,0.0,0.0,0.0,0.0,0.0,0.0,0.0,0.0,0.0,0.0,0.0,0.0,0.0,0.0,0.0,0.0,0.0,0.0,0.0,0.0,0.0,0.0,0.0,0.0,0.0,0.0,0.0,0.0,0.0,0.0,0.0,0.0,0.0,0.0,0.0,0.0,0.0,0.0,0.0,0.0,0.0,0.0,0.0,0.0,0.0,0.0,0.0,0.0,0.0,0.0,0.0,0.0,0.0,0.0,0.0,0.0,0.0,0.0,0.0,0.0,0.0,0.0,0.0,0.0,0.0,0.0,0.0,0.0,0.0,0.0,0.0,0.0,0.0,0.0,0.0,0.0,0.0,0.0,0.0,0.0,0.0,0.0,0.0,0.0,0.0,0.0,0.0,0.0,0.0,0.0,0.0,0.0,0.0,0.0,0.0,0.0,0.0,0.0,0.0,0.0,0.0,0.0,0.0,0.0,0.0,0.0,0.0,0.0,0.0,0.0,0.0,0.0,0.0,0.0,0.0,0.0,0.0,0.0,0.0,0.0,0.0,0.0,0.0,0.0,0.0,0.0,0.0,0.0,0.0,0.0,0.0,0.0,0.0,0.0,0.0,0.0,0.0,0.0,0.0,0.0,0.0,0.0,0.0,0.0,0.0,0.0,0.0,0.0,0.0,0.0,0.0,0.0,0.0,0.0,0.0,0.0,0.0,0.0,0.0,0.0,0.0,-1.0084,0.0,0.0,0.0,-1.0084,0.0,0.0,0.0,0.0,0.0,0.0,0.0,0.0,0.0,0.0,0.0,0.0,0.0,0.0,0.0,0.0,0.0,0.0,0.0,0.0,0.0,0.0,0.0,0.0,0.0,0.0,0.0,0.0,0.0,0.0,0.0,0.0,0.0,0.0,0.0,0.0,0.0,0.0,0.0,0.0,0.0,0.0,0.0,0.0,0.0,0.0,0.0,0.0,0.0,0.0,0.0,0.0,0.0,0.0,0.0,0.0,0.0,0.0,0.0,0.0,0.0,0.0,0.0,0.0,0.0,0.0,0.0,0.0,0.0,0.0,0.0,0.0,0.0,0.0,0.0,0.0,0.0,0.0,0.0,0.0,0.0,0.0,0.0,0.0,0.0,0.0,0.0,0.0,0.0,0.0,0.0,0.0,0.0,0.0,0.0,0.0,0.0,0.0,0.0,0.0,0.0,0.0,0.0,0.0,0.0,0.0,0.0,0.0,0.0,0.0,-0.9905,-0.988,-0.988,-0.988,-0.988,0.0,0.0,0.0,0.0,0.0,0.0,0.0,0.0,0.0,0.0,0.0,0.0,0.0,0.0,0.0,0.0,0.0,0.0,0.0,0.0,0.0,0.0,0.0,0.0,0.0,0.0,0.0,0.0,0.0,0.0,0.0,0.0,0.0,0.0,0.0,0.0,0.0,0.0,0.0,0.0,0.0,0.0,0.0,0.0,0.0,0.0,0.0,0.0,0.0,0.0,0.0,0.0,0.0,0.0,0.0,0.0,0.0,0.0,0.0,0.0,0.0,0.0,0.0,0.0,0.0,0.0,0.0,0.0,0.0,0.0,0.0,0.0,0.0,0.0,0.0,0.0,0.0,0.0,0.0,0.0,0.0,0.0,0.0,0.0,0.0,0.0,0.0,0.0,0.0,0.0,0.0,0.0,0.0,0.0,0.0,0.0,0.0,0.0,0.0,0.0,0.0,0.0,0.0,0.0,0.0,0.0,0.0,0.0,0.0,0.0,0.0,0.0,-1.0052,-0.999,-0.9895,0.0,0.0,0.0,0.0,0.0,0.0,0.0,0.0,0.0,0.0,0.0,0.0,0.0,0.0,0.0,0.0,0.0,0.0,0.0,0.0,0.0,0.0,0.0,0.0,0.0,0.0,0.0,0.0,0.0,0.0,0.0,0.0,0.0,0.0,0.0,0.0,0.0,0.0,0.0,0.0,0.0,0.0,0.0,0.0,0.0,0.0,0.0,0.0,0.0,0.0,0.0,0.0,0.0,0.0,0.0,0.0,0.0,0.0,0.0,0.0,0.0,0.0,0.0,0.0,0.0,0.0,0.0,0.0,0.0,0.0,0.0,0.0,0.0,0.0,0.0,0.0,0.0,0.0,0.0,0.0,0.0,0.0,0.0,0.0,0.0,0.0,0.0,0.0,0.0,0.0,0.0,0.0,0.0,0.0,0.0,0.0,0.0,0.0,0.0,0.0,0.0,0.0,0.0,0.0,0.0,0.0,0.0,0.0,0.0,0.0,-1.0566,-1.104,-1.1113,0.0,-1.0432,0.0,0.0,0.0,0.0,0.0,0.0,0.0,0.0,0.0,0.0,0.0,0.0,0.0,0.0,0.0,0.0,0.0,0.0,0.0,0.0,0.0,0.0,0.0,0.0,0.0,0.0,0.0,0.0,0.0,0.0,0.0,0.0,0.0,0.0,0.0,0.0,0.0,0.0,0.0,0.0,0.0,0.0,0.0,0.0,0.0,0.0,0.0,0.0,0.0,0.0,0.0,0.0,0.0,0.0,0.0,0.0,0.0,0.0,0.0,0.0,0.0,0.0,0.0,0.0,0.0,0.0,0.0,0.0,0.0,0.0,0.0,0.0,0.0,0.0,0.0,0.0,0.0,0.0,0.0,0.0,0.0,0.0,0.0,0.0,0.0,0.0,0.0,0.0,0.0,0.0,0.0,0.0,0.0,0.0,0.0,0.0,0.0,0.0,0.0,0.0,0.0,0.0,0.0,0.0,0.0,0.0,0.0,0.0,0.0,0.0,-1.0737,-1.0951,-1.0982,-1.0731,0.0,0.0,0.0,0.0,0.0,0.0,0.0,0.0,0.0,0.0,0.0,0.0,0.0,0.0,0.0,0.0,0.0,0.0,0.0,0.0,0.0,0.0,0.0,0.0,0.0,0.0,0.0,0.0,0.0,0.0,0.0,0.0,0.0,0.0,0.0,0.0,0.0,0.0,0.0,0.0,0.0,0.0,0.0,0.0,0.0,0.0,0.0,0.0,0.0,0.0,0.0,0.0,0.0,0.0,0.0,0.0,0.0,0.0,0.0,0.0,0.0,0.0,0.0,0.0,0.0,0.0,0.0,0.0,0.0,0.0,0.0,0.0,0.0,0.0,0.0,0.0,0.0,0.0,0.0,0.0,0.0,0.0,0.0,0.0,0.0,0.0,0.0,0.0,0.0,0.0,0.0,0.0,0.0,0.0,0.0,0.0,0.0,0.0,0.0,0.0,0.0,0.0,0.0,0.0,0.0,0.0,0.0,0.0,0.0,0.0,-1.0691,-1.0979,-1.1139,-1.1011,-1.0688,-1.0177,0.0,0.0,0.0,0.0,0.0,0.0,0.0,0.0,0.0,0.0,0.0,0.0,0.0,0.0,0.0,0.0,0.0,0.0,0.0,0.0,0.0,0.0,0.0,0.0,0.0,0.0,0.0,0.0,0.0,0.0,0.0,0.0,0.0,0.0,0.0,0.0,0.0,0.0,0.0,0.0,0.0,0.0,0.0,0.0,0.0,0.0,0.0,0.0,0.0,0.0,0.0,0.0,0.0,0.0,0.0,0.0,0.0,0.0,0.0,0.0,0.0,0.0,0.0,0.0,0.0,0.0,0.0,0.0,0.0,0.0,0.0,0.0,0.0,0.0,0.0,0.0,0.0,0.0,0.0,0.0,0.0,0.0,0.0,0.0,0.0,0.0,0.0,0.0,0.0,0.0,0.0,0.0,0.0,0.0,0.0,0.0,0.0,0.0,0.0,0.0,0.0,0.0,0.0,0.0,0.0,0.0,0.0,0.0,-1.1081,-1.1206,-1.1457,-1.201,-1.1549,-1.1067,0.0,0.0,0.0,0.0,0.0,0.0,0.0,0.0,0.0,0.0,0.0,0.0,0.0,0.0,0.0,0.0,0.0,0.0,0.0,0.0,0.0,0.0,0.0,0.0,0.0,0.0,0.0,0.0,0.0,0.0,0.0,0.0,0.0,0.0,0.0,0.0,0.0,0.0,0.0,0.0,0.0,0.0,0.0,0.0,0.0,0.0,0.0,0.0,0.0,0.0,0.0,0.0,0.0,0.0,0.0,0.0,0.0,0.0,0.0,0.0,0.0,0.0,0.0,0.0,0.0,0.0,0.0,0.0,0.0,0.0,0.0,0.0,0.0,0.0,0.0,0.0,0.0,0.0,0.0,0.0,0.0,0.0,0.0,0.0,0.0,0.0,0.0,0.0,0.0,0.0,0.0,0.0,0.0,0.0,0.0,0.0,0.0,0.0,0.0,0.0,0.0,0.0,0.0,0.0,0.0,0.0,0.0,0.0,0.0,-1.1091,-1.1698,-1.2114,-1.2283,-1.2099,-1.1592,0.0,0.0,0.0,0.0,0.0,0.0,0.0,0.0,0.0,0.0,0.0,0.0,0.0,0.0,0.0,0.0,0.0,0.0,0.0,0.0,0.0,0.0,0.0,0.0,0.0,0.0,0.0,0.0,0.0,0.0,0.0,0.0,0.0,0.0,0.0,0.0,0.0,0.0,0.0,0.0,0.0,0.0,0.0,0.0,0.0,0.0,0.0,0.0,0.0,0.0,0.0,0.0,0.0,0.0,0.0,0.0,0.0,0.0,0.0,0.0,0.0,0.0,0.0,0.0,0.0,0.0,0.0,0.0,0.0,0.0,0.0,0.0,0.0,0.0,0.0,0.0,0.0,0.0,0.0,0.0,0.0,0.0,0.0,0.0,0.0,0.0,0.0,0.0,0.0,0.0,0.0,0.0,0.0,0.0,0.0,0.0,0.0,0.0,0.0,0.0,0.0,0.0,0.0,0.0,0.0,0.0,0.0,0.0,0.0,-1.1516,-1.2179,-1.252,-1.2451,-1.2338,-1.1801,0.0,0.0,0.0,0.0,0.0,0.0,0.0,0.0,0.0,0.0,0.0,0.0,0.0,0.0,0.0,0.0,0.0,0.0,0.0,0.0,0.0,0.0,0.0,0.0,0.0,0.0,0.0,0.0,0.0,0.0,0.0,0.0,0.0,0.0,0.0,0.0,0.0,0.0,0.0,0.0,0.0,0.0,0.0,0.0,0.0,0.0,0.0,0.0,0.0,0.0,0.0,0.0,0.0,0.0,0.0,0.0,0.0,0.0,0.0,0.0,0.0,0.0,0.0,0.0,0.0,0.0,0.0,0.0,0.0,0.0,0.0,0.0,0.0,0.0,0.0,0.0,0.0,0.0,0.0,0.0,0.0,0.0,0.0,0.0,0.0,0.0,0.0,0.0,0.0,0.0,0.0,0.0,0.0,0.0,0.0,0.0,0.0,0.0,0.0,0.0,0.0,0.0,0.0,0.0,0.0,0.0,0.0,0.0,-1.1662,-1.2552,-1.2616,-1.2637,-1.2595,-1.2201,-1.1722,0.0,0.0,0.0,0.0,0.0,0.0,0.0,0.0,0.0,0.0,0.0,0.0,0.0,0.0,0.0,0.0,0.0,0.0,0.0,0.0,0.0,0.0,0.0,0.0,0.0,0.0,0.0,0.0,0.0,0.0,0.0,0.0,0.0,0.0,0.0,0.0,0.0,0.0,0.0,0.0,0.0,0.0,0.0,0.0,0.0,0.0,0.0,0.0,0.0,0.0,0.0,0.0,0.0,0.0,0.0,0.0,0.0,0.0,0.0,0.0,0.0,0.0,0.0,0.0,0.0,0.0,0.0,0.0,0.0,0.0,0.0,0.0,0.0,0.0,0.0,0.0,0.0,0.0,0.0,0.0,0.0,0.0,0.0,0.0,0.0,0.0,0.0,0.0,0.0,0.0,0.0,0.0,0.0,0.0,0.0,0.0,0.0,0.0,0.0,0.0,0.0,0.0,0.0,0.0,0.0,0.0,0.0,0.0,0.0,-1.3517,-1.3415,-1.3369,-1.3426,-1.3198,-1.2559,0.0,0.0,0.0,0.0,0.0,0.0,0.0,0.0,0.0,0.0,0.0,0.0,0.0,0.0,0.0,0.0,0.0,0.0,0.0,0.0,0.0,0.0,0.0,0.0,0.0,0.0,0.0,0.0,0.0,0.0,0.0,0.0,0.0,0.0,0.0,0.0,0.0,0.0,0.0,0.0,0.0,0.0,0.0,0.0,0.0,0.0,0.0,0.0,0.0,0.0,0.0,0.0,0.0,0.0,0.0,0.0,0.0,0.0,0.0,0.0,0.0,0.0,0.0,0.0,0.0,0.0,0.0,0.0,0.0,0.0,0.0,0.0,0.0,0.0,0.0,0.0,0.0,0.0,0.0,0.0,0.0,0.0,0.0,0.0,0.0,0.0,0.0,0.0,0.0,0.0,0.0,0.0,0.0,0.0,0.0,0.0,0.0,0.0,0.0,0.0,0.0,0.0,0.0,0.0,0.0,0.0,0.0,0.0,0.0,-1.4426,-1.4171,-1.4019,-1.4089,-1.3652,-1.3006,-1.2003,0.0,0.0,0.0,0.0,0.0,0.0,0.0,0.0,0.0,0.0,0.0,0.0,0.0,0.0,0.0,0.0,0.0,0.0,0.0,0.0,0.0,0.0,0.0,0.0,0.0,0.0,0.0,0.0,0.0,0.0,0.0,0.0,0.0,0.0,0.0,0.0,0.0,0.0,0.0,0.0,0.0,0.0,0.0,0.0,0.0,0.0,0.0,0.0,0.0,0.0,0.0,0.0,0.0,0.0,0.0,0.0,0.0,0.0,0.0,0.0,0.0,0.0,0.0,0.0,0.0,0.0,0.0,0.0,0.0,0.0,0.0,0.0,0.0,0.0,0.0,0.0,0.0,0.0,0.0,0.0,0.0,0.0,0.0,0.0,0.0,0.0,0.0,0.0,0.0,0.0,0.0,0.0,0.0,0.0,0.0,0.0,0.0,0.0,0.0,0.0,0.0,0.0,0.0,0.0,0.0,0.0,0.0,0.0,-1.5205,-1.478,-1.455,-1.4543,-1.3761,-1.309,0.0,0.0,0.0,0.0,0.0,0.0,0.0,0.0,0.0,0.0,0.0,0.0,0.0,0.0,0.0,0.0,0.0,0.0,0.0,0.0,0.0,0.0,0.0,0.0,0.0,0.0,0.0,0.0,0.0,0.0,0.0,0.0,0.0,0.0,0.0,0.0,0.0,0.0,0.0,0.0,0.0,0.0,0.0,0.0,0.0,0.0,0.0,0.0,0.0,0.0,0.0,0.0,0.0,0.0,0.0,0.0,0.0,0.0,0.0,0.0,0.0,0.0,0.0,0.0,0.0,0.0,0.0,0.0,0.0,0.0,0.0,0.0,0.0,0.0,0.0,0.0,0.0,0.0,0.0,0.0,0.0,0.0,0.0,0.0,0.0,0.0,0.0,0.0,0.0,0.0,0.0,0.0,0.0,0.0,0.0,0.0,0.0,0.0,0.0,0.0,0.0,0.0,0.0,0.0,0.0,0.0,0.0,0.0,0.0,-1.5302,-1.541,-1.5321,-1.5044,-1.4686,-1.4049,0.0,0.0,0.0,0.0,0.0,0.0,0.0,0.0,0.0,0.0,0.0,0.0,0.0,0.0,0.0,0.0,0.0,0.0,0.0,0.0,0.0,0.0,0.0,0.0,0.0,0.0,0.0,0.0,0.0,0.0,0.0,0.0,0.0,0.0,0.0,0.0,0.0,0.0,0.0,0.0,0.0,0.0,0.0,0.0,0.0,0.0,0.0,0.0,0.0,0.0,0.0,0.0,0.0,0.0,0.0,0.0,0.0,0.0,0.0,0.0,0.0,0.0,0.0,0.0,0.0,0.0,0.0,0.0,0.0,0.0,0.0,0.0,0.0,0.0,0.0,0.0,0.0,0.0,0.0,0.0,0.0,0.0,0.0,0.0,0.0,0.0,0.0,0.0,0.0,0.0,0.0,0.0,0.0,0.0,0.0,0.0,0.0,0.0,0.0,0.0,0.0,0.0,0.0,0.0,0.0,0.0,0.0,0.0,-1.5019,-1.5584,-1.5837,-1.5808,-1.5487,-1.5129,-1.4398,0.0,0.0,0.0,0.0,0.0,0.0,0.0,0.0,0.0,0.0,0.0,0.0,0.0,0.0,0.0,0.0,0.0,0.0,0.0,0.0,0.0,0.0,0.0,0.0,0.0,0.0,0.0,0.0,0.0,0.0,0.0,0.0,0.0,0.0,0.0,0.0,0.0,0.0,0.0,0.0,0.0,0.0,0.0,0.0,0.0,0.0,0.0,0.0,0.0,0.0,0.0,0.0,0.0,0.0,0.0,0.0,0.0,0.0,0.0,0.0,0.0,0.0,0.0,0.0,0.0,0.0,0.0,0.0,0.0,0.0,0.0,0.0,0.0,0.0,0.0,0.0,0.0,0.0,0.0,0.0,0.0,0.0,0.0,0.0,0.0,0.0,0.0,0.0,0.0,0.0,0.0,0.0,0.0,0.0,0.0,0.0,0.0,0.0,0.0,0.0,0.0,0.0,0.0,0.0,0.0,0.0,0.0,0.0,-1.5515,-1.5832,-1.6097,-1.6094,-1.5854,-1.527,-1.4393,0.0,0.0,0.0,0.0,0.0,0.0,0.0,0.0,0.0,0.0,0.0,0.0,0.0,0.0,0.0,0.0,0.0,0.0,0.0,0.0,0.0,0.0,0.0,0.0,0.0,0.0,0.0,0.0,0.0,0.0,0.0,0.0,0.0,0.0,0.0,0.0,0.0,0.0,0.0,0.0,0.0,0.0,0.0,0.0,0.0,0.0,0.0,0.0,0.0,0.0,0.0,0.0,0.0,0.0,0.0,0.0,0.0,0.0,0.0,0.0,0.0,0.0,0.0,0.0,0.0,0.0,0.0,0.0,0.0,0.0,0.0,0.0,0.0,0.0,0.0,0.0,0.0,0.0,0.0,0.0,0.0,0.0,0.0,0.0,0.0,0.0,0.0,0.0,0.0,0.0,0.0,0.0,0.0,0.0,0.0,0.0,0.0,0.0,0.0,0.0,0.0,0.0,0.0,0.0,0.0,0.0,0.0,0.0,-1.5369,-1.615,-1.6213,-1.6108,-1.5748,-1.5386,-1.4721,0.0,0.0,0.0,0.0,0.0,0.0,0.0,0.0,0.0,0.0,0.0,0.0,0.0,0.0,0.0,0.0,0.0,0.0,0.0,0.0,0.0,0.0,0.0,0.0,0.0,0.0,0.0,0.0,0.0,0.0,0.0,0.0,0.0,0.0,0.0,0.0,0.0,0.0,0.0,0.0,0.0,0.0,0.0,0.0,0.0,0.0,0.0,0.0,-1.3137,0.0,0.0,0.0,0.0,0.0,0.0,0.0,0.0,0.0,0.0,0.0,0.0,0.0,0.0,0.0,0.0,0.0,0.0,0.0,0.0,0.0,0.0,0.0,0.0,0.0,0.0,0.0,0.0,0.0,0.0,0.0,0.0,0.0,0.0,0.0,0.0,0.0,0.0,0.0,0.0,0.0,0.0,0.0,0.0,0.0,0.0,0.0,0.0,0.0,0.0,0.0,0.0,0.0,0.0,0.0,0.0,0.0,0.0,0.0,-1.546,-1.6142,-1.6215,-1.604,-1.573,-1.5212,-1.4568,0.0,0.0,0.0,0.0,0.0,0.0,0.0,0.0,0.0,0.0,0.0,0.0,0.0,0.0,0.0,0.0,0.0,0.0,0.0,0.0,0.0,0.0,0.0,0.0,0.0,0.0,0.0,0.0,0.0,0.0,0.0,0.0,0.0,0.0,0.0,0.0,0.0,0.0,0.0,0.0,0.0,0.0,0.0,0.0,0.0,0.0,0.0,0.0,0.0,0.0,0.0,0.0,0.0,0.0,0.0,0.0,0.0,0.0,0.0,0.0,0.0,0.0,0.0,0.0,0.0,0.0,0.0,0.0,0.0,0.0,0.0,0.0,0.0,0.0,0.0,0.0,0.0,0.0,0.0,0.0,0.0,0.0,0.0,0.0,0.0,0.0,0.0,0.0,0.0,0.0,0.0,0.0,0.0,0.0,0.0,0.0,0.0,0.0,0.0,0.0,0.0,0.0,0.0,0.0,0.0,0.0,0.0,-1.5132,-1.5619,-1.6002,-1.6114,-1.6067,-1.5803,-1.4933,-1.4349,-1.4022,0.0,0.0,0.0,0.0,0.0,0.0,0.0,0.0,0.0,0.0,0.0,0.0,0.0,0.0,0.0,0.0,0.0,0.0,0.0,0.0,0.0,0.0,0.0,0.0,0.0,0.0,0.0,0.0,0.0,0.0,0.0,0.0,0.0,0.0,0.0,0.0,0.0,0.0,-1.0442,-1.2076,0.0,0.0,0.0,0.0,0.0,0.0,0.0,0.0,-1.5139,0.0,0.0,0.0,0.0,0.0,0.0,0.0,0.0,0.0,0.0,0.0,0.0,0.0,0.0,0.0,0.0,0.0,0.0,0.0,0.0,0.0,0.0,0.0,0.0,0.0,0.0,0.0,0.0,0.0,0.0,0.0,0.0,0.0,0.0,0.0,0.0,0.0,0.0,0.0,0.0,0.0,0.0,0.0,0.0,0.0,0.0,0.0,0.0,0.0,0.0,0.0,0.0,0.0,0.0,0.0,0.0,-1.4498,-1.5254,-1.578,-1.6012,-1.6294,-1.6187,-1.574,-1.5127,-1.4563,-1.4055,0.0,0.0,0.0,0.0,0.0,0.0,0.0,0.0,0.0,0.0,0.0,0.0,0.0,0.0,0.0,0.0,0.0,0.0,0.0,0.0,0.0,0.0,0.0,0.0,0.0,0.0,0.0,0.0,0.0,0.0,0.0,0.0,0.0,0.0,0.0,0.0,0.0,0.0,0.0,-1.3514,-1.4437,0.0,0.0,0.0,0.0,0.0,0.0,0.0,0.0,-1.6297,0.0,0.0,0.0,0.0,0.0,0.0,0.0,0.0,0.0,0.0,0.0,0.0,0.0,0.0,0.0,0.0,0.0,0.0,0.0,0.0,0.0,0.0,0.0,0.0,0.0,0.0,0.0,0.0,0.0,0.0,0.0,0.0,0.0,0.0,0.0,0.0,0.0,0.0,0.0,0.0,0.0,0.0,0.0,0.0,0.0,0.0,0.0,0.0,0.0,0.0,0.0,0.0,0.0,0.0,0.0,-1.4772,-1.5204,-1.571,-1.6105,-1.6059,-1.5818,-1.547,-1.4759,-1.4175,0.0,0.0,0.0,0.0,0.0,0.0,0.0,0.0,0.0,0.0,0.0,0.0,0.0,0.0,0.0,0.0,0.0,0.0,0.0,0.0,0.0,0.0,0.0,0.0,0.0,0.0,0.0,0.0,0.0,0.0,0.0,0.0,0.0,0.0,0.0,0.0,0.0,0.0,0.0,0.0,-1.4373,-1.5186,-1.5323,0.0,0.0,0.0,0.0,0.0,0.0,-1.6381,-1.6421,0.0,0.0,0.0,0.0,0.0,0.0,0.0,0.0,0.0,0.0,0.0,0.0,0.0,0.0,0.0,0.0,0.0,0.0,0.0,0.0,0.0,0.0,0.0,0.0,0.0,0.0,0.0,0.0,0.0,0.0,0.0,0.0,0.0,0.0,0.0,0.0,0.0,0.0,0.0,0.0,0.0,0.0,0.0,0.0,0.0,0.0,0.0,0.0,0.0,0.0,0.0,0.0,0.0,0.0,0.0,-1.4992,-1.5141,-1.5552,-1.6162,-1.5872,-1.5591,-1.5245,-1.4536,-1.3863,0.0,0.0,0.0,0.0,0.0,0.0,0.0,0.0,0.0,0.0,0.0,0.0,0.0,0.0,0.0,0.0,0.0,0.0,0.0,0.0,0.0,0.0,0.0,0.0,0.0,0.0,0.0,0.0,0.0,0.0,0.0,0.0,0.0,0.0,0.0,0.0,0.0,0.0,0.0,0.0,0.0,-1.576,-1.5756,-1.5991,0.0,0.0,0.0,0.0,-1.6446,-1.6587,0.0,0.0,0.0,0.0,0.0,0.0,0.0,0.0,0.0,0.0,0.0,0.0,0.0,0.0,0.0,0.0,0.0,0.0,0.0,0.0,0.0,0.0,0.0,0.0,0.0,0.0,0.0,0.0,0.0,0.0,0.0,0.0,0.0,0.0,0.0,0.0,0.0,0.0,0.0,0.0,0.0,0.0,0.0,0.0,0.0,0.0,0.0,0.0,0.0,0.0,0.0,0.0,0.0,0.0,0.0,0.0,-1.4901,-1.5245,-1.5545,-1.5928,-1.5982,-1.5886,-1.5556,-1.4977,-1.4351,0.0,0.0,0.0,0.0,0.0,0.0,0.0,0.0,0.0,0.0,0.0,0.0,0.0,0.0,0.0,0.0,0.0,0.0,0.0,0.0,0.0,0.0,0.0,0.0,0.0,0.0,0.0,0.0,0.0,0.0,0.0,0.0,0.0,0.0,0.0,0.0,0.0,0.0,0.0,0.0,0.0,-1.6201,-1.596,-1.6156,-1.6394,0.0,0.0,-1.6773,-1.7264,-1.7379,0.0,0.0,0.0,0.0,0.0,0.0,0.0,0.0,0.0,0.0,0.0,0.0,0.0,0.0,0.0,0.0,0.0,0.0,0.0,0.0,0.0,0.0,0.0,0.0,0.0,0.0,0.0,0.0,0.0,0.0,0.0,0.0,0.0,0.0,0.0,0.0,0.0,0.0,0.0,0.0,0.0,0.0,0.0,0.0,0.0,0.0,0.0,0.0,0.0,0.0,0.0,0.0,0.0,0.0,0.0,-1.402,-1.5,-1.5677,-1.6071,-1.6314,-1.6209,-1.6035,-1.5695,-1.5038,-1.4244,0.0,0.0,0.0,0.0,0.0,0.0,0.0,0.0,0.0,0.0,0.0,0.0,0.0,0.0,0.0,0.0,0.0,0.0,0.0,0.0,0.0,0.0,0.0,0.0,0.0,0.0,0.0,0.0,0.0,0.0,0.0,0.0,0.0,0.0,0.0,0.0,0.0,0.0,0.0,0.0,0.0,0.0,-1.6306,-1.627,0.0,0.0,0.0,-1.6723,-1.7261,0.0,0.0,0.0,0.0,0.0,0.0,0.0,0.0,0.0,0.0,0.0,0.0,0.0,0.0,0.0,0.0,0.0,0.0,0.0,0.0,0.0,0.0,0.0,0.0,0.0,0.0,0.0,0.0,0.0,0.0,0.0,0.0,0.0,0.0,0.0,0.0,0.0,0.0,0.0,0.0,0.0,0.0,0.0,0.0,0.0,0.0,0.0,0.0,0.0,0.0,0.0,0.0,0.0,0.0,0.0,0.0,0.0,-1.5185,-1.5901,-1.6385,-1.6612,-1.6361,-1.6149,-1.5896,-1.5117,0.0,0.0,0.0,0.0,0.0,0.0,0.0,0.0,0.0,0.0,0.0,0.0,0.0,0.0,0.0,0.0,0.0,0.0,0.0,0.0,0.0,0.0,0.0,0.0,0.0,0.0,0.0,-0.9393,0.0,0.0,0.0,0.0,0.0,0.0,0.0,0.0,0.0,0.0,0.0,0.0,0.0,0.0,-1.5877,-1.6289,-1.636,-1.6455,0.0,0.0,-1.6932,-1.7389,-1.7355,-1.7238,0.0,0.0,0.0,0.0,0.0,0.0,0.0,0.0,0.0,0.0,0.0,0.0,0.0,0.0,0.0,0.0,0.0,0.0,0.0,0.0,0.0,0.0,0.0,0.0,0.0,0.0,0.0,0.0,0.0,0.0,0.0,0.0,0.0,0.0,0.0,0.0,0.0,0.0,0.0,0.0,0.0,0.0,0.0,0.0,0.0,0.0,0.0,0.0,0.0,0.0,0.0,0.0,0.0,0.0,-1.4238,-1.5533,-1.5718,-1.6055,-1.6675,-1.6514,-1.6419,-1.6389,-1.5694,-1.4976,0.0,0.0,0.0,0.0,0.0,0.0,0.0,0.0,0.0,0.0,0.0,0.0,0.0,0.0,0.0,0.0,0.0,0.0,0.0,0.0,0.0,0.0,0.0,0.0,0.0,0.0,0.0,0.0,0.0,0.0,0.0,0.0,0.0,0.0,0.0,0.0,0.0,0.0,0.0,0.0,0.0,-1.5865,-1.5773,-1.619,-1.6659,0.0,-1.7139,-1.727,-1.8046,-1.7734,-1.7484,-1.7717,0.0,0.0,0.0,0.0,0.0,0.0,0.0,0.0,0.0,0.0,0.0,0.0,0.0,0.0,0.0,0.0,0.0,0.0,0.0,0.0,0.0,0.0,0.0,0.0,0.0,0.0,0.0,0.0,0.0,0.0,0.0,0.0,0.0,0.0,0.0,0.0,0.0,0.0,0.0,0.0,0.0,0.0,0.0,0.0,0.0,0.0,0.0,0.0,0.0,0.0,0.0,0.0,0.0,-1.4689,-1.5613,-1.6077,-1.6491,-1.6832,-1.6764,-1.666,-1.6667,-1.5879,-1.5252,0.0,0.0,0.0,0.0,0.0,0.0,0.0,0.0,0.0,0.0,0.0,0.0,0.0,0.0,0.0,0.0,0.0,0.0,0.0,0.0,0.0,0.0,0.0,0.0,0.0,0.0,0.0,0.0,-1.3186,-1.3758,-1.4172,0.0,0.0,0.0,0.0,0.0,0.0,0.0,0.0,0.0,0.0,-1.5948,-1.646,-1.6693,0.0,0.0,-1.7714,-1.7847,-1.8327,-1.828,-1.8269,-1.8455,-1.8231,0.0,0.0,0.0,0.0,0.0,0.0,0.0,0.0,0.0,0.0,0.0,0.0,0.0,0.0,0.0,0.0,0.0,0.0,0.0,0.0,0.0,0.0,0.0,0.0,0.0,0.0,0.0,0.0,0.0,0.0,0.0,0.0,0.0,0.0,0.0,0.0,0.0,0.0,0.0,0.0,0.0,0.0,0.0,0.0,0.0,0.0,0.0,0.0,0.0,0.0,0.0,0.0,-1.4982,-1.5715,-1.6462,-1.7002,-1.7135,-1.7238,-1.7289,-1.7267,-1.6397,-1.5746,0.0,0.0,0.0,0.0,0.0,0.0,0.0,0.0,0.0,0.0,0.0,0.0,0.0,0.0,0.0,0.0,0.0,0.0,0.0,0.0,0.0,0.0,0.0,0.0,0.0,0.0,0.0,0.0,-1.3781,-1.4213,-1.404,0.0,0.0,0.0,0.0,0.0,0.0,0.0,0.0,0.0,0.0,-1.6353,-1.7,-1.7335,-1.7712,-1.8017,-1.8185,-1.8451,-1.8715,-1.8709,-1.8734,-1.8987,0.0,0.0,0.0,0.0,0.0,0.0,0.0,0.0,0.0,0.0,0.0,0.0,0.0,0.0,0.0,0.0,0.0,0.0,0.0,0.0,0.0,0.0,0.0,0.0,0.0,0.0,0.0,-0.8561,0.0,0.0,-0.8004,0.0,0.0,0.0,0.0,0.0,0.0,0.0,0.0,0.0,0.0,0.0,0.0,0.0,0.0,0.0,0.0,0.0,0.0,0.0,0.0,0.0,0.0,-1.5109,-1.5906,-1.6821,-1.7457,-1.7779,-1.8108,-1.8247,-1.8225,-1.7464,-1.67,-1.6176,0.0,0.0,0.0,0.0,0.0,0.0,0.0,0.0,0.0,0.0,0.0,0.0,0.0,0.0,0.0,0.0,0.0,0.0,0.0,0.0,0.0,0.0,0.0,0.0,0.0,0.0,-1.3407,-1.4158,-1.4371,0.0,0.0,0.0,0.0,0.0,0.0,0.0,0.0,0.0,-1.638,-1.6746,-1.7089,-1.7331,-1.8136,-1.8756,-1.8804,-1.8812,-1.8996,-1.9455,-1.896,-1.8646,0.0,0.0,0.0,0.0,0.0,0.0,0.0,0.0,0.0,0.0,0.0,0.0,0.0,0.0,0.0,0.0,0.0,0.0,0.0,0.0,0.0,0.0,0.0,0.0,0.0,0.0,0.0,-0.9016,-0.8851,0.0,0.0,0.0,0.0,0.0,0.0,0.0,0.0,0.0,0.0,0.0,-1.1713,-1.238,0.0,0.0,0.0,0.0,0.0,0.0,0.0,0.0,0.0,0.0,0.0,0.0,-1.5679,-1.6806,-1.7165,-1.7589,-1.8116,-1.8247,-1.8299,-1.8299,-1.7702,-1.6766,-1.5681,0.0,0.0,0.0,0.0,0.0,0.0,0.0,0.0,0.0,0.0,0.0,0.0,0.0,0.0,0.0,0.0,0.0,0.0,0.0,0.0,0.0,0.0,0.0,0.0,0.0,-1.3346,0.0,0.0,0.0,0.0,0.0,0.0,0.0,0.0,0.0,0.0,0.0,-1.6489,-1.759,-1.7717,-1.7999,-1.8648,-1.8962,-1.9272,0.0,0.0,0.0,0.0,0.0,0.0,0.0,0.0,0.0,0.0,0.0,0.0,0.0,0.0,-1.9607,-1.8859,-1.874,-1.874,-1.8731,0.0,0.0,0.0,0.0,0.0,0.0,0.0,0.0,0.0,0.0,0.0,0.0,0.0,0.0,-0.9378,0.0,-0.9556,0.0,0.0,0.0,0.0,0.0,0.0,0.0,0.0,-1.1758,-1.2129,-1.2487,-1.309,-1.3595,0.0,-1.4232,-1.4034,0.0,0.0,0.0,0.0,0.0,0.0,0.0,0.0,-1.6389,-1.7304,-1.7779,-1.8211,-1.8628,-1.8862,-1.8972,-1.8972,-1.8245,-1.7196,-1.5732,-1.477,-1.3935,0.0,0.0,0.0,0.0,0.0,0.0,0.0,0.0,0.0,0.0,0.0,0.0,0.0,0.0,0.0,0.0,0.0,0.0,0.0,0.0,0.0,0.0,0.0,-1.4124,0.0,0.0,0.0,0.0,0.0,0.0,0.0,0.0,0.0,-1.6062,-1.6611,-1.7434,-1.8529,-1.8613,-1.8859,-1.9606,0.0,0.0,0.0,0.0,0.0,0.0,0.0,-2.1523,-2.1807,-2.1707,-2.1631,-2.1735,-2.1621,-2.1447,-2.1456,0.0,0.0,-2.0027,-1.9823,-1.9823,-1.9823,-1.9832,-1.991,-2.044,-2.0461,-2.0509,0.0,0.0,0.0,0.0,0.0,0.0,0.0,0.0,-0.9803,-0.9716,0.0,-1.01,0.0,0.0,0.0,0.0,-1.1353,-1.122,0.0,0.0,-1.226,-1.2759,-1.3447,-1.3568,-1.4022,-1.4894,-1.4641,-1.4994,-1.5889,-1.5025,0.0,0.0,0.0,0.0,0.0,0.0,-1.7047,-1.7443,-1.8621,-1.9279,-1.9316,-1.9901,-2.0223,-2.0085,-1.9056,-1.7798,-1.6444,-1.5732,-1.5023,-1.4182,-1.348,0.0,0.0,0.0,0.0,0.0,0.0,0.0,0.0,0.0,0.0,0.0,0.0,0.0,0.0,0.0,0.0,0.0,0.0,0.0,0.0,-1.3945,0.0,0.0,0.0,0.0,0.0,0.0,0.0,0.0,0.0,0.0,-1.6967,-1.766,-1.8459,-1.9171,0.0,0.0,0.0,0.0,-2.1179,-2.1828,-2.1893,-2.2086,-2.2607,-2.2408,-2.2376,-2.2578,0.0,0.0,-2.2687,-2.2687,-2.2687,-2.2696,-2.2696,-2.2356,-2.1301,-2.1066,-2.0995,-2.0905,-2.0905,-2.1169,-2.194,-2.1977,-2.2224,-1.1023,0.0,0.0,0.0,0.0,-1.0689,-1.0528,-1.0439,-1.0355,-1.035,-1.0355,-1.0606,0.0,0.0,0.0,0.0,0.0,0.0,-1.1669,-1.2128,-1.2639,-1.3125,-1.3494,-1.4264,-1.4839,-1.5322,-1.5822,-1.6409,-1.7056,-1.7015,-1.6726,-1.6323,0.0,0.0,0.0,0.0,-1.7925,-1.8686,-1.9089,-1.9499,-1.9952,-2.0135,-2.0121,-1.9895,-1.8964,-1.8206,-1.764,-1.6545,-1.5812,-1.5337,-1.4784,0.0,0.0,0.0,0.0,0.0,0.0,0.0,0.0,0.0,0.0,0.0,0.0,0.0,0.0,0.0,0.0,0.0,0.0,0.0,-1.4633,-1.5196,-1.558,0.0,0.0,0.0,0.0,0.0,0.0,0.0,0.0,0.0,-1.8703,-1.9082,-1.9622,0.0,0.0,-2.1012,-2.1449,-2.16,-2.1801,-2.1913,-2.2339,0.0,-2.2764,-2.3094,-2.334,-2.3348,-2.334,-2.3348,-2.3374,-2.358,-2.3751,-2.3751,-2.3973,-2.4008,-2.3694,-2.2814,-2.2166,-2.2097,-2.2088,-2.2253,-2.271,-2.284,-2.3065,-1.1263,-1.1062,-1.1069,-1.0995,-1.0995,-1.0903,-1.0721,-1.0452,-1.0447,-1.0452,-1.0538,-1.0812,-1.0995,-1.0995,-1.1177,0.0,0.0,0.0,-1.1839,-1.2258,-1.2909,-1.3383,-1.3716,-1.4568,-1.5207,-1.5603,-1.633,-1.7114,-1.7846,-1.8161,-1.8253,-1.8196,0.0,0.0,-1.8203,-1.846,-1.8877,-1.9447,-1.9725,-2.004,-2.0413,-2.0552,-2.0441,-1.9964,-1.9389,-1.8819,-1.8379,-1.7407,-1.6653,-1.6359,-1.5685,-1.5053,0.0,0.0,0.0,0.0,0.0,0.0,0.0,0.0,0.0,0.0,0.0,-1.0828,-1.2036,0.0,0.0,0.0,-1.4223,-1.5006,-1.5913,-1.6287,0.0,0.0,0.0,0.0,0.0,0.0,0.0,-1.7713,-1.855,-1.9346,-2.0008,-2.0531,-2.0964,-2.1115,-2.1433,-2.1775,-2.2116,0.0,-2.2536,-2.279,-2.314,-2.3554,-2.3776,-2.4115,-2.4446,-2.4573,-2.4564,-2.4573,-2.4598,-2.4778,-2.4907,-2.4941,-2.5104,-2.5258,-2.5266,-2.4496,-2.3776,-2.3511,-2.3443,-2.3571,-2.3931,-2.4008,-2.4196,-1.0971,-1.1376,-1.1304,-1.1208,-1.1044,-1.0847,-1.065,-1.0358,-1.0353,-1.0353,-1.0353,-1.0847,-1.1044,-1.1142,-1.1339,0.0,-1.2168,-1.1991,-1.221,-1.263,-1.3162,-1.3583,-1.3916,-1.4663,-1.5308,-1.5839,-1.648,-1.7362,-1.8374,-1.8812,-1.9398,-2.0099,-1.9374,-1.8935,-1.8942,-1.9499,-1.9813,-1.985,-2.042,-2.0735,-2.0764,-2.1057,-2.0943,-2.042,-2.0047,-1.9556,-1.8947,-1.8171,-1.7508,-1.7181,-1.6406,-1.5691,-1.5084,0.0,0.0,0.0,0.0,0.0,0.0,0.0,0.0,0.0,0.0,0.0,0.0,0.0,0.0,-1.4692,-1.5782,0.0,-1.7,-1.7223,0.0,0.0,0.0,-1.7559,-1.7784,-1.7792,-1.8118,-1.8935,0.0,0.0,-2.0969,-2.1939,-2.2339,-2.1735,-2.1902,-2.2212,-2.2561,-2.2903,-2.3326,-2.3843,-2.429,-2.4727,-2.4961,-2.5219,-2.5433,-2.5673,-2.5934,-2.5848,-2.5848,-2.5917,-2.596,-2.5925,-2.6003,-2.6045,-2.6062,-2.6028,-2.5866,-2.5223,-2.4975,-2.4984,-2.5258,-2.5318,-2.5429,-1.1177,-1.1289,-1.1655,-1.15,-1.095,-1.0848,-1.0848,-1.0745,-1.0741,-1.0745,-1.0745,-1.0848,-1.095,-1.095,-1.1048,-1.1371,-1.1787,-1.194,-1.2332,-1.3078,-1.33,-1.3745,-1.4309,-1.4921,-1.5495,-1.6162,-1.6944,-1.7754,-1.837,-1.9022,-1.9502,-1.9909,-2.0143,-2.0142,-1.9908,-2.0047,-2.0245,-2.0494,-2.0647,-2.0845,-2.1086,-2.1167,-2.1167,-2.098,-2.0499,-1.9998,-1.9584,-1.8899,-1.8239,-1.7508,-1.7275,-1.68,-1.5999,-1.5429,0.0,0.0,0.0,0.0,0.0,0.0,0.0,0.0,0.0,-1.4011,-1.5131,0.0,-1.6118,0.0,-1.715,-1.7508,-1.7582,-1.7882,0.0,0.0,-1.8445,-1.854,-1.889,-1.892,-1.9074,-1.9576,-2.0121,-2.0894,-2.1785,-2.2464,-2.3103,-2.3411,-2.3268,-2.3292,-2.3626,-2.3737,-2.3949,-2.4037,-2.4359,-2.4517,-2.4792,-2.5102,-2.5494,-2.5818,-2.5951,-2.5934,-2.5943,-2.6182,-2.6354,-2.6379,-2.661,-2.6876,-2.7141,-2.721,-2.727,-2.727,-2.6491,-2.5694,-2.578,-2.5814,-2.5925,-1.145,-1.145,-1.168,-1.1443,-1.1067,-1.1172,-1.1172,-1.1063,-1.1063,-1.1063,-1.1067,-1.1176,-1.1285,-1.1394,-1.1389,-1.1559,-1.1894,-1.2113,-1.2553,-1.3007,-1.3446,-1.3899,-1.4369,-1.5264,-1.589,-1.6344,-1.7387,-1.8249,-1.8823,-1.9628,-2.0274,-2.0644,-2.1169,-2.1284,-2.1101,-2.0815,-2.0764,-2.094,-2.094,-2.1028,-2.1203,-2.1211,-2.1211,-2.1203,-2.0672,-2.0345,-2.0231,-1.9493,-1.8857,-1.8414,-1.8037,-1.7575,-1.7081,-1.65,-1.6074,0.0,0.0,0.0,0.0,0.0,0.0,0.0,0.0,0.0,0.0,0.0,-1.7282,-1.7925,-1.8408,-1.8686,-1.8679,-1.8972,-1.9235,-1.9418,-1.9433,-1.9506,-1.9681,-1.9835,-2.0055,-2.0369,-2.0914,-2.1526,-2.2266,-2.2968,-2.356,-2.4,-2.4,-2.4015,-2.4055,-2.4174,-2.4285,-2.4285,-2.454,-2.494,-2.5197,-2.5731,-2.6202,-2.6332,-2.6453,-2.6453,-2.6453,-2.6613,-2.6756,-2.6772,-2.6932,-2.725,-2.7577,-2.7611,-2.7821,-2.8006,-2.7535,-2.7004,-2.6944,-2.6944,-2.7021,-1.1782,-1.1777,-1.1413,-1.1293,-1.1293,-1.164,-1.15,-1.122,-1.122,-1.122,-1.1224,-1.145,-1.1795,-1.2029,-1.2029,-1.2042,-1.2059,-1.2414,-1.2657,-1.2689,-1.3474,-1.4045,-1.4402,-1.5564,-1.6272,-1.6634,-1.7935,-1.8762,-1.935,-2.0315,-2.1173,-2.1661,-2.2049,-2.2184,-2.2162,-2.1613,-2.1335,-2.1335,-2.1335,-2.1335,-2.1335,-2.1335,-2.1313,-2.1269,-2.1018,-2.0759,-2.0716,-1.9897,-1.9518,-1.9357,-1.8541,-1.8143,-1.8096,-1.7569,-1.7148,0.0,-1.6353,0.0,0.0,0.0,0.0,0.0,0.0,0.0,0.0,-1.7735,-1.8364,-1.8928,-1.9491,-1.9828,-1.982,-2.0113,-2.0318,-2.0355,-2.0398,-2.0435,-2.0486,-2.0735,-2.102,-2.1298,-2.1817,-2.2223,-2.264,-2.3192,-2.3673,-2.4096,-2.4456,-2.4635,-2.4364,-2.4507,-2.4666,-2.4698,-2.5016,-2.545,-2.5947,-2.6649,-2.6955,-2.6996,-2.7057,-2.7038,-2.7082,-2.7107,-2.714,-2.7132,-2.7099,-2.7283,-2.7731,-2.7739,-2.7891,-2.8366,-2.8323,-2.8229,-2.8109,-2.8057,-2.8194,-1.1799,-1.1795,-1.1675,-1.1671,-1.1671,-1.179,-1.1618,-1.122,-1.122,-1.122,-1.122,-1.1224,-1.1335,-1.1339,-1.1335,-1.1653,-1.2034,-1.239,-1.2704,-1.3099,-1.3667,-1.4251,-1.4867,-1.5804,-1.6535,-1.716,-1.8495,-1.9121,-1.9293,-2.0502,-2.1131,-2.1307,-2.1929,-2.2184,-2.2176,0.0,0.0,0.0,-2.2001,-2.2001,-2.2001,-2.1993,-2.1876,-2.162,-2.1489,0.0,-2.073,-2.0329,-1.996,-1.9378,-1.8924,0.0,0.0,0.0,0.0,0.0,0.0,0.0,0.0,0.0,0.0,0.0,-1.8473,-1.8709,-1.8489,-1.925,-1.9828,-1.9959,-2.0077,-2.0142,-2.015,-2.0435,-2.0735,-2.0998,-2.1262,-2.1518,-2.1781,-2.1862,-2.1935,-2.1993,-2.2052,-2.2445,-2.2983,-2.3149,-2.3521,-2.4363,-2.4758,-2.5148,-2.5326,-2.5143,-2.5127,-2.5389,-2.5707,-2.6072,-2.6407,-2.6623,-2.6856,-2.7038,-2.7038,-2.7062,-2.7079,-2.707,-2.7054,-2.707,-2.7038,-2.7289,-2.7947,-2.8126,-2.8364,-2.8904,-2.9102,-2.8914,-2.8331,-2.8203,-2.8194,-1.204,-1.204,-1.204,-1.204,0.0,-1.204,-1.1935,-1.1744,-1.1569,-1.1496,-1.1492,-1.1496,-1.1545,-1.1622,-1.1622,-1.184,-1.2142,-1.2508,-1.2921,-1.326,-1.3734,-1.4404,-1.514,-1.5747,-1.6549,-1.7302,-1.8398,-1.9202,-1.9575,-2.0686,-2.1373,-2.1642,-2.2148,-2.2515,-2.2637,-2.2645,-2.2491,-2.2184,-2.2184,-2.2184,-2.2184,-2.2184,-2.2103,-2.1942,-2.1935,0.0,0.0,0.0,0.0,0.0,0.0,0.0,0.0,0.0,0.0,-1.8898,-1.8624,-1.8507,-1.8469,-1.855,-1.8739,-1.9318,-2.0096,-2.0252,-1.9564,-2.0252,-2.0713,-2.072,-2.1006,-2.1196,-2.1203,-2.135,-2.1503,-2.1679,-2.184,-2.2008,-2.2162,-2.2315,-2.2396,-2.2418,-2.2542,-2.2877,-2.3311,-2.3479,-2.3863,-2.455,-2.5011,-2.5381,-2.562,-2.562,-2.5699,-2.5874,-2.6184,-2.6535,-2.6681,-2.6825,-2.6921,-2.706,-2.719,-2.7198,-2.719,-2.719,-2.7198,-2.719,-2.719,-2.7442,-2.8023,-2.8386,-2.8767,-2.937,-2.973,-2.977,-2.9333,-2.9008,-2.8742,-1.2434,-1.2308,-1.2304,-1.2304,-1.2304,-1.2304,-1.2304,-1.2288,0.0,0.0,0.0,-1.187,-1.1947,-1.2073,-1.2081,-1.2162,-1.2304,-1.2687,-1.2935,-1.3304,-1.3717,-1.4359,-1.5232,-1.5659,-1.6431,-1.7309,-1.8291,-1.9144,-1.9738,-2.0742,-2.1493,-2.209,-2.248,-2.276,-2.3186,-2.3193,-2.2974,-2.2542,-2.2403,-2.2345,-2.2352,-2.2345,-2.2315,-2.2264,-2.2264,-2.2242,-2.2184,-2.1562,-2.1307,-2.1194,-2.0597,-2.0227,-2.0234,-2.0234,-2.012,-1.9887,-1.9653,-1.9522,-1.9624,-1.9484,-1.9675,-2.0607,-2.1351,-2.1445,-2.064,-2.1072,-2.1379,-2.1386,-2.1869,-2.2176,-2.2184,-2.2235,-2.2264,-2.2264,-2.2308,-2.2352,-2.2367,-2.2615,-2.2813,-2.2828,-2.3084,-2.3376,-2.3625,-2.3924,-2.4291,-2.4538,-2.5161,-2.5641,-2.5802,-2.615,-2.6215,-2.6255,-2.6541,-2.6764,-2.6811,-2.7057,-2.7272,-2.7272,-2.7328,-2.7383,-2.7383,-2.7383,-2.7383,-2.7375,-2.7383,-2.7637,-2.8275,-2.8603,-2.9141,-2.9705,-3.0174,-3.042,-3.0378,-3.0075,-2.9653,-1.2573,-1.2439,-1.2308,-1.2304,-1.2304,-1.2304,-1.2304,-1.23,-1.2255,-1.2231,-1.2231,-1.2231,-1.2247,-1.2268,-1.2268,-1.2284,-1.2308,-1.2687,-1.2935,-1.3308,-1.3861,-1.4454,-1.5219,-1.6049,-1.6786,-1.7558,-1.8575,-1.937,-2.0043,-2.0796,-2.1447,-2.2111,-2.248,-2.2875,-2.3508,-2.353,-2.3625,-2.3801,-2.3259,-2.2981,-2.2981,-2.2981,-2.2842,-2.2571,-2.2571,-2.244,-2.2198,-2.1817,-2.1428,-2.1187,-2.0832,-2.0476,-2.0234,-2.0247,-2.0214,-2.0174,-2.0127,-2.0207,-2.0527,-2.0718,-2.1201,-2.1853,-2.2059,-2.2052,-2.1935,-2.1993,-2.2045,-2.2052,-2.2154,-2.2184,-2.2198,-2.2425,-2.2586,-2.2593,-2.2813,-2.2974,-2.2981,-2.3245,-2.3442,-2.3442,-2.3749,-2.3932,-2.3991,-2.4013,-2.4294,-2.452,-2.502,-2.5517,-2.6246,-2.6656,-2.6621,-2.6644,-2.6899,-2.7097,-2.72,-2.7423,-2.7629,-2.7661,-2.7876,-2.7995,-2.7987,-2.7987,-2.7995,-2.805,-2.8011,-2.8204,-2.8583,-2.8987,-2.9448,-2.983,-3.0267,-3.0498,-3.0923,-3.0911,-3.0807,-1.273,-1.2601,-1.2596,-1.2592,-1.2592,-1.2592,-1.2592,-1.2596,-1.2592,-1.2483,-1.2312,-1.2304,-1.2361,-1.2442,-1.2446,-1.2503,-1.2592,-1.2722,-1.298,-1.3371,-1.3837,-1.4401,-1.5053,-1.5799,-1.6623,-1.7265,-1.8308,-1.9285,-2.0046,-2.0702,-2.1551,-2.2594,-2.3121,-2.3585,-2.3852,-2.3859,-2.3932,-2.4071,-2.3786,-2.364,-2.364,-2.364,-2.3567,-2.3413,-2.3413,-2.3354,-2.3223,-2.2783,-2.2434,-2.2192,-2.1527,-2.1073,-2.0949,-2.0832,-2.0708,-2.0702,-2.0678,-2.0835,-2.1195,-2.1675,-2.2047,-2.2432,-2.2747,-2.2952,-2.2952,-2.2623,-2.2418,-2.2432,-2.2571,-2.2689,-2.2689,-2.2967,-2.3149,-2.3149,-2.3435,-2.3632,-2.3647,-2.3757,-2.3859,-2.3866,-2.3984,-2.4152,-2.4327,-2.4349,-2.4562,-2.4841,-2.53,-2.5905,-2.6884,-2.7091,-2.7248,-2.7256,-2.7391,-2.7558,-2.7717,-2.7884,-2.7987,-2.8003,-2.8114,-2.8209,-2.8217,-2.8225,-2.8225,-2.8217,-2.8225,-2.8313,-2.875,-2.9216,-2.9707,-3.0062,-3.0637,-3.1184,-3.1453,-3.2005,-3.2209,-1.2836,-1.2836,-1.2836,-1.2836,-1.2836,-1.2836,-1.2836,-1.284,-1.2873,-1.2739,-1.2503,-1.2446,-1.2499,-1.2621,-1.2625,-1.2702,-1.2824,-1.2836,-1.2968,-1.3367,-1.3748,-1.43,-1.4871,-1.5657,-1.6332,-1.7027,-1.8086,-1.8965,-1.9924,-2.0609,-2.1627,-2.3007,-2.3681,-2.4123,-2.4196,-2.4196,-2.4225,-2.4298,-2.4305,-2.4232,-2.4086,-2.4086,-2.4086,-2.4086,-2.4079,-2.4086,-2.4071,-2.358,-2.3321,-2.3178,-2.2454,-2.194,-2.1813,-2.1558,-2.1437,-2.1283,-2.1475,-2.1714,-2.2082,-2.2587,-2.2952,-2.2959,-2.3413,-2.3706,-2.3662,-2.3252,-2.2945,-2.2981,-2.3193,-2.3332,-2.3354,-2.3537,-2.3706,-2.3727,-2.3925,-2.4042,-2.4079,-2.4145,-2.4196,-2.4196,-2.4254,-2.4423,-2.4605,-2.4679,-2.4803,-2.5202,-2.5764,-2.6481,-2.7098,-2.7434,-2.7731,-2.7931,-2.79,-2.7915,-2.8186,-2.8305,-2.8336,-2.8352,-2.8448,-2.8519,-2.8519,-2.8487,-2.8471,-2.8519,-2.8503,-2.8622,-2.897,-2.945,-2.9979,-3.0451,-3.1051,-3.1789,-3.2464,-3.3179,-3.3559,-1.2844,-1.2836,-1.2848,-1.2836,-1.2848,-1.2848,-1.2852,-1.2869,-1.2999,-1.3055,-1.299,-1.2856,-1.2795,-1.2812,-1.282,-1.2836,-1.2852,-1.2836,-1.298,-1.3384,-1.3752,-1.424,-1.481,-1.5481,-1.6245,-1.7202,-1.7883,-1.8829,-1.9833,-2.0636,-2.1701,-2.2897,-2.3688,-2.4247,-2.4488,-2.4525,-2.4671,-2.4957,-2.4971,-2.4679,-2.4123,-2.4086,-2.4086,-2.4086,-2.4093,-2.4086,-2.4123,-2.4049,-2.3905,-2.3515,-2.3479,-2.3067,-2.2545,-2.2415,-2.2291,-2.1891,-2.225,-2.2641,-2.3285,-2.3818,-2.391,-2.3954,-2.3976,-2.4042,-2.4035,-2.3984,-2.3947,-2.394,-2.3962,-2.3947,-2.3991,-2.4013,-2.4035,-2.4042,-2.4108,-2.4086,-2.4159,-2.4349,-2.4525,-2.4525,-2.4781,-2.4979,-2.5037,-2.5052,-2.5154,-2.5447,-2.6089,-2.67,-2.7053,-2.7509,-2.7911,-2.8371,-2.8416,-2.8233,-2.8321,-2.8527,-2.8678,-2.8742,-2.898,-2.9067,-2.9075,-2.9107,-2.9179,-2.8988,-2.9107,-2.9131,-2.9313,-2.9814,-3.0376,-3.0543,-3.1277,-3.2403,-3.3391,-3.4094,-3.4038,-1.3153,-1.3157,-1.3153,-1.3153,-1.3149,-1.3153,-1.3153,-1.3161,-1.3226,-1.3258,-1.3246,-1.3181,-1.3153,-1.3157,-1.3153,-1.3153,-1.3149,-1.3149,-1.3288,-1.3427,-1.3692,-1.4131,-1.4607,-1.5292,-1.6011,-1.6897,-1.7706,-1.8861,-2.0233,-2.1873,-2.3044,-2.3581,-2.439,-2.473,-2.4847,-2.4854,-2.4927,-2.5052,-2.5059,-2.492,-2.4701,-2.4657,-2.4657,-2.4657,-2.4657,-2.4657,-2.4635,-2.4481,-2.4379,-2.4225,-2.3796,-2.3427,-2.3166,-2.2904,-2.2773,-2.2642,-2.2904,-2.3304,-2.3826,-2.4079,-2.4086,-2.4086,-2.4262,-2.4371,-2.4386,-2.454,-2.4657,-2.462,-2.4313,-2.4086,-2.4115,-2.4262,-2.4371,-2.4401,-2.454,-2.4657,-2.4657,-2.4774,-2.492,-2.5103,-2.5249,-2.5425,-2.5579,-2.5622,-2.5681,-2.5813,-2.6247,-2.6668,-2.7092,-2.7427,-2.7863,-2.8253,-2.8229,-2.8452,-2.8711,-2.8956,-2.9059,-2.9099,-2.9194,-2.929,-2.9298,-2.9298,-2.929,-2.9298,-2.9298,-2.9298,-2.9274,-2.9871,-3.0442,-3.0743,-3.1709,-3.2963,-3.3669,-3.4508,-3.4931,-1.3372,-1.3372,-1.3372,-1.3372,-1.3372,-1.3372,-1.3372,-1.338,-1.3421,-1.3445,-1.3449,-1.3494,-1.3514,-1.3502,-1.3421,-1.3372,-1.3372,-1.3372,-1.3372,-1.3372,-1.3784,-1.4083,-1.4671,-1.5229,-1.5942,-1.6808,-1.7775,-1.9084,-2.0773,-2.2732,-2.3823,-2.4102,-2.4868,-2.5191,-2.5198,-2.5264,-2.5322,-2.5322,-2.5315,-2.5322,-2.5322,-2.5322,-2.5235,-2.5081,-2.5059,-2.5059,-2.5052,-2.4825,-2.4701,-2.4701,-2.4209,-2.3954,-2.3815,-2.3558,-2.3426,-2.3551,-2.3691,-2.3954,-2.4349,-2.4357,-2.4349,-2.4364,-2.4576,-2.4708,-2.4744,-2.492,-2.5096,-2.514,-2.4744,-2.4488,-2.4386,-2.4562,-2.4723,-2.4832,-2.5059,-2.5205,-2.5308,-2.5322,-2.5418,-2.5622,-2.5652,-2.574,-2.5966,-2.6069,-2.6142,-2.6157,-2.6528,-2.678,-2.7132,-2.7485,-2.7719,-2.8091,-2.8122,-2.8266,-2.8866,-2.8827,-2.901,-2.901,-2.8859,-2.8859,-2.9002,-2.9002,-2.9146,-2.9002,-2.9146,-2.9441,-2.9585,-3.0014,-3.0826,-3.1438,-3.2491,-3.3839,-3.4528,-3.5291,-3.5983,-1.3509,-1.338,-1.3376,-1.3392,-1.3376,-1.3388,-1.3384,-1.3417,-1.3563,-1.3632,-1.3652,-1.3786,-1.3868,-1.3839,-1.3539,-1.338,-1.3384,-1.3401,-1.3405,-1.3405,-1.3813,-1.416,-1.4736,-1.5167,-1.5952,-1.7207,-1.8036,-1.9461,-2.1603,-2.2873,-2.3679,-2.413,-2.4955,-2.5513,-2.5549,-2.5783,-2.5959,-2.59,-2.5908,-2.5944,-2.5944,-2.5944,-2.5652,-2.5176,-2.5066,-2.5081,-2.5066,-2.5052,-2.5022,-2.5022,-2.4986,-2.4844,-2.4445,-2.4438,-2.4417,-2.4431,-2.4438,-2.4581,-2.4971,-2.4971,-2.4986,-2.5001,-2.5037,-2.5052,-2.5088,-2.5125,-2.5257,-2.5476,-2.544,-2.5286,-2.5059,-2.5059,-2.5183,-2.5425,-2.5483,-2.5644,-2.5908,-2.5871,-2.5959,-2.5996,-2.6025,-2.6076,-2.6069,-2.6288,-2.6449,-2.653,-2.6735,-2.7055,-2.7316,-2.7498,-2.7665,-2.797,-2.7992,-2.8137,-2.8137,-2.8282,-2.8282,-2.8274,-2.8426,-2.8282,-2.8274,-2.8418,-2.8563,-2.8882,-2.9217,-2.9513,-2.9895,-3.0532,-3.1557,-3.2442,-3.375,-3.4876,-3.5652,-3.6576,-3.724,-1.3713,-1.3713,-1.3713,-1.3713,-1.3709,-1.3713,-1.3713,-1.3717,-1.3778,-1.3807,-1.3819,-1.3876,-1.39,-1.3892,-1.377,-1.3709,-1.3709,-1.3709,-1.3709,-1.3709,-1.385,-1.431,-1.4934,-1.5088,-1.5957,-1.7293,-1.8137,-1.9615,-2.2033,-2.3599,-2.44,-2.4693,-2.5351,-2.5842,-2.5864,-2.5952,-2.6018,-2.6018,-2.6018,-2.6018,-2.6032,-2.6018,-2.5886,-2.5681,-2.5469,-2.5359,-2.5359,-2.5169,-2.5059,-2.5059,-2.5059,-2.5059,-2.4916,-2.4916,-2.4909,-2.4916,-2.4909,-2.4916,-2.5081,-2.5249,-2.5359,-2.5374,-2.5557,-2.5652,-2.5674,-2.5674,-2.5725,-2.5813,-2.5835,-2.5761,-2.571,-2.5666,-2.571,-2.5813,-2.5842,-2.5886,-2.5974,-2.6018,-2.6091,-2.6303,-2.6486,-2.6639,-2.6617,-2.6742,-2.6815,-2.683,-2.6917,-2.7122,-2.7129,-2.7267,-2.7274,-2.742,-2.742,-2.7427,-2.7427,-2.7855,-2.8137,-2.8137,-2.8137,-2.8152,-2.8152,-2.8496,-2.88,-2.9034,-2.9341,-2.9994,-3.0469,-3.1649,-3.2474,-3.384,-3.5027,-3.6018,-3.672,-3.748,-3.7996,-1.39,-1.39,-1.39,-1.39,-1.39,-1.39,-1.39,-1.39,-1.39,-1.39,-1.39,-1.39,-1.39,-1.39,-1.39,-1.39,-1.39,-1.39,-1.39,-1.39,-1.39,-1.4332,-1.4919,-1.5109,-1.5997,-1.743,-1.8616,-2.0291,-2.2159,-2.3924,-2.4727,-2.501,-2.5689,-2.6179,-2.6186,-2.6266,-2.6325,-2.6332,-2.6332,-2.6332,-2.6332,-2.6332,-2.6332,-2.6281,-2.601,-2.5791,-2.5696,-2.5476,-2.5366,-2.5352,-2.5271,-2.5162,-2.5074,-2.5059,-2.511,-2.5191,-2.5213,-2.5264,-2.5374,-2.5571,-2.5688,-2.5696,-2.5879,-2.6018,-2.6018,-2.6018,-2.6061,-2.6135,-2.6179,-2.6193,-2.6303,-2.6332,-2.6288,-2.62,-2.6171,-2.6222,-2.6318,-2.6347,-2.6442,-2.6632,-2.6822,-2.6961,-2.6991,-2.6983,-2.6983,-2.6991,-2.6991,-2.6991,-2.6991,-2.6991,-2.6991,-2.6991,-2.6991,-2.7136,-2.7136,-2.7427,-2.7573,-2.7573,-2.7883,-2.786,-2.8182,-2.8504,-2.8911,-2.9291,-2.9889,-3.0574,-3.144,-3.2637,-3.3868,-3.5047,-3.6281,-3.722,-3.7842,-3.8353,-3.8788,-1.39,-1.39,-1.39,-1.39,-1.39,-1.39,-1.39,-1.39,-1.39,-1.39,-1.39,-1.39,-1.39,-1.39,-1.39,-1.39,-1.3904,-1.392,-1.392,-1.39,-1.3916,-1.4357,-1.4941,-1.5254,-1.6202,-1.7791,-1.9881,-2.1144,-2.2163,-2.3652,-2.454,-2.5123,-2.5941,-2.6508,-2.6508,-2.6757,-2.6932,-2.691,-2.6888,-2.6925,-2.6983,-2.6917,-2.6896,-2.6896,-2.6625,-2.6339,-2.6061,-2.5996,-2.593,-2.5915,-2.5688,-2.5388,-2.5191,-2.5147,-2.5227,-2.5483,-2.5535,-2.5688,-2.5922,-2.5988,-2.6018,-2.6039,-2.6047,-2.6127,-2.6149,-2.6127,-2.6222,-2.6449,-2.6522,-2.661,-2.6859,-2.6896,-2.6786,-2.6574,-2.6508,-2.6625,-2.6844,-2.6961,-2.6976,-2.6961,-2.6991,-2.6991,-2.6991,-2.6991,-2.6991,-2.6991,-2.6991,-2.6991,-2.6991,-2.6991,-2.6991,-2.6991,-2.6991,-2.6991,-2.6991,-2.6991,-2.7005,-2.7049,-2.7423,-2.7696,-2.7948,-2.8304,-2.8893,-2.9398,-3.0623,-3.1316,-3.2537,-3.3735,-3.4716,-3.5961,-3.7226,-3.8205,-3.8704,-3.9066,-3.9759,-1.39,-1.39,-1.39,-1.39,-1.39,-1.39,-1.39,-1.39,-1.39,-1.39,-1.39,-1.39,-1.39,-1.3904,-1.39,-1.3904,-1.3912,-1.4022,-1.4026,-1.3949,-1.4034,-1.4376,-1.4839,-1.5293,-1.6552,-1.8332,-1.9994,-2.1278,-2.2323,-2.3799,-2.4786,-2.5541,-2.6185,-2.654,-2.6822,-2.6939,-2.6991,-2.6991,-2.6991,-2.6991,-2.6991,-2.6991,-2.6991,-2.6983,-2.6888,-2.6778,-2.6676,-2.6259,-2.6025,-2.6032,-2.5922,-2.582,-2.5732,-2.5725,-2.5769,-2.5842,-2.5871,-2.5886,-2.6018,-2.6222,-2.6354,-2.6391,-2.6544,-2.6676,-2.6691,-2.6669,-2.6705,-2.683,-2.6844,-2.6896,-2.6961,-2.6991,-2.6932,-2.6844,-2.6837,-2.6852,-2.6954,-2.6991,-2.6991,-2.6991,-2.6991,-2.6991,-2.6991,-2.6991,-2.6991,-2.6991,-2.6991,-2.6991,-2.6991,-2.6991,-2.6991,-2.6991,-2.6991,-2.6998,-2.6998,-2.7078,-2.7174,-2.7261,-2.7466,-2.7686,-2.7953,-2.8567,-2.9169,-2.9903,-3.1149,-3.2301,-3.3549,-3.4652,-3.5612,-3.6579,-3.7709,-3.8506,-3.9271,-3.9724,-4.031,-1.4042,-1.4099,-1.4095,-1.4099,-1.4099,-1.4099,-1.4095,-1.4095,-1.4099,-1.4099,-1.4099,-1.4099,-1.4099,-1.4099,-1.4099,-1.4099,-1.4107,-1.4225,-1.4213,-1.4123,-1.4205,-1.4412,-1.4872,-1.5784,-1.6819,-1.8218,-1.9691,-2.0951,-2.1981,-2.3337,-2.4616,-2.5359,-2.6093,-2.6538,-2.6838,-2.6991,-2.6991,-2.6991,-2.6991,-2.6991,-2.6991,-2.6991,-2.6991,-2.6991,-2.6991,-2.6991,-2.6954,-2.6588,-2.6376,-2.6354,-2.6266,-2.6149,-2.6032,-2.6003,-2.6069,-2.6179,-2.6208,-2.6244,-2.6376,-2.6581,-2.6683,-2.6727,-2.6874,-2.6976,-2.6991,-2.6991,-2.6991,-2.6991,-2.6983,-2.6991,-2.6991,-2.6991,-2.6991,-2.6991,-2.6976,-2.6991,-2.6991,-2.6991,-2.6991,-2.6991,-2.6991,-2.6991,-2.6991,-2.6991,-2.6991,-2.6991,-2.6991,-2.6991,-2.6991,-2.6991,-2.6998,-2.6998,-2.6991,-2.6998,-2.7005,-2.7137,-2.7327,-2.7495,-2.7671,-2.7898,-2.8081,-2.9063,-2.9709,-3.0701,-3.1766,-3.2676,-3.3923,-3.5014,-3.6127,-3.7236,-3.8136,-3.9001,-3.9714,-4.0156,-4.0596,-1.4436,-1.4424,-1.4428,-1.4404,-1.4404,-1.4399,-1.4387,-1.4412,-1.4408,-1.4391,-1.4404,-1.4379,-1.4399,-1.4416,-1.4375,-1.4375,-1.4428,-1.444,-1.4444,-1.4436,-1.4469,-1.4637,-1.5117,-1.6301,-1.7199,-1.8098,-1.9197,-2.0263,-2.1135,-2.2664,-2.3716,-2.4629,-2.5653,-2.6239,-2.6392,-2.6692,-2.6845,-2.6845,-2.6991,-2.6991,-2.6991,-2.6991,-2.6991,-2.6991,-2.6991,-2.6991,-2.6976,-2.6917,-2.6932,-2.6932,-2.6661,-2.6413,-2.6157,-2.6076,-2.6266,-2.6508,-2.653,-2.6669,-2.6896,-2.6917,-2.6947,-2.6947,-2.6961,-2.6991,-2.6991,-2.6991,-2.7027,-2.7071,-2.7064,-2.7071,-2.7093,-2.713,-2.7122,-2.7071,-2.7108,-2.7078,-2.7027,-2.7064,-2.7159,-2.713,-2.7064,-2.7064,-2.7144,-2.7137,-2.713,-2.713,-2.7144,-2.7174,-2.7152,-2.7181,-2.7056,-2.7056,-2.7115,-2.713,-2.7181,-2.7408,-2.7605,-2.7847,-2.7986,-2.8139,-2.8497,-2.9341,-3.0261,-3.1276,-3.2089,-3.3028,-3.4096,-3.5157,-3.621,-3.7107,-3.8126,-3.9281,-3.9858,-4.03,-4.0586,-1.4699,-1.4432,-1.4432,-1.4432,-1.4432,-1.4432,-1.4436,-1.4436,-1.444,-1.446,-1.444,-1.4432,-1.4452,-1.4436,-1.4444,-1.4432,-1.4477,-1.4578,-1.4635,-1.4659,-1.4773,-1.513,-1.5442,-1.6094,-1.6908,-1.7569,-1.8633,-1.9687,-2.0581,-2.1786,-2.2837,-2.3722,-2.4623,-2.5219,-2.5499,-2.6246,-2.6546,-2.6546,-2.6838,-2.6991,-2.6991,-2.6991,-2.6991,-2.6991,-2.6991,-2.6991,-2.6991,-2.6991,-2.6991,-2.6991,-2.6925,-2.683,-2.6713,-2.6691,-2.672,-2.68,-2.6852,-2.6881,-2.6961,-2.6991,-2.6991,-2.6991,-2.702,-2.6991,-2.6991,-2.6998,-2.7115,-2.7261,-2.7349,-2.7437,-2.7627,-2.7671,-2.7671,-2.7664,-2.7495,-2.7364,-2.7378,-2.7554,-2.77,-2.77,-2.7671,-2.7649,-2.7634,-2.7642,-2.7642,-2.7642,-2.7634,-2.7634,-2.7547,-2.7444,-2.7342,-2.7342,-2.7378,-2.7364,-2.7437,-2.7671,-2.792,-2.8198,-2.8337,-2.8403,-2.874,-2.9544,-3.0392,-3.1371,-3.1969,-3.2892,-3.3802,-3.4857,-3.5763,-3.6812,-3.7833,-3.9001,-3.958,-4.0012,-4.0443,-1.4902,-1.4655,-1.4655,-1.4655,-1.4655,-1.4655,-1.4655,-1.4655,-1.4655,-1.4655,-1.4655,-1.4655,-1.4655,-1.4659,-1.4659,-1.4659,-1.4676,-1.4769,-1.4814,-1.4826,-1.4911,-1.5259,-1.5578,-1.5897,-1.6352,-1.7121,-1.803,-1.8779,-1.9682,-2.0893,-2.178,-2.267,-2.3574,-2.4321,-2.5065,-2.5499,-2.5946,-2.6239,-2.6538,-2.6692,-2.6692,-2.6983,-2.6991,-2.6991,-2.6991,-2.6991,-2.6991,-2.6991,-2.6991,-2.6991,-2.6991,-2.6991,-2.6991,-2.6991,-2.6991,-2.6991,-2.6991,-2.6991,-2.6991,-2.6991,-2.6991,-2.7027,-2.7093,-2.7188,-2.7239,-2.7305,-2.7503,-2.7642,-2.7678,-2.7773,-2.7891,-2.7942,-2.7942,-2.7913,-2.7905,-2.7817,-2.77,-2.7825,-2.7927,-2.7942,-2.7942,-2.7949,-2.7949,-2.7956,-2.7949,-2.7927,-2.7883,-2.7891,-2.7876,-2.7759,-2.7678,-2.7678,-2.7671,-2.7664,-2.7656,-2.7832,-2.7898,-2.8191,-2.8278,-2.8417,-2.8946,-2.9426,-3.0261,-3.104,-3.1815,-3.2596,-3.35,-3.4406,-3.5306,-3.6349,-3.753,-3.8419,-3.9001,-3.9724,-4.0156,-1.4982,-1.4968,-1.4968,-1.4968,-1.4952,-1.4964,-1.4927,-1.4952,-1.4931,-1.4935,-1.4935,-1.4956,-1.4911,-1.4968,-1.4899,-1.4948,-1.4948,-1.4931,-1.4948,-1.4948,-1.4964,-1.5117,-1.5429,-1.5586,-1.6046,-1.6658,-1.7121,-1.7873,-1.8623,-1.9682,-2.0586,-2.1475,-2.2521,-2.3574,-2.4173,-2.4764,-2.5198,-2.5653,-2.5946,-2.6239,-2.6392,-2.6692,-2.6838,-2.6845,-2.6991,-2.6991,-2.6991,-2.6991,-2.6991,-2.6991,-2.6991,-2.6991,-2.6991,-2.6991,-2.6991,-2.6991,-2.6991,-2.6991,-2.6991,-2.6991,-2.6991,-2.7027,-2.7239,-2.7422,-2.74,-2.7561,-2.7773,-2.7876,-2.7971,-2.8044,-2.8125,-2.8088,-2.8117,-2.8183,-2.8337,-2.83,-2.8103,-2.8022,-2.8044,-2.8044,-2.8059,-2.8052,-2.8044,-2.8052,-2.8073,-2.83,-2.8256,-2.8264,-2.822,-2.8103,-2.8037,-2.8008,-2.7993,-2.7971,-2.7971,-2.7986,-2.7971,-2.8044,-2.8052,-2.8169,-2.8768,-2.9262,-2.9845,-3.0515,-3.13,-3.1944,-3.2596,-3.3651,-3.4689,-3.5596,-3.6636,-3.753,-3.8419,-3.9146,-3.9734,-1.5089,-1.4968,-1.4968,-1.4968,-1.4968,-1.4968,-1.4968,-1.4968,-1.4968,-1.4968,-1.4968,-1.4968,-1.4968,-1.4968,-1.4968,-1.4968,-1.4968,-1.4968,-1.4968,-1.4968,-1.4968,-1.4968,-1.5275,-1.5433,-1.5739,-1.6199,-1.6968,-1.7426,-1.7878,-1.8785,-1.9693,-2.0285,-2.1181,-2.1936,-2.2688,-2.3574,-2.4166,-2.477,-2.5205,-2.5653,-2.5946,-2.6246,-2.6538,-2.6538,-2.6845,-2.6991,-2.6991,-2.6991,-2.6991,-2.6991,-2.6991,-2.6991,-2.6991,-2.6991,-2.6991,-2.6991,-2.6991,-2.6991,-2.6991,-2.6991,-2.6991,-2.7005,-2.7093,-2.7093,-2.7115,-2.7437,-2.7708,-2.792,-2.8176,-2.8344,-2.8498,-2.8644,-2.8556,-2.8542,-2.8615,-2.86,-2.8432,-2.8512,-2.8586,-2.86,-2.86,-2.8673,-2.8651,-2.8615,-2.8622,-2.8673,-2.8659,-2.8666,-2.8564,-2.8432,-2.8381,-2.833,-2.8234,-2.8183,-2.8081,-2.8,-2.7832,-2.7766,-2.7744,-2.7766,-2.8369,-2.8803,-2.9175,-2.9962,-3.0623,-3.1236,-3.191,-3.2834,-3.3859,-3.4795,-3.5727,-3.6784,-3.7677,-3.8409,-3.9211,-1.5048,-1.4964,-1.4968,-1.4968,-1.4968,-1.4968,-1.4968,-1.4968,-1.4968,-1.4968,-1.4968,-1.4968,-1.4968,-1.4968,-1.4968,-1.4968,-1.4968,-1.4968,-1.4968,-1.4968,-1.4968,-1.4968,-1.4968,-1.5275,-1.5433,-1.5744,-1.6199,-1.6658,-1.7269,-1.7878,-1.8638,-1.9234,-1.9984,-2.0887,-2.1643,-2.2384,-2.3135,-2.3735,-2.4327,-2.477,-2.5212,-2.5653,-2.5946,-2.61,-2.6546,-2.6692,-2.6692,-2.6845,-2.6991,-2.6991,-2.6991,-2.6991,-2.6991,-2.6991,-2.6991,-2.6991,-2.6991,-2.6991,-2.6991,-2.6991,-2.6991,-2.6998,-2.7115,-2.7203,-2.7291,-2.7517,-2.7737,-2.7927,-2.8095,-2.8278,-2.8425,-2.8439,-2.8454,-2.8447,-2.8454,-2.8373,-2.8293,-2.8483,-2.86,-2.8542,-2.852,-2.8593,-2.8681,-2.8776,-2.8871,-2.8769,-2.8776,-2.8783,-2.879,-2.8681,-2.8673,-2.8615,-2.8476,-2.8359,-2.8205,-2.7986,-2.7649,-2.7503,-2.7349,-2.7356,-2.7622,-2.8051,-2.8453,-2.9117,-2.9777,-3.0346,-3.1061,-3.2016,-3.2953,-3.3837,-3.4759,-3.5794,-3.6756,-3.7591,-3.8195,-1.4908,-1.4887,-1.4911,-1.4927,-1.4931,-1.4952,-1.4968,-1.4968,-1.4968,-1.4968,-1.4968,-1.4968,-1.4968,-1.4968,-1.4968,-1.4968,-1.4968,-1.4968,-1.4968,-1.4968,-1.4968,-1.4968,-1.4968,-1.5122,-1.5122,-1.5433,-1.5739,-1.6046,-1.6505,-1.7116,-1.7726,-1.8471,-1.9082,-1.9989,-2.0731,-2.1487,-2.2097,-2.2694,-2.3296,-2.389,-2.4334,-2.477,-2.5212,-2.5653,-2.6093,-2.6392,-2.6538,-2.6692,-2.6845,-2.6991,-2.6991,-2.6991,-2.6991,-2.6991,-2.6991,-2.6991,-2.6991,-2.6991,-2.6991,-2.6991,-2.6998,-2.7005,-2.7203,-2.7356,-2.7422,-2.7591,-2.7759,-2.7847,-2.7934,-2.8,-2.7956,-2.803,-2.8015,-2.7993,-2.7971,-2.7927,-2.7927,-2.8132,-2.8117,-2.811,-2.8242,-2.8366,-2.8512,-2.8637,-2.8769,-2.8878,-2.8878,-2.8871,-2.8856,-2.8871,-2.8812,-2.8739,-2.8578,-2.8183,-2.7986,-2.7722,-2.7415,-2.732,-2.71,-2.7093,-2.7093,-2.7438,-2.7888,-2.8267,-2.9002,-2.9475,-3.0009,-3.079,-3.1819,-3.2782,-3.3569,-3.4493,-3.5512,-3.6726,-3.7267,-1.4497,-1.4533,-1.4688,-1.4749,-1.4777,-1.4899,-1.4956,-1.4968,-1.496,-1.4968,-1.4968,-1.4968,-1.4968,-1.4968,-1.4968,-1.4968,-1.4968,-1.4968,-1.4968,-1.4968,-1.4968,-1.4968,-1.4968,-1.4968,-1.5117,-1.5122,-1.5433,-1.5739,-1.6046,-1.6501,-1.7111,-1.7569,-1.8177,-1.8931,-1.9682,-2.0291,-2.0898,-2.1648,-2.2247,-2.2694,-2.3141,-2.3883,-2.4475,-2.5205,-2.5653,-2.5946,-2.6246,-2.6392,-2.6692,-2.6983,-2.6991,-2.6991,-2.6991,-2.6991,-2.6991,-2.6991,-2.6991,-2.6991,-2.6991,-2.6991,-2.6991,-2.7005,-2.7071,-2.7086,-2.7166,-2.7349,-2.7525,-2.7613,-2.7752,-2.7905,-2.7942,-2.7847,-2.7913,-2.792,-2.7861,-2.7788,-2.7627,-2.7627,-2.7752,-2.7803,-2.7956,-2.8095,-2.8227,-2.8373,-2.8512,-2.8651,-2.8739,-2.871,-2.8681,-2.8747,-2.8805,-2.8717,-2.8615,-2.8132,-2.7671,-2.7371,-2.7108,-2.7137,-2.7035,-2.7035,-2.7027,-2.702,-2.7342,-2.7763,-2.8134,-2.8694,-2.9241,-2.975,-3.0394,-3.1334,-3.2255,-3.3189,-3.4209,-3.5212,-3.6062,-1.4199,-1.444,-1.4529,-1.4566,-1.4598,-1.4757,-1.483,-1.4846,-1.4927,-1.4968,-1.4968,-1.4968,-1.4968,-1.4968,-1.4968,-1.4968,-1.4968,-1.4968,-1.4968,-1.4968,-1.4968,-1.4968,-1.4968,-1.4968,-1.4968,-1.5122,-1.5275,-1.5433,-1.5586,-1.5888,-1.6501,-1.7116,-1.7421,-1.8025,-1.8779,-1.939,-1.9844,-2.0597,-2.1043,-2.1643,-2.2253,-2.2992,-2.3735,-2.4179,-2.4918,-2.5219,-2.5513,-2.6246,-2.6392,-2.6684,-2.6845,-2.6991,-2.6991,-2.6991,-2.6991,-2.6991,-2.6991,-2.6991,-2.6991,-2.6991,-2.6991,-2.6991,-2.6991,-2.6991,-2.702,-2.7137,-2.7239,-2.7276,-2.7298,-2.7444,-2.7422,-2.7474,-2.7452,-2.7452,-2.7466,-2.74,-2.7291,-2.7247,-2.7356,-2.7525,-2.7627,-2.7737,-2.7854,-2.8022,-2.8212,-2.8388,-2.8564,-2.8549,-2.8483,-2.8549,-2.863,-2.8395,-2.8227,-2.7869,-2.7437,-2.7203,-2.6991,-2.6991,-2.6991,-2.6991,-2.6991,-2.6998,-2.7027,-2.732,-2.7666,-2.8,-2.8259,-2.8687,-2.9369,-2.9937,-3.095,-3.1784,-3.2827,-3.3683,-3.4539,-1.4051,-1.4326,-1.4363,-1.4379,-1.4412,-1.4578,-1.4676,-1.4732,-1.485,-1.4931,-1.4968,-1.4968,-1.4968,-1.4968,-1.4968,-1.4968,-1.4968,-1.4968,-1.4968,-1.4968,-1.4968,-1.4968,-1.4968,-1.4968,-1.4968,-1.4968,-1.4968,-1.5122,-1.5433,-1.5586,-1.6042,-1.6505,-1.6963,-1.7421,-1.8025,-1.8633,-1.9088,-1.9542,-1.9989,-2.0742,-2.1504,-2.2103,-2.2701,-2.3141,-2.389,-2.4488,-2.4784,-2.566,-2.6246,-2.6538,-2.6838,-2.6991,-2.6991,-2.6991,-2.6991,-2.6991,-2.6991,-2.6991,-2.6991,-2.6991,-2.6991,-2.6991,-2.6991,-2.6991,-2.6998,-2.702,-2.702,-2.6991,-2.702,-2.7049,-2.7093,-2.7027,-2.7027,-2.7042,-2.7049,-2.7005,-2.7042,-2.7049,-2.7064,-2.7188,-2.7283,-2.7437,-2.7598,-2.7715,-2.792,-2.811,-2.8286,-2.8264,-2.822,-2.8264,-2.8249,-2.7956,-2.7722,-2.7474,-2.7217,-2.7122,-2.6991,-2.6991,-2.6991,-2.6991,-2.6991,-2.6998,-2.7027,-2.7056,-2.7064,-2.7357,-2.7569,-2.7722,-2.8442,-2.919,-2.9834,-3.0461,-3.1368,-3.2354,-3.3144,-1.3945,-1.3981,-1.4144,-1.4209,-1.4233,-1.4391,-1.4558,-1.4688,-1.4728,-1.483,-1.4944,-1.4968,-1.4968,-1.4968,-1.4968,-1.4968,-1.4968,-1.4968,-1.4968,-1.4968,-1.4968,-1.4968,-1.4968,-1.4968,-1.4968,-1.4968,-1.4968,-1.4968,-1.5122,-1.5433,-1.5586,-1.5893,-1.6505,-1.7111,-1.7421,-1.7878,-1.8334,-1.8795,-1.9542,-2.0296,-2.106,-2.1504,-2.1954,-2.2402,-2.3147,-2.389,-2.4482,-2.5366,-2.5946,-2.6392,-2.6692,-2.6991,-2.6991,-2.6991,-2.6991,-2.6991,-2.6991,-2.6991,-2.6991,-2.6991,-2.6991,-2.6991,-2.6991,-2.6991,-2.6991,-2.6991,-2.6991,-2.6991,-2.6991,-2.6991,-2.6991,-2.6991,-2.6991,-2.6991,-2.6991,-2.6991,-2.6991,-2.6991,-2.6991,-2.6998,-2.7144,-2.7276,-2.7422,-2.7517,-2.7627,-2.7825,-2.7964,-2.7942,-2.7898,-2.7898,-2.7883,-2.7598,-2.7466,-2.7239,-2.713,-2.7013,-2.6991,-2.6991,-2.6991,-2.6991,-2.6991,-2.6991,-2.6991,-2.7005,-2.6991,-2.6991,-2.7173,-2.7487,-2.7923,-2.8297,-2.9057,-2.9552,-2.9968,-3.0977,-3.195,-1.3908,-1.3908,-1.3989,-1.4018,-1.4042,-1.4209,-1.433,-1.444,-1.4627,-1.4749,-1.4834,-1.4931,-1.4968,-1.4968,-1.4968,-1.4968,-1.4968,-1.4968,-1.4968,-1.4968,-1.4968,-1.4968,-1.4968,-1.4968,-1.4968,-1.4968,-1.4968,-1.4968,-1.5122,-1.5122,-1.5275,-1.5586,-1.5893,-1.6505,-1.6963,-1.7264,-1.7721,-1.8182,-1.879,-1.9547,-2.0145,-2.0597,-2.1054,-2.181,-2.2402,-2.3141,-2.3883,-2.4629,-2.5359,-2.5946,-2.6392,-2.6838,-2.6991,-2.6991,-2.6991,-2.6991,-2.6991,-2.6991,-2.6991,-2.6991,-2.6991,-2.6991,-2.6991,-2.6991,-2.6991,-2.6991,-2.6991,-2.6991,-2.6991,-2.6991,-2.6991,-2.6991,-2.6991,-2.6991,-2.6991,-2.6991,-2.6991,-2.6991,-2.6991,-2.6991,-2.7005,-2.7137,-2.7232,-2.7261,-2.732,-2.7408,-2.7547,-2.7569,-2.7459,-2.7349,-2.732,-2.7247,-2.7181,-2.7115,-2.7064,-2.6991,-2.6991,-2.6991,-2.6991,-2.6991,-2.6991,-2.6991,-2.6991,-2.6991,-2.6991,-2.6991,-2.6983,-2.7136,-2.745,-2.787,-2.8282,-2.8851,-2.9425,-3.0014,-3.0952,-1.3476,-1.3615,-1.3761,-1.39,-1.3912,-1.4054,-1.414,-1.4221,-1.4501,-1.4663,-1.4749,-1.4883,-1.4968,-1.4968,-1.4968,-1.4968,-1.4968,-1.4968,-1.4968,-1.4968,-1.4968,-1.4968,-1.4968,-1.4968,-1.4968,-1.4968,-1.4968,-1.4968,-1.4968,-1.5122,-1.5271,-1.5433,-1.5586,-1.5893,-1.6348,-1.6806,-1.7259,-1.8025,-1.8334,-1.879,-1.939,-1.9687,-2.0302,-2.1054,-2.1804,-2.2402,-2.3147,-2.4186,-2.5065,-2.5366,-2.61,-2.6546,-2.6699,-2.6991,-2.6991,-2.6991,-2.6991,-2.6991,-2.6991,-2.6991,-2.6991,-2.6991,-2.6991,-2.6991,-2.6991,-2.6991,-2.6991,-2.6991,-2.6991,-2.6991,-2.6991,-2.6991,-2.6991,-2.6991,-2.6991,-2.6991,-2.6991,-2.6991,-2.6991,-2.6991,-2.6991,-2.6991,-2.7056,-2.7027,-2.7035,-2.7042,-2.71,-2.7203,-2.7137,-2.7035,-2.7035,-2.7071,-2.7064,-2.7049,-2.7027,-2.6991,-2.6991,-2.6991,-2.6991,-2.6991,-2.6991,-2.6991,-2.6991,-2.6991,-2.6991,-2.6991,-2.6991,-2.6991,-2.7129,-2.7558,-2.7985,-2.8418,-2.8851,-2.9425,-2.9997,-1.2169,-1.2896,-1.3615,-1.39,-1.39,-1.3912,-1.4018,-1.4168,-1.4371,-1.457,-1.4749,-1.4883,-1.4968,-1.4968,-1.4968,-1.4968,-1.4968,-1.4968,-1.4968,-1.4968,-1.4968,-1.4968,-1.4968,-1.4968,-1.4968,-1.4968,-1.4968,-1.4968,-1.4968,-1.4968,-1.4968,-1.5122,-1.5429,-1.5586,-1.5893,-1.6501,-1.7107,-1.7721,-1.7873,-1.8177,-1.8638,-1.9093,-1.9542,-2.014,-2.1048,-2.1804,-2.2396,-2.3587,-2.4629,-2.4784,-2.566,-2.6246,-2.6392,-2.6684,-2.6838,-2.6838,-2.6845,-2.6845,-2.6845,-2.6991,-2.6991,-2.6991,-2.6991,-2.6991,-2.6991,-2.6991,-2.6991,-2.6991,-2.6991,-2.6991,-2.6991,-2.6991,-2.6991,-2.6991,-2.6991,-2.6991,-2.6991,-2.6991,-2.6991,-2.6991,-2.6991,-2.6991,-2.6991,-2.6991,-2.6991,-2.7013,-2.7013,-2.7108,-2.7086,-2.7005,-2.7005,-2.7013,-2.7013,-2.7005,-2.7005,-2.6991,-2.6991,-2.6991,-2.6991,-2.6991,-2.6991,-2.6991,-2.6991,-2.6991,-2.6991,-2.6991,-2.6991,-2.6991,-2.7129,-2.7412,-2.784,-2.813,-2.8707,-2.9282,-2.9855,-1.1312,-1.218,-1.261,-1.3182,-1.3615,-1.3757,-1.3941,-1.405,-1.431,-1.4603,-1.4862,-1.4935,-1.4968,-1.4968,-1.4968,-1.4968,-1.4968,-1.4968,-1.4968,-1.4968,-1.4968,-1.4968,-1.4968,-1.4968,-1.4968,-1.4968,-1.4968,-1.4968,-1.4968,-1.4968,-1.4968,-1.5122,-1.5122,-1.5429,-1.5739,-1.6046,-1.6653,-1.7111,-1.7264,-1.7569,-1.8182,-1.8334,-1.8936,-1.9844,-2.014,-2.1199,-2.2103,-2.2694,-2.3587,-2.4482,-2.5072,-2.5506,-2.5946,-2.61,-2.6246,-2.6392,-2.6546,-2.6546,-2.6692,-2.6845,-2.6991,-2.6991,-2.6991,-2.6991,-2.6991,-2.6991,-2.6991,-2.6991,-2.6991,-2.6991,-2.6991,-2.6991,-2.6991,-2.6991,-2.6991,-2.6991,-2.6991,-2.6991,-2.6991,-2.6991,-2.6991,-2.6991,-2.6991,-2.6991,-2.6991,-2.6998,-2.6991,-2.6991,-2.6991,-2.6991,-2.6991,-2.6991,-2.6991,-2.6991,-2.6991,-2.6991,-2.6991,-2.6991,-2.6991,-2.6991,-2.6991,-2.6991,-2.6991,-2.6991,-2.6991,-2.6991,-2.6991,-2.6991,-2.7136,-2.7274,-2.7558,-2.7985,-2.8555,-2.9138,-2.9568,-1.0305,-1.1175,-1.1603,-1.232,-1.3182,-1.3615,-1.3757,-1.3814,-1.4221,-1.4558,-1.4887,-1.4935,-1.4968,-1.4968,-1.4968,-1.4968,-1.4968,-1.4968,-1.4968,-1.4968,-1.4968,-1.4968,-1.4968,-1.4968,-1.4968,-1.4968,-1.4968,-1.4968,-1.4968,-1.4968,-1.4968,-1.4968,-1.4968,-1.5279,-1.5429,-1.5739,-1.6199,-1.6501,-1.6806,-1.6959,-1.7569,-1.8025,-1.8177,-1.9234,-1.9687,-2.0291,-2.1199,-2.1948,-2.2694,-2.3438,-2.4179,-2.4623,-2.5065,-2.5506,-2.5653,-2.58,-2.5946,-2.6246,-2.6392,-2.6692,-2.6991,-2.6991,-2.6991,-2.6991,-2.6991,-2.6991,-2.6991,-2.6991,-2.6991,-2.6991,-2.6991,-2.6991,-2.6991,-2.6991,-2.6991,-2.6991,-2.6991,-2.6991,-2.6991,-2.6991,-2.6991,-2.6991,-2.6991,-2.6991,-2.6991,-2.6991,-2.6991,-2.6991,-2.6991,-2.6991,-2.6991,-2.6991,-2.6991,-2.6991,-2.6991,-2.6991,-2.6991,-2.6991,-2.6991,-2.6991,-2.6991,-2.6991,-2.6991,-2.6991,-2.6991,-2.6991,-2.6991,-2.6991,-2.6991,-2.6991,-2.742,-2.784,-2.813,-2.8563,-2.8987,-0.8863,-0.9876,-1.0308,-1.1315,-1.261,-1.3182,-1.3321,-1.3356,-1.399,-1.442,-1.4745,-1.4887,-1.4968,-1.4968,-1.4968,-1.4968,-1.4968,-1.4968,-1.4968,-1.4968,-1.4968,-1.4968,-1.4968,-1.4968,-1.4968,-1.4968,-1.4968,-1.4968,-1.4968,-1.4968,-1.4968,-1.4968,-1.4968,-1.4968,-1.5117,-1.5433,-1.5739,-1.6203,-1.6505,-1.6653,-1.6959,-1.7569,-1.7873,-1.8324,-1.9082,-1.9687,-2.0291,-2.1048,-2.1798,-2.2396,-2.3135,-2.358,-2.4031,-2.4616,-2.4904,-2.5058,-2.5506,-2.5653,-2.5793,-2.6538,-2.6838,-2.6845,-2.6991,-2.6991,-2.6991,-2.6991,-2.6991,-2.6991,-2.6991,-2.6991,-2.6991,-2.6991,-2.6991,-2.6991,-2.6991,-2.6991,-2.6991,-2.6991,-2.6991,-2.6991,-2.6991,-2.6991,-2.6991,-2.6991,-2.6991,-2.6991,-2.6991,-2.6991,-2.6991,-2.6991,-2.6991,-2.6991,-2.6991,-2.6991,-2.6991,-2.6991,-2.6991,-2.6991,-2.6991,-2.6991,-2.6991,-2.6991,-2.6991,-2.6991,-2.6991,-2.6991,-2.6991,-2.6991,-2.6991,-2.6991,-2.7274,-2.755,-2.7848,-2.813,-2.8563,-0.7268,-0.8572,-0.8719,-0.9729,-1.1028,-1.2176,-1.2753,-1.3092,-1.3625,-1.4336,-1.4704,-1.4891,-1.4968,-1.4968,-1.4968,-1.4968,-1.4968,-1.4968,-1.4968,-1.4968,-1.4968,-1.4968,-1.4968,-1.4968,-1.4968,-1.4968,-1.4968,-1.4968,-1.4968,-1.4968,-1.4968,-1.4968,-1.4968,-1.4968,-1.4968,-1.5122,-1.5433,-1.5744,-1.5893,-1.6195,-1.6352,-1.6963,-1.7416,-1.7569,-1.8329,-1.8936,-1.939,-2.0145,-2.0748,-2.1343,-2.1936,-2.2396,-2.285,-2.3432,-2.358,-2.3729,-2.4179,-2.4911,-2.5198,-2.5793,-2.6093,-2.6392,-2.6838,-2.6845,-2.6991,-2.6991,-2.6991,-2.6991,-2.6991,-2.6991,-2.6991,-2.6991,-2.6991,-2.6991,-2.6991,-2.6991,-2.6991,-2.6991,-2.6991,-2.6991,-2.6991,-2.6991,-2.6991,-2.6991,-2.6991,-2.6991,-2.6991,-2.6991,-2.6991,-2.6991,-2.6991,-2.6991,-2.6991,-2.6991,-2.6991,-2.6991,-2.6991,-2.6991,-2.6991,-2.6991,-2.6991,-2.6991,-2.6991,-2.6991,-2.6991,-2.6991,-2.6991,-2.6991,-2.6991,-2.7136,-2.7274,-2.7412,-2.7558,-2.7703,-2.7985,-0.6108,-0.727,-0.7417,-0.814,-0.9443,-1.0884,-1.2033,-1.2658,-1.3482,-1.3999,-1.4469,-1.4793,-1.4911,-1.4948,-1.4968,-1.4968,-1.4968,-1.4968,-1.4968,-1.4968,-1.4968,-1.4968,-1.4968,-1.4968,-1.4968,-1.4968,-1.4968,-1.4968,-1.4968,-1.4968,-1.4968,-1.4968,-1.4968,-1.4968,-1.4968,-1.5122,-1.5117,-1.5429,-1.5582,-1.5739,-1.6046,-1.6352,-1.6811,-1.7116,-1.7721,-1.8025,-1.8633,-1.9234,-1.9687,-2.0291,-2.0742,-2.1048,-2.1499,-2.1942,-2.2241,-2.2545,-2.2999,-2.3735,-2.4173,-2.4455,-2.4911,-2.5366,-2.61,-2.6538,-2.6692,-2.6692,-2.6845,-2.6991,-2.6991,-2.6991,-2.6991,-2.6991,-2.6991,-2.6991,-2.6991,-2.6991,-2.6991,-2.6991,-2.6991,-2.6991,-2.6991,-2.6991,-2.6991,-2.6991,-2.6991,-2.6991,-2.6991,-2.6991,-2.6991,-2.6991,-2.6991,-2.6991,-2.6991,-2.6991,-2.6991,-2.6991,-2.6991,-2.6991,-2.6991,-2.6991,-2.6991,-2.6991,-2.6991,-2.6991,-2.6991,-2.6991,-2.6991,-2.6991,-2.6991,-2.6991,-2.6991,-2.7274,-2.7412,-2.7558,-2.7703,-0.5386,-0.6259,-0.6402,-0.6982,-0.8138,-0.9729,-1.1028,-1.2191,-1.3081,-1.3544,-1.3839,-1.4334,-1.4646,-1.4927,-1.4956,-1.4968,-1.4968,-1.4968,-1.4968,-1.4968,-1.4968,-1.4968,-1.4968,-1.4968,-1.4968,-1.4968,-1.4968,-1.4968,-1.4968,-1.4968,-1.4968,-1.4968,-1.4968,-1.4968,-1.4968,-1.4968,-1.4964,-1.5122,-1.5279,-1.5433,-1.5739,-1.5897,-1.6352,-1.6658,-1.7116,-1.7421,-1.7878,-1.8334,-1.879,-1.9088,-1.9239,-1.9693,-2.014,-2.0731,-2.1193,-2.1499,-2.1954,-2.2247,-2.2688,-2.3122,-2.3574,-2.4031,-2.4918,-2.5653,-2.6239,-2.6392,-2.6538,-2.6692,-2.6845,-2.6991,-2.6991,-2.6991,-2.6991,-2.6991,-2.6991,-2.6991,-2.6991,-2.6991,-2.6991,-2.6991,-2.6991,-2.6991,-2.6991,-2.6991,-2.6961,-2.6991,-2.6991,-2.6991,-2.6991,-2.6991,-2.6991,-2.6991,-2.6991,-2.6991,-2.6991,-2.6991,-2.6991,-2.6991,-2.6991,-2.6991,-2.6991,-2.6983,-2.6991,-2.6991,-2.6991,-2.6991,-2.6991,-2.6991,-2.6991,-2.6991,-2.6991,-2.6991,-2.7274,-2.7267,-2.7412,-0.4371,-0.5098,-0.5244,-0.5823,-0.6982,-0.8285,-0.9585,-1.1047,-1.1911,-1.2597,-1.2938,-1.3821,-1.4263,-1.433,-1.475,-1.4952,-1.4968,-1.4968,-1.4968,-1.4968,-1.4968,-1.4968,-1.4968,-1.4968,-1.4968,-1.4968,-1.4968,-1.4968,-1.4968,-1.4968,-1.4968,-1.4968,-1.4968,-1.4968,-1.4968,-1.4968,-1.4968,-1.5122,-1.5122,-1.5275,-1.5275,-1.5586,-1.5893,-1.6046,-1.6352,-1.6658,-1.6963,-1.7426,-1.7878,-1.7878,-1.8486,-1.8941,-1.9093,-1.9542,-1.9844,-2.0296,-2.0447,-2.0742,-2.1337,-2.1631,-2.1936,-2.2688,-2.3432,-2.4321,-2.5058,-2.5653,-2.5946,-2.6392,-2.6546,-2.6692,-2.6692,-2.6845,-2.6845,-2.6845,-2.6961,-2.6903,-2.6888,-2.6837,-2.6837,-2.6815,-2.6822,-2.6859,-2.6881,-2.6925,-2.6903,-2.6961,-2.6991,-2.6991,-2.6991,-2.6991,-2.6991,-2.6991,-2.6991,-2.6991,-2.6991,-2.6991,-2.6991,-2.6991,-2.6961,-2.6932,-2.6917,-2.6925,-2.6969,-2.6925,-2.6808,-2.6874,-2.6991,-2.6939,-2.6793,-2.6954,-2.6976,-2.6983,-2.6991,-2.7129,-2.7274,-0.35,-0.4228,-0.4227,-0.4809,-0.5825,-0.6982,-0.814,-0.9313,-1.0689,-1.1623,-1.1997,-1.2907,-1.3518,-1.396,-1.4357,-1.4742,-1.4818,-1.4968,-1.4968,-1.4968,-1.4968,-1.4968,-1.4968,-1.4968,-1.4968,-1.4968,-1.4968,-1.4968,-1.4968,-1.4968,-1.4968,-1.4968,-1.4968,-1.4968,-1.4968,-1.4968,-1.4968,-1.4968,-1.4968,-1.4968,-1.5122,-1.5275,-1.5433,-1.5586,-1.5893,-1.6046,-1.6203,-1.6815,-1.6815,-1.6968,-1.7578,-1.803,-1.8187,-1.8638,-1.8941,-1.9396,-1.9396,-1.9693,-2.014,-2.0285,-2.0742,-2.1343,-2.1942,-2.2682,-2.3729,-2.4468,-2.5212,-2.58,-2.61,-2.6246,-2.6399,-2.6692,-2.6692,-2.6699,-2.675,-2.68,-2.6727,-2.6647,-2.661,-2.6581,-2.6603,-2.6647,-2.6698,-2.6764,-2.6866,-2.6947,-2.6991,-2.6991,-2.6991,-2.6991,-2.6991,-2.6991,-2.6991,-2.6991,-2.6991,-2.6976,-2.6954,-2.6896,-2.6786,-2.6771,-2.68,-2.6676,-2.6544,-2.653,-2.6544,-2.6603,-2.6639,-2.6596,-2.6522,-2.6691,-2.6837,-2.6852,-2.6896,-2.6991,-2.7136,-0.277,-0.3501,-0.3501,-0.4083,-0.4809,-0.5823,-0.6551,-0.7133,-0.9163,-1.0523,-1.1062,-1.198,-1.2589,-1.3218,-1.3782,-1.4045,-1.4287,-1.4637,-1.4818,-1.4968,-1.4968,-1.4968,-1.4968,-1.4968,-1.4968,-1.4968,-1.4968,-1.4968,-1.4968,-1.4968,-1.4968,-1.4968,-1.4968,-1.4968,-1.4968,-1.4968,-1.4968,-1.4968,-1.4968,-1.4968,-1.4968,-1.5122,-1.5122,-1.5429,-1.5582,-1.5735,-1.5897,-1.605,-1.6203,-1.6357,-1.651,-1.6963,-1.7421,-1.7883,-1.8187,-1.8339,-1.8182,-1.8638,-1.8936,-1.9088,-1.9542,-2.014,-2.0586,-2.1037,-2.1936,-2.3438,-2.4327,-2.4911,-2.5058,-2.5499,-2.58,-2.5979,-2.5937,-2.6156,-2.6193,-2.6236,-2.6292,-2.6219,-2.6303,-2.6281,-2.6296,-2.6347,-2.6413,-2.6471,-2.6588,-2.68,-2.6903,-2.6896,-2.6969,-2.6969,-2.6947,-2.6947,-2.6983,-2.6976,-2.6954,-2.6932,-2.6896,-2.6815,-2.6632,-2.6508,-2.6471,-2.6281,-2.6047,-2.6164,-2.6296,-2.6179,-2.6157,-2.62,-2.6288,-2.6383,-2.6522,-2.6639,-2.6749,-2.6859,-2.6969,-0.2625,-0.3063,-0.3355,-0.3791,-0.4226,-0.4808,-0.5391,-0.5683,-0.6839,-0.83,-0.9794,-1.0757,-1.1573,-1.2268,-1.2921,-1.3347,-1.3718,-1.413,-1.4503,-1.4669,-1.4818,-1.4968,-1.4968,-1.4968,-1.4968,-1.4968,-1.4968,-1.4968,-1.4968,-1.4968,-1.4968,-1.4968,-1.4968,-1.4968,-1.4968,-1.4968,-1.4968,-1.4968,-1.4968,-1.4968,-1.4968,-1.4968,-1.5122,-1.5122,-1.5275,-1.5275,-1.5433,-1.5586,-1.5739,-1.5893,-1.6203,-1.6357,-1.651,-1.6662,-1.6815,-1.6815,-1.6968,-1.7426,-1.7731,-1.7878,-1.8334,-1.8936,-1.9385,-1.9542,-2.0447,-2.2247,-2.3283,-2.3709,-2.4147,-2.4737,-2.4983,-2.5132,-2.5284,-2.5461,-2.5613,-2.5655,-2.5696,-2.5899,-2.5974,-2.5966,-2.5974,-2.6025,-2.6091,-2.62,-2.6332,-2.6457,-2.6566,-2.6654,-2.683,-2.6881,-2.6822,-2.6837,-2.6947,-2.6954,-2.6881,-2.6757,-2.6654,-2.6522,-2.6325,-2.6222,-2.6127,-2.5959,-2.5798,-2.5959,-2.6047,-2.5893,-2.5857,-2.6003,-2.6091,-2.612,-2.6179,-2.6281,-2.6457,-2.6588,-2.6771,-0.2479,-0.2625,-0.3063,-0.3353,-0.3645,-0.3937,-0.4519,-0.4956,-0.5535,-0.6549,-0.8003,-0.9079,-1.0158,-1.1085,-1.1719,-1.234,-1.2856,-1.3428,-1.398,-1.4337,-1.4511,-1.4814,-1.4968,-1.4968,-1.4968,-1.4968,-1.4968,-1.4968,-1.4968,-1.4968,-1.4968,-1.4968,-1.4968,-1.4968,-1.4968,-1.4968,-1.4968,-1.4968,-1.4968,-1.4968,-1.4968,-1.4968,-1.4968,-1.4968,-1.4968,-1.4968,-1.5122,-1.5275,-1.5275,-1.5429,-1.5739,-1.605,-1.6203,-1.6357,-1.6203,-1.6357,-1.6361,-1.6361,-1.6815,-1.6954,-1.725,-1.7687,-1.8054,-1.8311,-1.8726,-2.0352,-2.1306,-2.1888,-2.2761,-2.3197,-2.3553,-2.372,-2.4172,-2.4487,-2.4693,-2.4799,-2.5075,-2.536,-2.5469,-2.5469,-2.5513,-2.56,-2.5681,-2.5798,-2.5952,-2.6186,-2.6281,-2.631,-2.65,-2.6669,-2.6639,-2.6617,-2.6661,-2.661,-2.6442,-2.6354,-2.6303,-2.6157,-2.6018,-2.5798,-2.5644,-2.56,-2.5579,-2.5637,-2.5637,-2.5542,-2.5557,-2.5681,-2.5754,-2.5776,-2.5827,-2.5908,-2.6105,-2.6303,-2.6471,-0.2333,-0.2333,-0.2625,-0.2917,-0.2917,-0.3209,-0.3791,-0.4518,-0.4519,-0.5098,-0.6259,-0.7274,-0.8491,-0.9573,-1.0231,-1.1126,-1.1864,-1.2422,-1.3133,-1.3827,-1.4041,-1.4353,-1.4661,-1.4814,-1.4968,-1.4968,-1.4968,-1.4968,-1.4968,-1.4968,-1.4968,-1.4968,-1.4968,-1.4968,-1.4968,-1.4968,-1.4968,-1.4968,-1.4968,-1.4968,-1.4968,-1.4968,-1.4968,-1.4968,-1.4968,-1.4968,-1.4968,-1.4968,-1.4968,-1.5122,-1.5275,-1.5586,-1.5739,-1.5897,-1.5897,-1.5897,-1.5893,-1.6024,-1.6151,-1.6124,-1.6411,-1.6669,-1.6842,-1.7062,-1.7619,-1.8223,-1.9308,-2.0047,-2.0914,-2.177,-2.2122,-2.23,-2.2898,-2.3357,-2.3674,-2.3887,-2.4278,-2.4832,-2.4967,-2.5103,-2.5169,-2.5264,-2.5337,-2.5461,-2.563,-2.5857,-2.5966,-2.5988,-2.6047,-2.6193,-2.6259,-2.62,-2.6179,-2.6098,-2.6054,-2.5974,-2.5952,-2.5849,-2.5688,-2.5396,-2.5198,-2.5279,-2.5279,-2.5191,-2.5169,-2.5227,-2.5205,-2.5264,-2.533,-2.5461,-2.5476,-2.5571,-2.5805,-2.5996,-2.6142,-0.2333,-0.2333,-0.2333,-0.2625,-0.2917,-0.2917,-0.3355,-0.3646,-0.3792,-0.4227,-0.4953,-0.5389,-0.6419,-0.8467,-0.871,-0.9544,-1.0649,-1.123,-1.1944,-1.2623,-1.3166,-1.3849,-1.4318,-1.4404,-1.4641,-1.4782,-1.4907,-1.4948,-1.4866,-1.4903,-1.4952,-1.4927,-1.4935,-1.494,-1.4948,-1.494,-1.4907,-1.4899,-1.4903,-1.4903,-1.4927,-1.4935,-1.4964,-1.4968,-1.4968,-1.4968,-1.4968,-1.4968,-1.4968,-1.4968,-1.5117,-1.5275,-1.5263,-1.5412,-1.5395,-1.537,-1.5374,-1.5442,-1.5396,-1.5513,-1.563,-1.5812,-1.6004,-1.6111,-1.6379,-1.6812,-1.7566,-1.7854,-1.8863,-2.0044,-2.0549,-2.0679,-2.1124,-2.2051,-2.2584,-2.3171,-2.3591,-2.4109,-2.4524,-2.4795,-2.4953,-2.4996,-2.5147,-2.5249,-2.533,-2.552,-2.5622,-2.5666,-2.582,-2.5864,-2.5879,-2.5813,-2.574,-2.5879,-2.5952,-2.5688,-2.56,-2.5513,-2.5418,-2.5235,-2.511,-2.5081,-2.5059,-2.5059,-2.5059,-2.511,-2.5066,-2.5059,-2.5103,-2.522,-2.5169,-2.5235,-2.5491,-2.5674,-2.5798]}]]